<?xml version="1.0" encoding="UTF-8" standalone="no" ?>
<gpx xmlns="http://www.topografix.com/GPX/1/1" xmlns:xsi="http://www.w3.org/2001/XMLSchema-instance" xsi:schemaLocation="http://www.topografix.com/GPX/1/1 http://www.topografix.com/GPX/1/1/gpx.xsd" version="1.1" creator="VisuGPX - https://www.visugpx.com">
  <metadata>
    <name>53 - Condom - Lamothe</name>
    <desc><![CDATA[Runmeter Course 27 avr. 2018 à 08:48:22]]></desc>
  </metadata>
  <trk>
    <name><![CDATA[Nouveau parcours]]></name>
    <trkseg>
      <trkpt lat="43.95685" lon="0.36925">
        <ele>70.3</ele>
        <time>2018-04-27T06:48:22Z</time>
      </trkpt>
      <trkpt lat="43.9569" lon="0.36911">
        <ele>70.8</ele>
        <time>2018-04-27T06:48:34Z</time>
      </trkpt>
      <trkpt lat="43.95677" lon="0.36917">
        <ele>71.9</ele>
        <time>2018-04-27T06:48:59Z</time>
      </trkpt>
      <trkpt lat="43.95674" lon="0.36898">
        <ele>72.8</ele>
        <time>2018-04-27T06:49:18Z</time>
      </trkpt>
      <trkpt lat="43.95681" lon="0.3688">
        <ele>73.2</ele>
        <time>2018-04-27T06:49:27Z</time>
      </trkpt>
      <trkpt lat="43.95682" lon="0.36861">
        <ele>73.4</ele>
        <time>2018-04-27T06:49:32Z</time>
      </trkpt>
      <trkpt lat="43.95682" lon="0.36858">
        <ele>73.5</ele>
        <time>2018-04-27T06:49:34Z</time>
      </trkpt>
      <trkpt lat="43.95685" lon="0.36843">
        <ele>73.8</ele>
        <time>2018-04-27T06:49:43Z</time>
      </trkpt>
      <trkpt lat="43.95683" lon="0.36834">
        <ele>74.3</ele>
        <time>2018-04-27T06:49:56Z</time>
      </trkpt>
      <trkpt lat="43.95669" lon="0.36828">
        <ele>74.9</ele>
        <time>2018-04-27T06:50:12Z</time>
      </trkpt>
      <trkpt lat="43.95654" lon="0.36828">
        <ele>75.2</ele>
        <time>2018-04-27T06:50:22Z</time>
      </trkpt>
      <trkpt lat="43.9564" lon="0.36828">
        <ele>75.6</ele>
        <time>2018-04-27T06:50:33Z</time>
      </trkpt>
      <trkpt lat="43.95625" lon="0.36829">
        <ele>76.2</ele>
        <time>2018-04-27T06:50:48Z</time>
      </trkpt>
      <trkpt lat="43.95614" lon="0.36827">
        <ele>76.6</ele>
        <time>2018-04-27T06:50:58Z</time>
      </trkpt>
      <trkpt lat="43.95611" lon="0.36827">
        <ele>76.6</ele>
        <time>2018-04-27T06:51:01Z</time>
      </trkpt>
      <trkpt lat="43.95597" lon="0.36826">
        <ele>76.7</ele>
        <time>2018-04-27T06:51:14Z</time>
      </trkpt>
      <trkpt lat="43.95584" lon="0.36821">
        <ele>76.9</ele>
        <time>2018-04-27T06:51:29Z</time>
      </trkpt>
      <trkpt lat="43.95575" lon="0.36805">
        <ele>77</ele>
        <time>2018-04-27T06:51:40Z</time>
      </trkpt>
      <trkpt lat="43.9557" lon="0.36791">
        <ele>77.1</ele>
        <time>2018-04-27T06:51:55Z</time>
      </trkpt>
      <trkpt lat="43.95572" lon="0.36792">
        <ele>77.2</ele>
        <time>2018-04-27T06:51:59Z</time>
      </trkpt>
      <trkpt lat="43.95565" lon="0.36774">
        <ele>77.3</ele>
        <time>2018-04-27T06:52:11Z</time>
      </trkpt>
      <trkpt lat="43.95568" lon="0.36756">
        <ele>77.4</ele>
        <time>2018-04-27T06:52:23Z</time>
      </trkpt>
      <trkpt lat="43.95567" lon="0.36736">
        <ele>77.5</ele>
        <time>2018-04-27T06:52:35Z</time>
      </trkpt>
      <trkpt lat="43.95565" lon="0.36717">
        <ele>77.7</ele>
        <time>2018-04-27T06:52:47Z</time>
      </trkpt>
      <trkpt lat="43.95563" lon="0.36698">
        <ele>77.8</ele>
        <time>2018-04-27T06:53:00Z</time>
      </trkpt>
      <trkpt lat="43.95561" lon="0.36679">
        <ele>77.9</ele>
        <time>2018-04-27T06:53:13Z</time>
      </trkpt>
      <trkpt lat="43.95562" lon="0.3666">
        <ele>78</ele>
        <time>2018-04-27T06:53:25Z</time>
      </trkpt>
      <trkpt lat="43.95561" lon="0.3664">
        <ele>78.2</ele>
        <time>2018-04-27T06:53:40Z</time>
      </trkpt>
      <trkpt lat="43.95557" lon="0.36621">
        <ele>78.3</ele>
        <time>2018-04-27T06:53:53Z</time>
      </trkpt>
      <trkpt lat="43.95554" lon="0.36602">
        <ele>78.5</ele>
        <time>2018-04-27T06:54:06Z</time>
      </trkpt>
      <trkpt lat="43.95549" lon="0.36583">
        <ele>78.6</ele>
        <time>2018-04-27T06:54:18Z</time>
      </trkpt>
      <trkpt lat="43.95538" lon="0.3657">
        <ele>78.7</ele>
        <time>2018-04-27T06:54:32Z</time>
      </trkpt>
      <trkpt lat="43.95526" lon="0.36558">
        <ele>78.8</ele>
        <time>2018-04-27T06:54:42Z</time>
      </trkpt>
      <trkpt lat="43.95519" lon="0.36541">
        <ele>79</ele>
        <time>2018-04-27T06:54:57Z</time>
      </trkpt>
      <trkpt lat="43.95515" lon="0.36534">
        <ele>79</ele>
        <time>2018-04-27T06:55:03Z</time>
      </trkpt>
      <trkpt lat="43.95503" lon="0.36543">
        <ele>79.2</ele>
        <time>2018-04-27T06:55:20Z</time>
      </trkpt>
      <trkpt lat="43.95495" lon="0.36526">
        <ele>79.3</ele>
        <time>2018-04-27T06:55:32Z</time>
      </trkpt>
      <trkpt lat="43.95485" lon="0.36511">
        <ele>79.4</ele>
        <time>2018-04-27T06:55:40Z</time>
      </trkpt>
      <trkpt lat="43.95478" lon="0.36495">
        <ele>79.5</ele>
        <time>2018-04-27T06:55:50Z</time>
      </trkpt>
      <trkpt lat="43.95468" lon="0.36482">
        <ele>79.6</ele>
        <time>2018-04-27T06:56:04Z</time>
      </trkpt>
      <trkpt lat="43.95454" lon="0.36477">
        <ele>79.8</ele>
        <time>2018-04-27T06:56:17Z</time>
      </trkpt>
      <trkpt lat="43.95442" lon="0.36467">
        <ele>79.9</ele>
        <time>2018-04-27T06:56:31Z</time>
      </trkpt>
      <trkpt lat="43.95429" lon="0.36458">
        <ele>80</ele>
        <time>2018-04-27T06:56:44Z</time>
      </trkpt>
      <trkpt lat="43.95416" lon="0.3645">
        <ele>80.2</ele>
        <time>2018-04-27T06:56:57Z</time>
      </trkpt>
      <trkpt lat="43.95403" lon="0.36446">
        <ele>80.3</ele>
        <time>2018-04-27T06:57:11Z</time>
      </trkpt>
      <trkpt lat="43.95389" lon="0.36446">
        <ele>80.5</ele>
        <time>2018-04-27T06:57:25Z</time>
      </trkpt>
      <trkpt lat="43.95376" lon="0.36439">
        <ele>80.6</ele>
        <time>2018-04-27T06:57:36Z</time>
      </trkpt>
      <trkpt lat="43.95363" lon="0.36433">
        <ele>80.7</ele>
        <time>2018-04-27T06:57:47Z</time>
      </trkpt>
      <trkpt lat="43.95356" lon="0.36416">
        <ele>80.9</ele>
        <time>2018-04-27T06:58:05Z</time>
      </trkpt>
      <trkpt lat="43.95353" lon="0.36398">
        <ele>81.1</ele>
        <time>2018-04-27T06:58:30Z</time>
      </trkpt>
      <trkpt lat="43.95357" lon="0.36378">
        <ele>81.3</ele>
        <time>2018-04-27T06:58:49Z</time>
      </trkpt>
      <trkpt lat="43.95361" lon="0.3636">
        <ele>81.5</ele>
        <time>2018-04-27T06:59:05Z</time>
      </trkpt>
      <trkpt lat="43.95364" lon="0.3634">
        <ele>81.6</ele>
        <time>2018-04-27T06:59:18Z</time>
      </trkpt>
      <trkpt lat="43.95368" lon="0.36331">
        <ele>81.6</ele>
        <time>2018-04-27T06:59:24Z</time>
      </trkpt>
      <trkpt lat="43.95371" lon="0.36322">
        <ele>80</ele>
        <time>2018-04-27T06:59:30Z</time>
      </trkpt>
      <trkpt lat="43.95374" lon="0.36313">
        <ele>78.4</ele>
        <time>2018-04-27T06:59:36Z</time>
      </trkpt>
      <trkpt lat="43.95377" lon="0.36303">
        <ele>78.6</ele>
        <time>2018-04-27T06:59:43Z</time>
      </trkpt>
      <trkpt lat="43.95385" lon="0.36288">
        <ele>78.8</ele>
        <time>2018-04-27T06:59:58Z</time>
      </trkpt>
      <trkpt lat="43.95394" lon="0.36272">
        <ele>79.1</ele>
        <time>2018-04-27T07:00:13Z</time>
      </trkpt>
      <trkpt lat="43.95401" lon="0.36261">
        <ele>79.5</ele>
        <time>2018-04-27T07:00:31Z</time>
      </trkpt>
      <trkpt lat="43.95389" lon="0.36251">
        <ele>79.7</ele>
        <time>2018-04-27T07:00:43Z</time>
      </trkpt>
      <trkpt lat="43.95379" lon="0.36239">
        <ele>79.9</ele>
        <time>2018-04-27T07:00:55Z</time>
      </trkpt>
      <trkpt lat="43.95368" lon="0.36225">
        <ele>80.2</ele>
        <time>2018-04-27T07:01:08Z</time>
      </trkpt>
      <trkpt lat="43.95357" lon="0.36216">
        <ele>80.4</ele>
        <time>2018-04-27T07:01:19Z</time>
      </trkpt>
      <trkpt lat="43.95343" lon="0.36212">
        <ele>80.6</ele>
        <time>2018-04-27T07:01:33Z</time>
      </trkpt>
      <trkpt lat="43.95329" lon="0.36214">
        <ele>80.9</ele>
        <time>2018-04-27T07:01:45Z</time>
      </trkpt>
      <trkpt lat="43.95315" lon="0.36215">
        <ele>81.1</ele>
        <time>2018-04-27T07:01:59Z</time>
      </trkpt>
      <trkpt lat="43.95301" lon="0.3621">
        <ele>81.5</ele>
        <time>2018-04-27T07:02:16Z</time>
      </trkpt>
      <trkpt lat="43.95299" lon="0.36209">
        <ele>81.5</ele>
        <time>2018-04-27T07:02:18Z</time>
      </trkpt>
      <trkpt lat="43.95289" lon="0.36202">
        <ele>82.9</ele>
        <time>2018-04-27T07:02:32Z</time>
      </trkpt>
      <trkpt lat="43.95275" lon="0.36195">
        <ele>84.2</ele>
        <time>2018-04-27T07:02:46Z</time>
      </trkpt>
      <trkpt lat="43.95268" lon="0.36188">
        <ele>84.8</ele>
        <time>2018-04-27T07:02:52Z</time>
      </trkpt>
      <trkpt lat="43.95264" lon="0.36183">
        <ele>84.9</ele>
        <time>2018-04-27T07:02:56Z</time>
      </trkpt>
      <trkpt lat="43.95251" lon="0.36176">
        <ele>85.1</ele>
        <time>2018-04-27T07:03:11Z</time>
      </trkpt>
      <trkpt lat="43.95243" lon="0.3616">
        <ele>85.2</ele>
        <time>2018-04-27T07:03:24Z</time>
      </trkpt>
      <trkpt lat="43.95235" lon="0.36144">
        <ele>85.4</ele>
        <time>2018-04-27T07:03:38Z</time>
      </trkpt>
      <trkpt lat="43.95226" lon="0.36128">
        <ele>85.6</ele>
        <time>2018-04-27T07:03:53Z</time>
      </trkpt>
      <trkpt lat="43.95223" lon="0.36108">
        <ele>85.8</ele>
        <time>2018-04-27T07:04:06Z</time>
      </trkpt>
      <trkpt lat="43.95217" lon="0.36089">
        <ele>86</ele>
        <time>2018-04-27T07:04:21Z</time>
      </trkpt>
      <trkpt lat="43.95209" lon="0.36075">
        <ele>86.1</ele>
        <time>2018-04-27T07:04:30Z</time>
      </trkpt>
      <trkpt lat="43.95201" lon="0.36058">
        <ele>86.3</ele>
        <time>2018-04-27T07:04:45Z</time>
      </trkpt>
      <trkpt lat="43.95197" lon="0.3604">
        <ele>86.4</ele>
        <time>2018-04-27T07:04:58Z</time>
      </trkpt>
      <trkpt lat="43.95188" lon="0.36026">
        <ele>86.6</ele>
        <time>2018-04-27T07:05:10Z</time>
      </trkpt>
      <trkpt lat="43.95184" lon="0.36004">
        <ele>86.7</ele>
        <time>2018-04-27T07:05:22Z</time>
      </trkpt>
      <trkpt lat="43.95176" lon="0.35988">
        <ele>86.9</ele>
        <time>2018-04-27T07:05:38Z</time>
      </trkpt>
      <trkpt lat="43.95168" lon="0.35973">
        <ele>87.1</ele>
        <time>2018-04-27T07:05:50Z</time>
      </trkpt>
      <trkpt lat="43.9516" lon="0.35957">
        <ele>87.3</ele>
        <time>2018-04-27T07:06:03Z</time>
      </trkpt>
      <trkpt lat="43.95152" lon="0.35942">
        <ele>87.4</ele>
        <time>2018-04-27T07:06:18Z</time>
      </trkpt>
      <trkpt lat="43.9516" lon="0.35926">
        <ele>87.6</ele>
        <time>2018-04-27T07:06:30Z</time>
      </trkpt>
      <trkpt lat="43.95154" lon="0.35909">
        <ele>87.7</ele>
        <time>2018-04-27T07:06:42Z</time>
      </trkpt>
      <trkpt lat="43.9515" lon="0.3589">
        <ele>87.9</ele>
        <time>2018-04-27T07:06:55Z</time>
      </trkpt>
      <trkpt lat="43.95149" lon="0.35888">
        <ele>87.9</ele>
        <time>2018-04-27T07:06:57Z</time>
      </trkpt>
      <trkpt lat="43.95142" lon="0.35875">
        <ele>88.3</ele>
        <time>2018-04-27T07:07:09Z</time>
      </trkpt>
      <trkpt lat="43.95135" lon="0.35857">
        <ele>88.6</ele>
        <time>2018-04-27T07:07:24Z</time>
      </trkpt>
      <trkpt lat="43.95128" lon="0.3584">
        <ele>89</ele>
        <time>2018-04-27T07:07:40Z</time>
      </trkpt>
      <trkpt lat="43.95119" lon="0.35826">
        <ele>89.3</ele>
        <time>2018-04-27T07:07:51Z</time>
      </trkpt>
      <trkpt lat="43.95111" lon="0.3581">
        <ele>89.7</ele>
        <time>2018-04-27T07:08:07Z</time>
      </trkpt>
      <trkpt lat="43.951" lon="0.35799">
        <ele>90</ele>
        <time>2018-04-27T07:08:16Z</time>
      </trkpt>
      <trkpt lat="43.95091" lon="0.35783">
        <ele>90.3</ele>
        <time>2018-04-27T07:08:28Z</time>
      </trkpt>
      <trkpt lat="43.95079" lon="0.35772">
        <ele>90.7</ele>
        <time>2018-04-27T07:08:43Z</time>
      </trkpt>
      <trkpt lat="43.95067" lon="0.35762">
        <ele>90.9</ele>
        <time>2018-04-27T07:08:52Z</time>
      </trkpt>
      <trkpt lat="43.95053" lon="0.35759">
        <ele>91.2</ele>
        <time>2018-04-27T07:09:02Z</time>
      </trkpt>
      <trkpt lat="43.95052" lon="0.35758">
        <ele>91.2</ele>
        <time>2018-04-27T07:09:03Z</time>
      </trkpt>
      <trkpt lat="43.95039" lon="0.35754">
        <ele>91.3</ele>
        <time>2018-04-27T07:09:13Z</time>
      </trkpt>
      <trkpt lat="43.95024" lon="0.35758">
        <ele>91.5</ele>
        <time>2018-04-27T07:09:33Z</time>
      </trkpt>
      <trkpt lat="43.9501" lon="0.35756">
        <ele>91.7</ele>
        <time>2018-04-27T07:09:48Z</time>
      </trkpt>
      <trkpt lat="43.94996" lon="0.35756">
        <ele>91.8</ele>
        <time>2018-04-27T07:10:01Z</time>
      </trkpt>
      <trkpt lat="43.94981" lon="0.35752">
        <ele>92</ele>
        <time>2018-04-27T07:10:14Z</time>
      </trkpt>
      <trkpt lat="43.94966" lon="0.35748">
        <ele>92.1</ele>
        <time>2018-04-27T07:10:27Z</time>
      </trkpt>
      <trkpt lat="43.94964" lon="0.35729">
        <ele>92.3</ele>
        <time>2018-04-27T07:10:45Z</time>
      </trkpt>
      <trkpt lat="43.94966" lon="0.3571">
        <ele>92.4</ele>
        <time>2018-04-27T07:10:58Z</time>
      </trkpt>
      <trkpt lat="43.9497" lon="0.35691">
        <ele>92.6</ele>
        <time>2018-04-27T07:11:11Z</time>
      </trkpt>
      <trkpt lat="43.94973" lon="0.35673">
        <ele>92.7</ele>
        <time>2018-04-27T07:11:22Z</time>
      </trkpt>
      <trkpt lat="43.94977" lon="0.35655">
        <ele>92.9</ele>
        <time>2018-04-27T07:11:37Z</time>
      </trkpt>
      <trkpt lat="43.94977" lon="0.35636">
        <ele>93</ele>
        <time>2018-04-27T07:11:50Z</time>
      </trkpt>
      <trkpt lat="43.94982" lon="0.35616">
        <ele>93.2</ele>
        <time>2018-04-27T07:12:04Z</time>
      </trkpt>
      <trkpt lat="43.94982" lon="0.35608">
        <ele>93.3</ele>
        <time>2018-04-27T07:12:11Z</time>
      </trkpt>
      <trkpt lat="43.9497" lon="0.35596">
        <ele>93.4</ele>
        <time>2018-04-27T07:12:21Z</time>
      </trkpt>
      <trkpt lat="43.94959" lon="0.35586">
        <ele>93.5</ele>
        <time>2018-04-27T07:12:30Z</time>
      </trkpt>
      <trkpt lat="43.9495" lon="0.35572">
        <ele>93.6</ele>
        <time>2018-04-27T07:12:42Z</time>
      </trkpt>
      <trkpt lat="43.94943" lon="0.35555">
        <ele>93.7</ele>
        <time>2018-04-27T07:12:53Z</time>
      </trkpt>
      <trkpt lat="43.94934" lon="0.35542">
        <ele>93.9</ele>
        <time>2018-04-27T07:13:05Z</time>
      </trkpt>
      <trkpt lat="43.94926" lon="0.35525">
        <ele>94</ele>
        <time>2018-04-27T07:13:19Z</time>
      </trkpt>
      <trkpt lat="43.94919" lon="0.35508">
        <ele>94.2</ele>
        <time>2018-04-27T07:13:34Z</time>
      </trkpt>
      <trkpt lat="43.94919" lon="0.35506">
        <ele>94.2</ele>
        <time>2018-04-27T07:13:35Z</time>
      </trkpt>
      <trkpt lat="43.94918" lon="0.35489">
        <ele>94.8</ele>
        <time>2018-04-27T07:13:46Z</time>
      </trkpt>
      <trkpt lat="43.94913" lon="0.3547">
        <ele>95.5</ele>
        <time>2018-04-27T07:13:59Z</time>
      </trkpt>
      <trkpt lat="43.94907" lon="0.35453">
        <ele>96.3</ele>
        <time>2018-04-27T07:14:12Z</time>
      </trkpt>
      <trkpt lat="43.94899" lon="0.35438">
        <ele>96.9</ele>
        <time>2018-04-27T07:14:23Z</time>
      </trkpt>
      <trkpt lat="43.94893" lon="0.35433">
        <ele>97.2</ele>
        <time>2018-04-27T07:14:29Z</time>
      </trkpt>
      <trkpt lat="43.94887" lon="0.35427">
        <ele>97.8</ele>
        <time>2018-04-27T07:14:36Z</time>
      </trkpt>
      <trkpt lat="43.94878" lon="0.35413">
        <ele>99</ele>
        <time>2018-04-27T07:14:50Z</time>
      </trkpt>
      <trkpt lat="43.94865" lon="0.35404">
        <ele>100</ele>
        <time>2018-04-27T07:15:03Z</time>
      </trkpt>
      <trkpt lat="43.94859" lon="0.35397">
        <ele>100.7</ele>
        <time>2018-04-27T07:15:11Z</time>
      </trkpt>
      <trkpt lat="43.94853" lon="0.35391">
        <ele>101.4</ele>
        <time>2018-04-27T07:15:18Z</time>
      </trkpt>
      <trkpt lat="43.94842" lon="0.3538">
        <ele>103</ele>
        <time>2018-04-27T07:15:35Z</time>
      </trkpt>
      <trkpt lat="43.94832" lon="0.35373">
        <ele>104.1</ele>
        <time>2018-04-27T07:15:47Z</time>
      </trkpt>
      <trkpt lat="43.9483" lon="0.35372">
        <ele>104.2</ele>
        <time>2018-04-27T07:15:49Z</time>
      </trkpt>
      <trkpt lat="43.9482" lon="0.35357">
        <ele>105.3</ele>
        <time>2018-04-27T07:16:01Z</time>
      </trkpt>
      <trkpt lat="43.94807" lon="0.35348">
        <ele>106.4</ele>
        <time>2018-04-27T07:16:15Z</time>
      </trkpt>
      <trkpt lat="43.94799" lon="0.35344">
        <ele>107.1</ele>
        <time>2018-04-27T07:16:23Z</time>
      </trkpt>
      <trkpt lat="43.94794" lon="0.35341">
        <ele>107.3</ele>
        <time>2018-04-27T07:16:28Z</time>
      </trkpt>
      <trkpt lat="43.94785" lon="0.35326">
        <ele>107.8</ele>
        <time>2018-04-27T07:16:41Z</time>
      </trkpt>
      <trkpt lat="43.94776" lon="0.35311">
        <ele>108.5</ele>
        <time>2018-04-27T07:16:57Z</time>
      </trkpt>
      <trkpt lat="43.94767" lon="0.35296">
        <ele>110.8</ele>
        <time>2018-04-27T07:17:55Z</time>
      </trkpt>
      <trkpt lat="43.94767" lon="0.35296">
        <ele>110.9</ele>
        <time>2018-04-27T07:17:56Z</time>
      </trkpt>
      <trkpt lat="43.9476" lon="0.35286">
        <ele>111.1</ele>
        <time>2018-04-27T07:18:03Z</time>
      </trkpt>
      <trkpt lat="43.94756" lon="0.35266">
        <ele>111.6</ele>
        <time>2018-04-27T07:18:15Z</time>
      </trkpt>
      <trkpt lat="43.94752" lon="0.35247">
        <ele>112.1</ele>
        <time>2018-04-27T07:18:30Z</time>
      </trkpt>
      <trkpt lat="43.94755" lon="0.35228">
        <ele>112.5</ele>
        <time>2018-04-27T07:18:40Z</time>
      </trkpt>
      <trkpt lat="43.94754" lon="0.35209">
        <ele>112.9</ele>
        <time>2018-04-27T07:18:52Z</time>
      </trkpt>
      <trkpt lat="43.94756" lon="0.35189">
        <ele>113.3</ele>
        <time>2018-04-27T07:19:03Z</time>
      </trkpt>
      <trkpt lat="43.9476" lon="0.35171">
        <ele>113.7</ele>
        <time>2018-04-27T07:19:14Z</time>
      </trkpt>
      <trkpt lat="43.94758" lon="0.35163">
        <ele>113.9</ele>
        <time>2018-04-27T07:19:19Z</time>
      </trkpt>
      <trkpt lat="43.94756" lon="0.35152">
        <ele>113.7</ele>
        <time>2018-04-27T07:19:26Z</time>
      </trkpt>
      <trkpt lat="43.94761" lon="0.35133">
        <ele>113.3</ele>
        <time>2018-04-27T07:19:38Z</time>
      </trkpt>
      <trkpt lat="43.94762" lon="0.35114">
        <ele>112.9</ele>
        <time>2018-04-27T07:19:51Z</time>
      </trkpt>
      <trkpt lat="43.94761" lon="0.35095">
        <ele>112.5</ele>
        <time>2018-04-27T07:20:04Z</time>
      </trkpt>
      <trkpt lat="43.94762" lon="0.35076">
        <ele>112.1</ele>
        <time>2018-04-27T07:20:17Z</time>
      </trkpt>
      <trkpt lat="43.94766" lon="0.35057">
        <ele>111.7</ele>
        <time>2018-04-27T07:20:31Z</time>
      </trkpt>
      <trkpt lat="43.94762" lon="0.35037">
        <ele>111.3</ele>
        <time>2018-04-27T07:20:45Z</time>
      </trkpt>
      <trkpt lat="43.94759" lon="0.35018">
        <ele>110.9</ele>
        <time>2018-04-27T07:20:59Z</time>
      </trkpt>
      <trkpt lat="43.94758" lon="0.35008">
        <ele>110.6</ele>
        <time>2018-04-27T07:21:07Z</time>
      </trkpt>
      <trkpt lat="43.94757" lon="0.34998">
        <ele>110.7</ele>
        <time>2018-04-27T07:21:15Z</time>
      </trkpt>
      <trkpt lat="43.94754" lon="0.3498">
        <ele>110.8</ele>
        <time>2018-04-27T07:21:30Z</time>
      </trkpt>
      <trkpt lat="43.94753" lon="0.3496">
        <ele>110.9</ele>
        <time>2018-04-27T07:21:43Z</time>
      </trkpt>
      <trkpt lat="43.94751" lon="0.34941">
        <ele>111</ele>
        <time>2018-04-27T07:21:57Z</time>
      </trkpt>
      <trkpt lat="43.94749" lon="0.34922">
        <ele>111</ele>
        <time>2018-04-27T07:22:09Z</time>
      </trkpt>
      <trkpt lat="43.94746" lon="0.34903">
        <ele>111.1</ele>
        <time>2018-04-27T07:22:21Z</time>
      </trkpt>
      <trkpt lat="43.94741" lon="0.34884">
        <ele>111.2</ele>
        <time>2018-04-27T07:22:33Z</time>
      </trkpt>
      <trkpt lat="43.94738" lon="0.34865">
        <ele>111.3</ele>
        <time>2018-04-27T07:22:45Z</time>
      </trkpt>
      <trkpt lat="43.94733" lon="0.34846">
        <ele>111.4</ele>
        <time>2018-04-27T07:22:58Z</time>
      </trkpt>
      <trkpt lat="43.94732" lon="0.34827">
        <ele>111.5</ele>
        <time>2018-04-27T07:23:12Z</time>
      </trkpt>
      <trkpt lat="43.9473" lon="0.34806">
        <ele>111.5</ele>
        <time>2018-04-27T07:23:26Z</time>
      </trkpt>
      <trkpt lat="43.94726" lon="0.34788">
        <ele>111.6</ele>
        <time>2018-04-27T07:23:39Z</time>
      </trkpt>
      <trkpt lat="43.94725" lon="0.34768">
        <ele>111.7</ele>
        <time>2018-04-27T07:23:53Z</time>
      </trkpt>
      <trkpt lat="43.94718" lon="0.34751">
        <ele>111.8</ele>
        <time>2018-04-27T07:24:08Z</time>
      </trkpt>
      <trkpt lat="43.94713" lon="0.34734">
        <ele>111.9</ele>
        <time>2018-04-27T07:24:20Z</time>
      </trkpt>
      <trkpt lat="43.94708" lon="0.34715">
        <ele>112</ele>
        <time>2018-04-27T07:24:33Z</time>
      </trkpt>
      <trkpt lat="43.94706" lon="0.34697">
        <ele>112.1</ele>
        <time>2018-04-27T07:24:47Z</time>
      </trkpt>
      <trkpt lat="43.94702" lon="0.34678">
        <ele>112.2</ele>
        <time>2018-04-27T07:25:00Z</time>
      </trkpt>
      <trkpt lat="43.94701" lon="0.34658">
        <ele>112.3</ele>
        <time>2018-04-27T07:25:13Z</time>
      </trkpt>
      <trkpt lat="43.94694" lon="0.34641">
        <ele>112.3</ele>
        <time>2018-04-27T07:25:26Z</time>
      </trkpt>
      <trkpt lat="43.94689" lon="0.34623">
        <ele>112.4</ele>
        <time>2018-04-27T07:25:39Z</time>
      </trkpt>
      <trkpt lat="43.9468" lon="0.34609">
        <ele>112.5</ele>
        <time>2018-04-27T07:25:51Z</time>
      </trkpt>
      <trkpt lat="43.94671" lon="0.34592">
        <ele>112.6</ele>
        <time>2018-04-27T07:26:04Z</time>
      </trkpt>
      <trkpt lat="43.94663" lon="0.34577">
        <ele>112.7</ele>
        <time>2018-04-27T07:26:17Z</time>
      </trkpt>
      <trkpt lat="43.94653" lon="0.34562">
        <ele>112.8</ele>
        <time>2018-04-27T07:26:32Z</time>
      </trkpt>
      <trkpt lat="43.94641" lon="0.34548">
        <ele>113</ele>
        <time>2018-04-27T07:27:04Z</time>
      </trkpt>
      <trkpt lat="43.94629" lon="0.34538">
        <ele>113.1</ele>
        <time>2018-04-27T07:27:15Z</time>
      </trkpt>
      <trkpt lat="43.94615" lon="0.34533">
        <ele>113.1</ele>
        <time>2018-04-27T07:27:26Z</time>
      </trkpt>
      <trkpt lat="43.94602" lon="0.34531">
        <ele>113.2</ele>
        <time>2018-04-27T07:27:38Z</time>
      </trkpt>
      <trkpt lat="43.94588" lon="0.34524">
        <ele>113.3</ele>
        <time>2018-04-27T07:27:50Z</time>
      </trkpt>
      <trkpt lat="43.94575" lon="0.3452">
        <ele>113.4</ele>
        <time>2018-04-27T07:27:58Z</time>
      </trkpt>
      <trkpt lat="43.94561" lon="0.34517">
        <ele>113.4</ele>
        <time>2018-04-27T07:28:10Z</time>
      </trkpt>
      <trkpt lat="43.94547" lon="0.3451">
        <ele>113.5</ele>
        <time>2018-04-27T07:28:23Z</time>
      </trkpt>
      <trkpt lat="43.94534" lon="0.34501">
        <ele>113.6</ele>
        <time>2018-04-27T07:28:36Z</time>
      </trkpt>
      <trkpt lat="43.94532" lon="0.345">
        <ele>113.6</ele>
        <time>2018-04-27T07:28:39Z</time>
      </trkpt>
      <trkpt lat="43.94522" lon="0.34491">
        <ele>114.2</ele>
        <time>2018-04-27T07:28:52Z</time>
      </trkpt>
      <trkpt lat="43.94511" lon="0.34478">
        <ele>114.8</ele>
        <time>2018-04-27T07:29:05Z</time>
      </trkpt>
      <trkpt lat="43.94502" lon="0.34464">
        <ele>115.3</ele>
        <time>2018-04-27T07:29:18Z</time>
      </trkpt>
      <trkpt lat="43.94493" lon="0.34448">
        <ele>115.9</ele>
        <time>2018-04-27T07:29:31Z</time>
      </trkpt>
      <trkpt lat="43.94486" lon="0.34432">
        <ele>116.5</ele>
        <time>2018-04-27T07:29:44Z</time>
      </trkpt>
      <trkpt lat="43.94484" lon="0.34423">
        <ele>116.8</ele>
        <time>2018-04-27T07:29:51Z</time>
      </trkpt>
      <trkpt lat="43.94481" lon="0.34412">
        <ele>117.1</ele>
        <time>2018-04-27T07:29:59Z</time>
      </trkpt>
      <trkpt lat="43.9448" lon="0.34393">
        <ele>117.9</ele>
        <time>2018-04-27T07:30:14Z</time>
      </trkpt>
      <trkpt lat="43.94479" lon="0.34373">
        <ele>118.5</ele>
        <time>2018-04-27T07:30:28Z</time>
      </trkpt>
      <trkpt lat="43.94477" lon="0.34354">
        <ele>119.1</ele>
        <time>2018-04-27T07:30:41Z</time>
      </trkpt>
      <trkpt lat="43.94474" lon="0.34335">
        <ele>119.7</ele>
        <time>2018-04-27T07:30:54Z</time>
      </trkpt>
      <trkpt lat="43.94473" lon="0.34331">
        <ele>119.9</ele>
        <time>2018-04-27T07:30:57Z</time>
      </trkpt>
      <trkpt lat="43.9447" lon="0.34317">
        <ele>119.7</ele>
        <time>2018-04-27T07:31:07Z</time>
      </trkpt>
      <trkpt lat="43.94467" lon="0.34299">
        <ele>119.5</ele>
        <time>2018-04-27T07:31:20Z</time>
      </trkpt>
      <trkpt lat="43.94461" lon="0.34281">
        <ele>119.3</ele>
        <time>2018-04-27T07:31:33Z</time>
      </trkpt>
      <trkpt lat="43.94458" lon="0.34262">
        <ele>119.1</ele>
        <time>2018-04-27T07:31:47Z</time>
      </trkpt>
      <trkpt lat="43.94453" lon="0.34245">
        <ele>119</ele>
        <time>2018-04-27T07:32:00Z</time>
      </trkpt>
      <trkpt lat="43.94448" lon="0.34225">
        <ele>118.8</ele>
        <time>2018-04-27T07:32:13Z</time>
      </trkpt>
      <trkpt lat="43.94443" lon="0.34206">
        <ele>118.6</ele>
        <time>2018-04-27T07:32:26Z</time>
      </trkpt>
      <trkpt lat="43.94438" lon="0.34188">
        <ele>118.4</ele>
        <time>2018-04-27T07:32:39Z</time>
      </trkpt>
      <trkpt lat="43.94434" lon="0.3417">
        <ele>118.2</ele>
        <time>2018-04-27T07:32:51Z</time>
      </trkpt>
      <trkpt lat="43.94429" lon="0.34152">
        <ele>118</ele>
        <time>2018-04-27T07:33:05Z</time>
      </trkpt>
      <trkpt lat="43.94424" lon="0.34134">
        <ele>117.9</ele>
        <time>2018-04-27T07:33:17Z</time>
      </trkpt>
      <trkpt lat="43.9442" lon="0.34116">
        <ele>117.7</ele>
        <time>2018-04-27T07:33:29Z</time>
      </trkpt>
      <trkpt lat="43.94415" lon="0.34097">
        <ele>117.5</ele>
        <time>2018-04-27T07:33:42Z</time>
      </trkpt>
      <trkpt lat="43.9441" lon="0.34078">
        <ele>117.3</ele>
        <time>2018-04-27T07:33:55Z</time>
      </trkpt>
      <trkpt lat="43.94406" lon="0.3406">
        <ele>117.2</ele>
        <time>2018-04-27T07:34:07Z</time>
      </trkpt>
      <trkpt lat="43.94402" lon="0.34041">
        <ele>117</ele>
        <time>2018-04-27T07:34:20Z</time>
      </trkpt>
      <trkpt lat="43.94397" lon="0.34023">
        <ele>116.8</ele>
        <time>2018-04-27T07:34:32Z</time>
      </trkpt>
      <trkpt lat="43.94394" lon="0.3401">
        <ele>116.7</ele>
        <time>2018-04-27T07:34:41Z</time>
      </trkpt>
      <trkpt lat="43.94392" lon="0.34005">
        <ele>116.3</ele>
        <time>2018-04-27T07:34:45Z</time>
      </trkpt>
      <trkpt lat="43.94385" lon="0.33988">
        <ele>115.3</ele>
        <time>2018-04-27T07:34:57Z</time>
      </trkpt>
      <trkpt lat="43.94376" lon="0.33972">
        <ele>114.3</ele>
        <time>2018-04-27T07:35:09Z</time>
      </trkpt>
      <trkpt lat="43.94367" lon="0.33958">
        <ele>113.4</ele>
        <time>2018-04-27T07:35:20Z</time>
      </trkpt>
      <trkpt lat="43.94365" lon="0.33955">
        <ele>113.2</ele>
        <time>2018-04-27T07:35:23Z</time>
      </trkpt>
      <trkpt lat="43.94359" lon="0.33943">
        <ele>113.5</ele>
        <time>2018-04-27T07:35:35Z</time>
      </trkpt>
      <trkpt lat="43.94351" lon="0.33927">
        <ele>113.8</ele>
        <time>2018-04-27T07:35:47Z</time>
      </trkpt>
      <trkpt lat="43.94345" lon="0.3391">
        <ele>114.1</ele>
        <time>2018-04-27T07:36:02Z</time>
      </trkpt>
      <trkpt lat="43.94338" lon="0.33893">
        <ele>114.4</ele>
        <time>2018-04-27T07:36:14Z</time>
      </trkpt>
      <trkpt lat="43.94334" lon="0.33875">
        <ele>114.7</ele>
        <time>2018-04-27T07:36:27Z</time>
      </trkpt>
      <trkpt lat="43.94333" lon="0.33868">
        <ele>114.8</ele>
        <time>2018-04-27T07:36:32Z</time>
      </trkpt>
      <trkpt lat="43.94336" lon="0.33849">
        <ele>115.1</ele>
        <time>2018-04-27T07:36:44Z</time>
      </trkpt>
      <trkpt lat="43.94331" lon="0.33831">
        <ele>115.4</ele>
        <time>2018-04-27T07:36:57Z</time>
      </trkpt>
      <trkpt lat="43.94325" lon="0.33814">
        <ele>115.7</ele>
        <time>2018-04-27T07:37:09Z</time>
      </trkpt>
      <trkpt lat="43.9432" lon="0.33795">
        <ele>116</ele>
        <time>2018-04-27T07:37:22Z</time>
      </trkpt>
      <trkpt lat="43.94319" lon="0.33786">
        <ele>116.2</ele>
        <time>2018-04-27T07:37:29Z</time>
      </trkpt>
      <trkpt lat="43.94318" lon="0.33776">
        <ele>116.5</ele>
        <time>2018-04-27T07:37:37Z</time>
      </trkpt>
      <trkpt lat="43.94315" lon="0.33756">
        <ele>117.4</ele>
        <time>2018-04-27T07:38:08Z</time>
      </trkpt>
      <trkpt lat="43.9431" lon="0.33737">
        <ele>117.7</ele>
        <time>2018-04-27T07:38:19Z</time>
      </trkpt>
      <trkpt lat="43.94305" lon="0.33718">
        <ele>118.1</ele>
        <time>2018-04-27T07:38:31Z</time>
      </trkpt>
      <trkpt lat="43.94301" lon="0.33699">
        <ele>118.5</ele>
        <time>2018-04-27T07:38:43Z</time>
      </trkpt>
      <trkpt lat="43.94298" lon="0.33679">
        <ele>118.8</ele>
        <time>2018-04-27T07:38:54Z</time>
      </trkpt>
      <trkpt lat="43.94296" lon="0.3366">
        <ele>119.2</ele>
        <time>2018-04-27T07:39:05Z</time>
      </trkpt>
      <trkpt lat="43.94294" lon="0.33652">
        <ele>119.3</ele>
        <time>2018-04-27T07:39:10Z</time>
      </trkpt>
      <trkpt lat="43.94292" lon="0.33642">
        <ele>119.8</ele>
        <time>2018-04-27T07:39:17Z</time>
      </trkpt>
      <trkpt lat="43.9429" lon="0.33623">
        <ele>120.7</ele>
        <time>2018-04-27T07:39:31Z</time>
      </trkpt>
      <trkpt lat="43.94289" lon="0.33604">
        <ele>121.6</ele>
        <time>2018-04-27T07:39:45Z</time>
      </trkpt>
      <trkpt lat="43.94287" lon="0.33585">
        <ele>122.6</ele>
        <time>2018-04-27T07:40:01Z</time>
      </trkpt>
      <trkpt lat="43.94287" lon="0.33584">
        <ele>122.7</ele>
        <time>2018-04-27T07:40:02Z</time>
      </trkpt>
      <trkpt lat="43.94288" lon="0.33566">
        <ele>123.6</ele>
        <time>2018-04-27T07:40:15Z</time>
      </trkpt>
      <trkpt lat="43.94286" lon="0.33547">
        <ele>124.5</ele>
        <time>2018-04-27T07:40:29Z</time>
      </trkpt>
      <trkpt lat="43.94286" lon="0.33528">
        <ele>125.6</ele>
        <time>2018-04-27T07:40:45Z</time>
      </trkpt>
      <trkpt lat="43.94286" lon="0.33524">
        <ele>125.8</ele>
        <time>2018-04-27T07:40:49Z</time>
      </trkpt>
      <trkpt lat="43.94288" lon="0.33509">
        <ele>126.9</ele>
        <time>2018-04-27T07:41:03Z</time>
      </trkpt>
      <trkpt lat="43.94291" lon="0.3349">
        <ele>128</ele>
        <time>2018-04-27T07:41:17Z</time>
      </trkpt>
      <trkpt lat="43.94291" lon="0.33472">
        <ele>129.1</ele>
        <time>2018-04-27T07:41:31Z</time>
      </trkpt>
      <trkpt lat="43.94291" lon="0.3347">
        <ele>129.1</ele>
        <time>2018-04-27T07:41:32Z</time>
      </trkpt>
      <trkpt lat="43.94295" lon="0.33451">
        <ele>130.3</ele>
        <time>2018-04-27T07:41:47Z</time>
      </trkpt>
      <trkpt lat="43.943" lon="0.33434">
        <ele>131.3</ele>
        <time>2018-04-27T07:42:01Z</time>
      </trkpt>
      <trkpt lat="43.94301" lon="0.3342">
        <ele>132.2</ele>
        <time>2018-04-27T07:42:13Z</time>
      </trkpt>
      <trkpt lat="43.94301" lon="0.33415">
        <ele>132.6</ele>
        <time>2018-04-27T07:42:17Z</time>
      </trkpt>
      <trkpt lat="43.94302" lon="0.33395">
        <ele>133.8</ele>
        <time>2018-04-27T07:42:31Z</time>
      </trkpt>
      <trkpt lat="43.94305" lon="0.33376">
        <ele>135.2</ele>
        <time>2018-04-27T07:42:47Z</time>
      </trkpt>
      <trkpt lat="43.94305" lon="0.33373">
        <ele>135.4</ele>
        <time>2018-04-27T07:42:49Z</time>
      </trkpt>
      <trkpt lat="43.94305" lon="0.33356">
        <ele>136.2</ele>
        <time>2018-04-27T07:43:02Z</time>
      </trkpt>
      <trkpt lat="43.94307" lon="0.33337">
        <ele>137.3</ele>
        <time>2018-04-27T07:43:19Z</time>
      </trkpt>
      <trkpt lat="43.94309" lon="0.33317">
        <ele>138.3</ele>
        <time>2018-04-27T07:43:35Z</time>
      </trkpt>
      <trkpt lat="43.94308" lon="0.33314">
        <ele>138.5</ele>
        <time>2018-04-27T07:43:37Z</time>
      </trkpt>
      <trkpt lat="43.94303" lon="0.33299">
        <ele>139</ele>
        <time>2018-04-27T07:43:48Z</time>
      </trkpt>
      <trkpt lat="43.94299" lon="0.3328">
        <ele>141</ele>
        <time>2018-04-27T07:44:26Z</time>
      </trkpt>
      <trkpt lat="43.94287" lon="0.33269">
        <ele>141.5</ele>
        <time>2018-04-27T07:44:36Z</time>
      </trkpt>
      <trkpt lat="43.94279" lon="0.33261">
        <ele>141.9</ele>
        <time>2018-04-27T07:44:43Z</time>
      </trkpt>
      <trkpt lat="43.94276" lon="0.33258">
        <ele>142.2</ele>
        <time>2018-04-27T07:44:46Z</time>
      </trkpt>
      <trkpt lat="43.94263" lon="0.33247">
        <ele>143.6</ele>
        <time>2018-04-27T07:45:00Z</time>
      </trkpt>
      <trkpt lat="43.94255" lon="0.33231">
        <ele>144.7</ele>
        <time>2018-04-27T07:45:11Z</time>
      </trkpt>
      <trkpt lat="43.94253" lon="0.33229">
        <ele>144.9</ele>
        <time>2018-04-27T07:45:13Z</time>
      </trkpt>
      <trkpt lat="43.94246" lon="0.33215">
        <ele>145.8</ele>
        <time>2018-04-27T07:45:24Z</time>
      </trkpt>
      <trkpt lat="43.94235" lon="0.33203">
        <ele>146.6</ele>
        <time>2018-04-27T07:45:35Z</time>
      </trkpt>
      <trkpt lat="43.94224" lon="0.33185">
        <ele>147.8</ele>
        <time>2018-04-27T07:45:50Z</time>
      </trkpt>
      <trkpt lat="43.9422" lon="0.33178">
        <ele>148.4</ele>
        <time>2018-04-27T07:45:58Z</time>
      </trkpt>
      <trkpt lat="43.94215" lon="0.3317">
        <ele>149.2</ele>
        <time>2018-04-27T07:46:08Z</time>
      </trkpt>
      <trkpt lat="43.94209" lon="0.33151">
        <ele>150.7</ele>
        <time>2018-04-27T07:46:25Z</time>
      </trkpt>
      <trkpt lat="43.942" lon="0.33139">
        <ele>151.9</ele>
        <time>2018-04-27T07:46:39Z</time>
      </trkpt>
      <trkpt lat="43.94199" lon="0.33138">
        <ele>151.9</ele>
        <time>2018-04-27T07:46:40Z</time>
      </trkpt>
      <trkpt lat="43.94197" lon="0.33127">
        <ele>153.1</ele>
        <time>2018-04-27T07:46:54Z</time>
      </trkpt>
      <trkpt lat="43.94198" lon="0.33123">
        <ele>153.5</ele>
        <time>2018-04-27T07:46:59Z</time>
      </trkpt>
      <trkpt lat="43.94186" lon="0.33112">
        <ele>154.3</ele>
        <time>2018-04-27T07:47:10Z</time>
      </trkpt>
      <trkpt lat="43.94176" lon="0.33103">
        <ele>155.2</ele>
        <time>2018-04-27T07:47:21Z</time>
      </trkpt>
      <trkpt lat="43.94175" lon="0.33102">
        <ele>155.3</ele>
        <time>2018-04-27T07:47:22Z</time>
      </trkpt>
      <trkpt lat="43.94167" lon="0.33086">
        <ele>156.3</ele>
        <time>2018-04-27T07:47:35Z</time>
      </trkpt>
      <trkpt lat="43.94156" lon="0.33074">
        <ele>157.6</ele>
        <time>2018-04-27T07:47:51Z</time>
      </trkpt>
      <trkpt lat="43.94153" lon="0.33062">
        <ele>158.6</ele>
        <time>2018-04-27T07:48:03Z</time>
      </trkpt>
      <trkpt lat="43.94151" lon="0.33056">
        <ele>158.9</ele>
        <time>2018-04-27T07:48:10Z</time>
      </trkpt>
      <trkpt lat="43.94146" lon="0.33038">
        <ele>159.7</ele>
        <time>2018-04-27T07:48:25Z</time>
      </trkpt>
      <trkpt lat="43.94144" lon="0.33019">
        <ele>160.5</ele>
        <time>2018-04-27T07:48:40Z</time>
      </trkpt>
      <trkpt lat="43.94137" lon="0.33002">
        <ele>161.1</ele>
        <time>2018-04-27T07:48:53Z</time>
      </trkpt>
      <trkpt lat="43.94136" lon="0.32988">
        <ele>161.6</ele>
        <time>2018-04-27T07:49:03Z</time>
      </trkpt>
      <trkpt lat="43.94135" lon="0.32983">
        <ele>161.5</ele>
        <time>2018-04-27T07:49:07Z</time>
      </trkpt>
      <trkpt lat="43.94132" lon="0.32963">
        <ele>160.8</ele>
        <time>2018-04-27T07:49:22Z</time>
      </trkpt>
      <trkpt lat="43.94125" lon="0.32945">
        <ele>160.1</ele>
        <time>2018-04-27T07:49:37Z</time>
      </trkpt>
      <trkpt lat="43.9412" lon="0.32928">
        <ele>159.5</ele>
        <time>2018-04-27T07:49:51Z</time>
      </trkpt>
      <trkpt lat="43.94115" lon="0.3291">
        <ele>158.8</ele>
        <time>2018-04-27T07:50:06Z</time>
      </trkpt>
      <trkpt lat="43.94109" lon="0.32898">
        <ele>158.5</ele>
        <time>2018-04-27T07:50:15Z</time>
      </trkpt>
      <trkpt lat="43.94107" lon="0.32894">
        <ele>158.5</ele>
        <time>2018-04-27T07:50:18Z</time>
      </trkpt>
      <trkpt lat="43.94102" lon="0.32877">
        <ele>158.8</ele>
        <time>2018-04-27T07:50:35Z</time>
      </trkpt>
      <trkpt lat="43.94098" lon="0.32859">
        <ele>159.1</ele>
        <time>2018-04-27T07:50:48Z</time>
      </trkpt>
      <trkpt lat="43.94091" lon="0.32843">
        <ele>159.3</ele>
        <time>2018-04-27T07:50:59Z</time>
      </trkpt>
      <trkpt lat="43.94089" lon="0.32824">
        <ele>159.5</ele>
        <time>2018-04-27T07:51:12Z</time>
      </trkpt>
      <trkpt lat="43.94084" lon="0.32806">
        <ele>159.8</ele>
        <time>2018-04-27T07:51:25Z</time>
      </trkpt>
      <trkpt lat="43.94081" lon="0.32787">
        <ele>160.1</ele>
        <time>2018-04-27T07:51:39Z</time>
      </trkpt>
      <trkpt lat="43.9408" lon="0.32768">
        <ele>160.3</ele>
        <time>2018-04-27T07:51:51Z</time>
      </trkpt>
      <trkpt lat="43.94082" lon="0.32749">
        <ele>160.5</ele>
        <time>2018-04-27T07:52:04Z</time>
      </trkpt>
      <trkpt lat="43.94081" lon="0.32729">
        <ele>160.8</ele>
        <time>2018-04-27T07:52:17Z</time>
      </trkpt>
      <trkpt lat="43.94074" lon="0.32712">
        <ele>161.1</ele>
        <time>2018-04-27T07:52:35Z</time>
      </trkpt>
      <trkpt lat="43.94069" lon="0.32693">
        <ele>161.5</ele>
        <time>2018-04-27T07:52:55Z</time>
      </trkpt>
      <trkpt lat="43.9406" lon="0.32678">
        <ele>161.7</ele>
        <time>2018-04-27T07:53:06Z</time>
      </trkpt>
      <trkpt lat="43.94055" lon="0.32664">
        <ele>161.9</ele>
        <time>2018-04-27T07:53:17Z</time>
      </trkpt>
      <trkpt lat="43.94054" lon="0.32661">
        <ele>162.1</ele>
        <time>2018-04-27T07:53:19Z</time>
      </trkpt>
      <trkpt lat="43.94053" lon="0.32641">
        <ele>164.1</ele>
        <time>2018-04-27T07:53:38Z</time>
      </trkpt>
      <trkpt lat="43.94047" lon="0.32627">
        <ele>165.6</ele>
        <time>2018-04-27T07:53:53Z</time>
      </trkpt>
      <trkpt lat="43.94046" lon="0.32625">
        <ele>165.8</ele>
        <time>2018-04-27T07:53:55Z</time>
      </trkpt>
      <trkpt lat="43.94037" lon="0.3261">
        <ele>167.5</ele>
        <time>2018-04-27T07:54:11Z</time>
      </trkpt>
      <trkpt lat="43.94035" lon="0.32595">
        <ele>168.7</ele>
        <time>2018-04-27T07:54:23Z</time>
      </trkpt>
      <trkpt lat="43.94034" lon="0.3259">
        <ele>169</ele>
        <time>2018-04-27T07:54:27Z</time>
      </trkpt>
      <trkpt lat="43.94029" lon="0.32571">
        <ele>170.3</ele>
        <time>2018-04-27T07:54:45Z</time>
      </trkpt>
      <trkpt lat="43.94026" lon="0.32551">
        <ele>171.6</ele>
        <time>2018-04-27T07:55:03Z</time>
      </trkpt>
      <trkpt lat="43.94026" lon="0.32549">
        <ele>171.8</ele>
        <time>2018-04-27T07:55:05Z</time>
      </trkpt>
      <trkpt lat="43.94022" lon="0.32532">
        <ele>173.2</ele>
        <time>2018-04-27T07:55:21Z</time>
      </trkpt>
      <trkpt lat="43.94021" lon="0.32512">
        <ele>174.3</ele>
        <time>2018-04-27T07:55:34Z</time>
      </trkpt>
      <trkpt lat="43.94019" lon="0.32504">
        <ele>174.9</ele>
        <time>2018-04-27T07:55:41Z</time>
      </trkpt>
      <trkpt lat="43.94017" lon="0.32493">
        <ele>175.6</ele>
        <time>2018-04-27T07:55:51Z</time>
      </trkpt>
      <trkpt lat="43.94016" lon="0.32473">
        <ele>176.9</ele>
        <time>2018-04-27T07:56:09Z</time>
      </trkpt>
      <trkpt lat="43.94017" lon="0.32454">
        <ele>178.1</ele>
        <time>2018-04-27T07:56:27Z</time>
      </trkpt>
      <trkpt lat="43.94017" lon="0.32451">
        <ele>178.3</ele>
        <time>2018-04-27T07:56:29Z</time>
      </trkpt>
      <trkpt lat="43.94017" lon="0.32433">
        <ele>178.4</ele>
        <time>2018-04-27T07:56:41Z</time>
      </trkpt>
      <trkpt lat="43.94015" lon="0.32414">
        <ele>178.5</ele>
        <time>2018-04-27T07:56:55Z</time>
      </trkpt>
      <trkpt lat="43.94016" lon="0.32394">
        <ele>178.6</ele>
        <time>2018-04-27T07:57:09Z</time>
      </trkpt>
      <trkpt lat="43.94015" lon="0.32374">
        <ele>178.8</ele>
        <time>2018-04-27T07:57:23Z</time>
      </trkpt>
      <trkpt lat="43.94011" lon="0.32356">
        <ele>178.9</ele>
        <time>2018-04-27T07:57:34Z</time>
      </trkpt>
      <trkpt lat="43.94008" lon="0.32337">
        <ele>179</ele>
        <time>2018-04-27T07:57:47Z</time>
      </trkpt>
      <trkpt lat="43.94004" lon="0.32319">
        <ele>179.1</ele>
        <time>2018-04-27T07:58:01Z</time>
      </trkpt>
      <trkpt lat="43.94001" lon="0.323">
        <ele>179.2</ele>
        <time>2018-04-27T07:58:16Z</time>
      </trkpt>
      <trkpt lat="43.93996" lon="0.32281">
        <ele>179.4</ele>
        <time>2018-04-27T07:58:30Z</time>
      </trkpt>
      <trkpt lat="43.93994" lon="0.32262">
        <ele>179.5</ele>
        <time>2018-04-27T07:58:43Z</time>
      </trkpt>
      <trkpt lat="43.93989" lon="0.32244">
        <ele>179.6</ele>
        <time>2018-04-27T07:58:55Z</time>
      </trkpt>
      <trkpt lat="43.93984" lon="0.32227">
        <ele>179.7</ele>
        <time>2018-04-27T07:59:08Z</time>
      </trkpt>
      <trkpt lat="43.93979" lon="0.32208">
        <ele>179.9</ele>
        <time>2018-04-27T07:59:22Z</time>
      </trkpt>
      <trkpt lat="43.93974" lon="0.32189">
        <ele>180</ele>
        <time>2018-04-27T07:59:36Z</time>
      </trkpt>
      <trkpt lat="43.93971" lon="0.32171">
        <ele>180.1</ele>
        <time>2018-04-27T07:59:49Z</time>
      </trkpt>
      <trkpt lat="43.93966" lon="0.32153">
        <ele>180.2</ele>
        <time>2018-04-27T08:00:02Z</time>
      </trkpt>
      <trkpt lat="43.9396" lon="0.32135">
        <ele>180.4</ele>
        <time>2018-04-27T08:00:17Z</time>
      </trkpt>
      <trkpt lat="43.93953" lon="0.32118">
        <ele>180.5</ele>
        <time>2018-04-27T08:00:29Z</time>
      </trkpt>
      <trkpt lat="43.93948" lon="0.321">
        <ele>180.6</ele>
        <time>2018-04-27T08:00:42Z</time>
      </trkpt>
      <trkpt lat="43.93943" lon="0.32082">
        <ele>180.7</ele>
        <time>2018-04-27T08:00:55Z</time>
      </trkpt>
      <trkpt lat="43.93938" lon="0.32064">
        <ele>180.8</ele>
        <time>2018-04-27T08:01:08Z</time>
      </trkpt>
      <trkpt lat="43.93936" lon="0.32044">
        <ele>181</ele>
        <time>2018-04-27T08:01:24Z</time>
      </trkpt>
      <trkpt lat="43.93933" lon="0.32023">
        <ele>181.1</ele>
        <time>2018-04-27T08:01:37Z</time>
      </trkpt>
      <trkpt lat="43.93934" lon="0.32004">
        <ele>181.2</ele>
        <time>2018-04-27T08:01:50Z</time>
      </trkpt>
      <trkpt lat="43.93932" lon="0.31984">
        <ele>181.3</ele>
        <time>2018-04-27T08:02:02Z</time>
      </trkpt>
      <trkpt lat="43.93932" lon="0.31983">
        <ele>181.3</ele>
        <time>2018-04-27T08:02:03Z</time>
      </trkpt>
      <trkpt lat="43.9393" lon="0.31965">
        <ele>181.2</ele>
        <time>2018-04-27T08:02:16Z</time>
      </trkpt>
      <trkpt lat="43.93931" lon="0.31944">
        <ele>181.1</ele>
        <time>2018-04-27T08:02:31Z</time>
      </trkpt>
      <trkpt lat="43.93929" lon="0.31925">
        <ele>181</ele>
        <time>2018-04-27T08:02:45Z</time>
      </trkpt>
      <trkpt lat="43.9393" lon="0.31905">
        <ele>180.3</ele>
        <time>2018-04-27T08:03:55Z</time>
      </trkpt>
      <trkpt lat="43.93936" lon="0.31888">
        <ele>180.2</ele>
        <time>2018-04-27T08:04:06Z</time>
      </trkpt>
      <trkpt lat="43.93945" lon="0.3187">
        <ele>180.1</ele>
        <time>2018-04-27T08:04:17Z</time>
      </trkpt>
      <trkpt lat="43.93952" lon="0.31852">
        <ele>180</ele>
        <time>2018-04-27T08:04:28Z</time>
      </trkpt>
      <trkpt lat="43.93961" lon="0.31839">
        <ele>180</ele>
        <time>2018-04-27T08:04:36Z</time>
      </trkpt>
      <trkpt lat="43.9397" lon="0.31823">
        <ele>179.9</ele>
        <time>2018-04-27T08:04:46Z</time>
      </trkpt>
      <trkpt lat="43.93979" lon="0.3181">
        <ele>179.8</ele>
        <time>2018-04-27T08:04:54Z</time>
      </trkpt>
      <trkpt lat="43.93987" lon="0.31793">
        <ele>179.6</ele>
        <time>2018-04-27T08:05:11Z</time>
      </trkpt>
      <trkpt lat="43.93996" lon="0.31777">
        <ele>179.5</ele>
        <time>2018-04-27T08:05:25Z</time>
      </trkpt>
      <trkpt lat="43.94004" lon="0.31763">
        <ele>179.4</ele>
        <time>2018-04-27T08:05:37Z</time>
      </trkpt>
      <trkpt lat="43.94013" lon="0.31747">
        <ele>179.3</ele>
        <time>2018-04-27T08:05:52Z</time>
      </trkpt>
      <trkpt lat="43.94022" lon="0.31731">
        <ele>179.1</ele>
        <time>2018-04-27T08:06:06Z</time>
      </trkpt>
      <trkpt lat="43.94029" lon="0.31715">
        <ele>179</ele>
        <time>2018-04-27T08:06:20Z</time>
      </trkpt>
      <trkpt lat="43.94039" lon="0.317">
        <ele>178.9</ele>
        <time>2018-04-27T08:06:33Z</time>
      </trkpt>
      <trkpt lat="43.94046" lon="0.31684">
        <ele>178.8</ele>
        <time>2018-04-27T08:06:46Z</time>
      </trkpt>
      <trkpt lat="43.94053" lon="0.31668">
        <ele>178.7</ele>
        <time>2018-04-27T08:06:59Z</time>
      </trkpt>
      <trkpt lat="43.94056" lon="0.31648">
        <ele>178.5</ele>
        <time>2018-04-27T08:07:14Z</time>
      </trkpt>
      <trkpt lat="43.94061" lon="0.3163">
        <ele>178.4</ele>
        <time>2018-04-27T08:07:28Z</time>
      </trkpt>
      <trkpt lat="43.94064" lon="0.31611">
        <ele>178.3</ele>
        <time>2018-04-27T08:07:40Z</time>
      </trkpt>
      <trkpt lat="43.94069" lon="0.31593">
        <ele>178.2</ele>
        <time>2018-04-27T08:07:54Z</time>
      </trkpt>
      <trkpt lat="43.94071" lon="0.31581">
        <ele>178.1</ele>
        <time>2018-04-27T08:08:01Z</time>
      </trkpt>
      <trkpt lat="43.94073" lon="0.31571">
        <ele>177.7</ele>
        <time>2018-04-27T08:08:07Z</time>
      </trkpt>
      <trkpt lat="43.94076" lon="0.31552">
        <ele>176.8</ele>
        <time>2018-04-27T08:08:22Z</time>
      </trkpt>
      <trkpt lat="43.9408" lon="0.31533">
        <ele>175.9</ele>
        <time>2018-04-27T08:08:36Z</time>
      </trkpt>
      <trkpt lat="43.94091" lon="0.3152">
        <ele>175.1</ele>
        <time>2018-04-27T08:08:49Z</time>
      </trkpt>
      <trkpt lat="43.941" lon="0.31509">
        <ele>174.5</ele>
        <time>2018-04-27T08:09:00Z</time>
      </trkpt>
      <trkpt lat="43.94101" lon="0.31507">
        <ele>174.4</ele>
        <time>2018-04-27T08:09:02Z</time>
      </trkpt>
      <trkpt lat="43.94112" lon="0.31494">
        <ele>173.8</ele>
        <time>2018-04-27T08:09:14Z</time>
      </trkpt>
      <trkpt lat="43.94119" lon="0.31476">
        <ele>173.1</ele>
        <time>2018-04-27T08:09:28Z</time>
      </trkpt>
      <trkpt lat="43.94127" lon="0.3146">
        <ele>172.5</ele>
        <time>2018-04-27T08:09:40Z</time>
      </trkpt>
      <trkpt lat="43.94134" lon="0.31442">
        <ele>171.8</ele>
        <time>2018-04-27T08:09:56Z</time>
      </trkpt>
      <trkpt lat="43.94144" lon="0.31428">
        <ele>171.3</ele>
        <time>2018-04-27T08:10:05Z</time>
      </trkpt>
      <trkpt lat="43.94144" lon="0.31426">
        <ele>171.3</ele>
        <time>2018-04-27T08:10:06Z</time>
      </trkpt>
      <trkpt lat="43.94147" lon="0.31408">
        <ele>170.5</ele>
        <time>2018-04-27T08:10:19Z</time>
      </trkpt>
      <trkpt lat="43.94157" lon="0.31394">
        <ele>169.8</ele>
        <time>2018-04-27T08:10:33Z</time>
      </trkpt>
      <trkpt lat="43.94166" lon="0.31373">
        <ele>168.9</ele>
        <time>2018-04-27T08:10:48Z</time>
      </trkpt>
      <trkpt lat="43.94175" lon="0.3137">
        <ele>167.9</ele>
        <time>2018-04-27T08:11:06Z</time>
      </trkpt>
      <trkpt lat="43.9418" lon="0.31368">
        <ele>166.9</ele>
        <time>2018-04-27T08:11:16Z</time>
      </trkpt>
      <trkpt lat="43.94193" lon="0.31373">
        <ele>164.8</ele>
        <time>2018-04-27T08:11:38Z</time>
      </trkpt>
      <trkpt lat="43.94198" lon="0.31373">
        <ele>164.4</ele>
        <time>2018-04-27T08:11:42Z</time>
      </trkpt>
      <trkpt lat="43.94208" lon="0.31373">
        <ele>163.4</ele>
        <time>2018-04-27T08:11:52Z</time>
      </trkpt>
      <trkpt lat="43.94221" lon="0.31365">
        <ele>162.1</ele>
        <time>2018-04-27T08:12:06Z</time>
      </trkpt>
      <trkpt lat="43.94229" lon="0.31354">
        <ele>161</ele>
        <time>2018-04-27T08:12:18Z</time>
      </trkpt>
      <trkpt lat="43.94231" lon="0.31352">
        <ele>160.8</ele>
        <time>2018-04-27T08:12:21Z</time>
      </trkpt>
      <trkpt lat="43.94243" lon="0.31341">
        <ele>159.7</ele>
        <time>2018-04-27T08:12:34Z</time>
      </trkpt>
      <trkpt lat="43.94254" lon="0.31327">
        <ele>158.4</ele>
        <time>2018-04-27T08:12:49Z</time>
      </trkpt>
      <trkpt lat="43.94266" lon="0.31317">
        <ele>157.6</ele>
        <time>2018-04-27T08:12:59Z</time>
      </trkpt>
      <trkpt lat="43.94267" lon="0.31316">
        <ele>157.5</ele>
        <time>2018-04-27T08:13:00Z</time>
      </trkpt>
      <trkpt lat="43.94279" lon="0.31309">
        <ele>156.2</ele>
        <time>2018-04-27T08:13:12Z</time>
      </trkpt>
      <trkpt lat="43.94292" lon="0.313">
        <ele>154.8</ele>
        <time>2018-04-27T08:13:26Z</time>
      </trkpt>
      <trkpt lat="43.94302" lon="0.31296">
        <ele>153.7</ele>
        <time>2018-04-27T08:13:36Z</time>
      </trkpt>
      <trkpt lat="43.94304" lon="0.31294">
        <ele>153.5</ele>
        <time>2018-04-27T08:13:39Z</time>
      </trkpt>
      <trkpt lat="43.94318" lon="0.31286">
        <ele>152.2</ele>
        <time>2018-04-27T08:13:53Z</time>
      </trkpt>
      <trkpt lat="43.94332" lon="0.31279">
        <ele>151</ele>
        <time>2018-04-27T08:14:06Z</time>
      </trkpt>
      <trkpt lat="43.94337" lon="0.31274">
        <ele>150.5</ele>
        <time>2018-04-27T08:14:12Z</time>
      </trkpt>
      <trkpt lat="43.94344" lon="0.31267">
        <ele>150</ele>
        <time>2018-04-27T08:14:20Z</time>
      </trkpt>
      <trkpt lat="43.94355" lon="0.31255">
        <ele>149.3</ele>
        <time>2018-04-27T08:14:32Z</time>
      </trkpt>
      <trkpt lat="43.94366" lon="0.31244">
        <ele>148.7</ele>
        <time>2018-04-27T08:14:44Z</time>
      </trkpt>
      <trkpt lat="43.94378" lon="0.31234">
        <ele>147.9</ele>
        <time>2018-04-27T08:14:57Z</time>
      </trkpt>
      <trkpt lat="43.9439" lon="0.31226">
        <ele>147.2</ele>
        <time>2018-04-27T08:15:09Z</time>
      </trkpt>
      <trkpt lat="43.94391" lon="0.31225">
        <ele>147.2</ele>
        <time>2018-04-27T08:15:10Z</time>
      </trkpt>
      <trkpt lat="43.94401" lon="0.31214">
        <ele>147.1</ele>
        <time>2018-04-27T08:15:20Z</time>
      </trkpt>
      <trkpt lat="43.94413" lon="0.31204">
        <ele>147</ele>
        <time>2018-04-27T08:15:48Z</time>
      </trkpt>
      <trkpt lat="43.94426" lon="0.31199">
        <ele>146.9</ele>
        <time>2018-04-27T08:15:58Z</time>
      </trkpt>
      <trkpt lat="43.94441" lon="0.31195">
        <ele>146.8</ele>
        <time>2018-04-27T08:16:12Z</time>
      </trkpt>
      <trkpt lat="43.94451" lon="0.31181">
        <ele>146.8</ele>
        <time>2018-04-27T08:16:20Z</time>
      </trkpt>
      <trkpt lat="43.9446" lon="0.31166">
        <ele>146.7</ele>
        <time>2018-04-27T08:16:30Z</time>
      </trkpt>
      <trkpt lat="43.94473" lon="0.31159">
        <ele>146.6</ele>
        <time>2018-04-27T08:16:53Z</time>
      </trkpt>
      <trkpt lat="43.94477" lon="0.31162">
        <ele>146.5</ele>
        <time>2018-04-27T08:17:00Z</time>
      </trkpt>
      <trkpt lat="43.94474" lon="0.31161">
        <ele>146.4</ele>
        <time>2018-04-27T08:17:24Z</time>
      </trkpt>
      <trkpt lat="43.94477" lon="0.31156">
        <ele>146.4</ele>
        <time>2018-04-27T08:17:28Z</time>
      </trkpt>
      <trkpt lat="43.94465" lon="0.31149">
        <ele>146.3</ele>
        <time>2018-04-27T08:17:39Z</time>
      </trkpt>
      <trkpt lat="43.9446" lon="0.31146">
        <ele>146.2</ele>
        <time>2018-04-27T08:17:58Z</time>
      </trkpt>
      <trkpt lat="43.94459" lon="0.3115">
        <ele>146</ele>
        <time>2018-04-27T08:18:30Z</time>
      </trkpt>
      <trkpt lat="43.94451" lon="0.3113">
        <ele>145.8</ele>
        <time>2018-04-27T08:19:15Z</time>
      </trkpt>
      <trkpt lat="43.9445" lon="0.31126">
        <ele>145.7</ele>
        <time>2018-04-27T08:19:17Z</time>
      </trkpt>
      <trkpt lat="43.94454" lon="0.31147">
        <ele>145.7</ele>
        <time>2018-04-27T08:19:26Z</time>
      </trkpt>
      <trkpt lat="43.94455" lon="0.31151">
        <ele>145.7</ele>
        <time>2018-04-27T08:19:28Z</time>
      </trkpt>
      <trkpt lat="43.94459" lon="0.31138">
        <ele>145.6</ele>
        <time>2018-04-27T08:19:43Z</time>
      </trkpt>
      <trkpt lat="43.9446" lon="0.31149">
        <ele>145</ele>
        <time>2018-04-27T08:21:30Z</time>
      </trkpt>
      <trkpt lat="43.9446" lon="0.31143">
        <ele>144.7</ele>
        <time>2018-04-27T08:22:23Z</time>
      </trkpt>
      <trkpt lat="43.94458" lon="0.31143">
        <ele>144.2</ele>
        <time>2018-04-27T08:23:46Z</time>
      </trkpt>
      <trkpt lat="43.94456" lon="0.31143">
        <ele>145</ele>
        <time>2018-04-27T08:25:17Z</time>
      </trkpt>
      <trkpt lat="43.94456" lon="0.31141">
        <ele>145</ele>
        <time>2018-04-27T08:25:22Z</time>
      </trkpt>
      <trkpt lat="43.94457" lon="0.31139">
        <ele>146</ele>
        <time>2018-04-27T08:27:11Z</time>
      </trkpt>
      <trkpt lat="43.94448" lon="0.31124">
        <ele>146.8</ele>
        <time>2018-04-27T08:28:44Z</time>
      </trkpt>
      <trkpt lat="43.94444" lon="0.31116">
        <ele>146.9</ele>
        <time>2018-04-27T08:28:54Z</time>
      </trkpt>
      <trkpt lat="43.94439" lon="0.31118">
        <ele>147</ele>
        <time>2018-04-27T08:29:02Z</time>
      </trkpt>
      <trkpt lat="43.94433" lon="0.311">
        <ele>147.1</ele>
        <time>2018-04-27T08:29:15Z</time>
      </trkpt>
      <trkpt lat="43.94426" lon="0.31082">
        <ele>147.2</ele>
        <time>2018-04-27T08:29:27Z</time>
      </trkpt>
      <trkpt lat="43.94419" lon="0.31069">
        <ele>147.3</ele>
        <time>2018-04-27T08:29:38Z</time>
      </trkpt>
      <trkpt lat="43.94413" lon="0.31069">
        <ele>147.4</ele>
        <time>2018-04-27T08:29:51Z</time>
      </trkpt>
      <trkpt lat="43.94408" lon="0.3105">
        <ele>147.6</ele>
        <time>2018-04-27T08:30:05Z</time>
      </trkpt>
      <trkpt lat="43.94408" lon="0.3105">
        <ele>147.6</ele>
        <time>2018-04-27T08:30:06Z</time>
      </trkpt>
      <trkpt lat="43.94398" lon="0.31057">
        <ele>147.4</ele>
        <time>2018-04-27T08:30:46Z</time>
      </trkpt>
      <trkpt lat="43.94394" lon="0.31075">
        <ele>147.2</ele>
        <time>2018-04-27T08:31:24Z</time>
      </trkpt>
      <trkpt lat="43.94403" lon="0.3109">
        <ele>147.2</ele>
        <time>2018-04-27T08:31:37Z</time>
      </trkpt>
      <trkpt lat="43.94416" lon="0.31096">
        <ele>147.1</ele>
        <time>2018-04-27T08:31:50Z</time>
      </trkpt>
      <trkpt lat="43.94408" lon="0.31111">
        <ele>147.1</ele>
        <time>2018-04-27T08:32:00Z</time>
      </trkpt>
      <trkpt lat="43.94397" lon="0.31123">
        <ele>147</ele>
        <time>2018-04-27T08:32:10Z</time>
      </trkpt>
      <trkpt lat="43.94392" lon="0.3113">
        <ele>147</ele>
        <time>2018-04-27T08:32:18Z</time>
      </trkpt>
      <trkpt lat="43.94396" lon="0.31134">
        <ele>146.9</ele>
        <time>2018-04-27T08:32:32Z</time>
      </trkpt>
      <trkpt lat="43.94385" lon="0.31145">
        <ele>146.9</ele>
        <time>2018-04-27T08:32:44Z</time>
      </trkpt>
      <trkpt lat="43.94371" lon="0.31139">
        <ele>146.8</ele>
        <time>2018-04-27T08:32:57Z</time>
      </trkpt>
      <trkpt lat="43.94363" lon="0.31128">
        <ele>146.8</ele>
        <time>2018-04-27T08:33:16Z</time>
      </trkpt>
      <trkpt lat="43.94369" lon="0.3111">
        <ele>146.7</ele>
        <time>2018-04-27T08:33:40Z</time>
      </trkpt>
      <trkpt lat="43.94379" lon="0.31098">
        <ele>146.5</ele>
        <time>2018-04-27T08:34:13Z</time>
      </trkpt>
      <trkpt lat="43.94388" lon="0.31082">
        <ele>146.5</ele>
        <time>2018-04-27T08:34:29Z</time>
      </trkpt>
      <trkpt lat="43.94394" lon="0.31081">
        <ele>146.4</ele>
        <time>2018-04-27T08:34:41Z</time>
      </trkpt>
      <trkpt lat="43.94406" lon="0.31092">
        <ele>146.3</ele>
        <time>2018-04-27T08:34:54Z</time>
      </trkpt>
      <trkpt lat="43.94413" lon="0.31096">
        <ele>146.3</ele>
        <time>2018-04-27T08:35:01Z</time>
      </trkpt>
      <trkpt lat="43.94402" lon="0.31109">
        <ele>146.2</ele>
        <time>2018-04-27T08:35:19Z</time>
      </trkpt>
      <trkpt lat="43.94393" lon="0.31122">
        <ele>146.2</ele>
        <time>2018-04-27T08:35:29Z</time>
      </trkpt>
      <trkpt lat="43.94417" lon="0.31123">
        <ele>146</ele>
        <time>2018-04-27T08:36:12Z</time>
      </trkpt>
      <trkpt lat="43.94407" lon="0.31114">
        <ele>145.4</ele>
        <time>2018-04-27T08:38:34Z</time>
      </trkpt>
      <trkpt lat="43.94388" lon="0.31088">
        <ele>145.4</ele>
        <time>2018-04-27T08:38:40Z</time>
      </trkpt>
      <trkpt lat="43.94375" lon="0.31092">
        <ele>145.4</ele>
        <time>2018-04-27T08:38:43Z</time>
      </trkpt>
      <trkpt lat="43.94388" lon="0.31085">
        <ele>145.3</ele>
        <time>2018-04-27T08:39:03Z</time>
      </trkpt>
      <trkpt lat="43.94395" lon="0.31082">
        <ele>145.3</ele>
        <time>2018-04-27T08:39:12Z</time>
      </trkpt>
      <trkpt lat="43.94396" lon="0.31074">
        <ele>145</ele>
        <time>2018-04-27T08:40:04Z</time>
      </trkpt>
      <trkpt lat="43.94401" lon="0.31073">
        <ele>145</ele>
        <time>2018-04-27T08:40:09Z</time>
      </trkpt>
      <trkpt lat="43.94415" lon="0.31052">
        <ele>145</ele>
        <time>2018-04-27T08:40:12Z</time>
      </trkpt>
      <trkpt lat="43.94414" lon="0.31032">
        <ele>144.9</ele>
        <time>2018-04-27T08:40:27Z</time>
      </trkpt>
      <trkpt lat="43.94415" lon="0.31013">
        <ele>144.9</ele>
        <time>2018-04-27T08:40:38Z</time>
      </trkpt>
      <trkpt lat="43.94412" lon="0.3101">
        <ele>144.8</ele>
        <time>2018-04-27T08:40:56Z</time>
      </trkpt>
      <trkpt lat="43.94417" lon="0.31012">
        <ele>144.5</ele>
        <time>2018-04-27T08:42:03Z</time>
      </trkpt>
      <trkpt lat="43.94415" lon="0.30997">
        <ele>144.4</ele>
        <time>2018-04-27T08:42:39Z</time>
      </trkpt>
      <trkpt lat="43.94415" lon="0.30993">
        <ele>143.6</ele>
        <time>2018-04-27T08:42:49Z</time>
      </trkpt>
      <trkpt lat="43.94419" lon="0.30976">
        <ele>142.3</ele>
        <time>2018-04-27T08:43:05Z</time>
      </trkpt>
      <trkpt lat="43.94415" lon="0.30964">
        <ele>141</ele>
        <time>2018-04-27T08:43:21Z</time>
      </trkpt>
      <trkpt lat="43.94415" lon="0.30963">
        <ele>141</ele>
        <time>2018-04-27T08:43:22Z</time>
      </trkpt>
      <trkpt lat="43.94408" lon="0.30946">
        <ele>138.2</ele>
        <time>2018-04-27T08:43:56Z</time>
      </trkpt>
      <trkpt lat="43.94401" lon="0.30928">
        <ele>137.3</ele>
        <time>2018-04-27T08:44:07Z</time>
      </trkpt>
      <trkpt lat="43.944" lon="0.30927">
        <ele>137.3</ele>
        <time>2018-04-27T08:44:08Z</time>
      </trkpt>
      <trkpt lat="43.94389" lon="0.30919">
        <ele>135.5</ele>
        <time>2018-04-27T08:44:18Z</time>
      </trkpt>
      <trkpt lat="43.94377" lon="0.30912">
        <ele>133.5</ele>
        <time>2018-04-27T08:44:30Z</time>
      </trkpt>
      <trkpt lat="43.94374" lon="0.30906">
        <ele>133.2</ele>
        <time>2018-04-27T08:44:36Z</time>
      </trkpt>
      <trkpt lat="43.94369" lon="0.30896">
        <ele>134.4</ele>
        <time>2018-04-27T08:44:48Z</time>
      </trkpt>
      <trkpt lat="43.94366" lon="0.30887">
        <ele>135</ele>
        <time>2018-04-27T08:44:54Z</time>
      </trkpt>
      <trkpt lat="43.94364" lon="0.30877">
        <ele>135.5</ele>
        <time>2018-04-27T08:45:00Z</time>
      </trkpt>
      <trkpt lat="43.94351" lon="0.3087">
        <ele>136.5</ele>
        <time>2018-04-27T08:45:11Z</time>
      </trkpt>
      <trkpt lat="43.94339" lon="0.30859">
        <ele>137.6</ele>
        <time>2018-04-27T08:45:24Z</time>
      </trkpt>
      <trkpt lat="43.94332" lon="0.30855">
        <ele>138.1</ele>
        <time>2018-04-27T08:45:30Z</time>
      </trkpt>
      <trkpt lat="43.94326" lon="0.30852">
        <ele>138.6</ele>
        <time>2018-04-27T08:45:35Z</time>
      </trkpt>
      <trkpt lat="43.94313" lon="0.30846">
        <ele>139.6</ele>
        <time>2018-04-27T08:45:45Z</time>
      </trkpt>
      <trkpt lat="43.943" lon="0.30837">
        <ele>141.1</ele>
        <time>2018-04-27T08:45:59Z</time>
      </trkpt>
      <trkpt lat="43.94295" lon="0.30828">
        <ele>141.8</ele>
        <time>2018-04-27T08:46:06Z</time>
      </trkpt>
      <trkpt lat="43.94291" lon="0.30821">
        <ele>141.9</ele>
        <time>2018-04-27T08:46:11Z</time>
      </trkpt>
      <trkpt lat="43.9428" lon="0.30806">
        <ele>142.1</ele>
        <time>2018-04-27T08:46:23Z</time>
      </trkpt>
      <trkpt lat="43.94267" lon="0.30797">
        <ele>142.2</ele>
        <time>2018-04-27T08:46:33Z</time>
      </trkpt>
      <trkpt lat="43.94255" lon="0.30785">
        <ele>142.4</ele>
        <time>2018-04-27T08:46:44Z</time>
      </trkpt>
      <trkpt lat="43.94248" lon="0.30768">
        <ele>142.6</ele>
        <time>2018-04-27T08:46:56Z</time>
      </trkpt>
      <trkpt lat="43.94241" lon="0.30751">
        <ele>143</ele>
        <time>2018-04-27T08:47:18Z</time>
      </trkpt>
      <trkpt lat="43.94229" lon="0.30745">
        <ele>143.2</ele>
        <time>2018-04-27T08:47:29Z</time>
      </trkpt>
      <trkpt lat="43.94215" lon="0.30743">
        <ele>143.5</ele>
        <time>2018-04-27T08:47:42Z</time>
      </trkpt>
      <trkpt lat="43.94201" lon="0.30744">
        <ele>143.7</ele>
        <time>2018-04-27T08:47:58Z</time>
      </trkpt>
      <trkpt lat="43.94186" lon="0.30748">
        <ele>144</ele>
        <time>2018-04-27T08:48:12Z</time>
      </trkpt>
      <trkpt lat="43.94173" lon="0.30748">
        <ele>144.1</ele>
        <time>2018-04-27T08:48:20Z</time>
      </trkpt>
      <trkpt lat="43.94159" lon="0.30751">
        <ele>144.4</ele>
        <time>2018-04-27T08:48:33Z</time>
      </trkpt>
      <trkpt lat="43.94146" lon="0.30752">
        <ele>144.6</ele>
        <time>2018-04-27T08:48:45Z</time>
      </trkpt>
      <trkpt lat="43.94132" lon="0.30748">
        <ele>144.8</ele>
        <time>2018-04-27T08:48:56Z</time>
      </trkpt>
      <trkpt lat="43.94123" lon="0.30742">
        <ele>144.9</ele>
        <time>2018-04-27T08:49:06Z</time>
      </trkpt>
      <trkpt lat="43.9412" lon="0.3074">
        <ele>144.8</ele>
        <time>2018-04-27T08:49:09Z</time>
      </trkpt>
      <trkpt lat="43.94106" lon="0.30731">
        <ele>144.4</ele>
        <time>2018-04-27T08:49:22Z</time>
      </trkpt>
      <trkpt lat="43.94093" lon="0.30726">
        <ele>144</ele>
        <time>2018-04-27T08:49:35Z</time>
      </trkpt>
      <trkpt lat="43.94084" lon="0.30711">
        <ele>143.5</ele>
        <time>2018-04-27T08:49:50Z</time>
      </trkpt>
      <trkpt lat="43.9407" lon="0.30706">
        <ele>143.1</ele>
        <time>2018-04-27T08:50:01Z</time>
      </trkpt>
      <trkpt lat="43.94065" lon="0.30699">
        <ele>142.8</ele>
        <time>2018-04-27T08:50:10Z</time>
      </trkpt>
      <trkpt lat="43.94063" lon="0.30693">
        <ele>142.4</ele>
        <time>2018-04-27T08:50:23Z</time>
      </trkpt>
      <trkpt lat="43.94056" lon="0.30677">
        <ele>142</ele>
        <time>2018-04-27T08:50:35Z</time>
      </trkpt>
      <trkpt lat="43.94047" lon="0.30665">
        <ele>141.6</ele>
        <time>2018-04-27T08:50:47Z</time>
      </trkpt>
      <trkpt lat="43.94045" lon="0.30663">
        <ele>141.3</ele>
        <time>2018-04-27T08:50:49Z</time>
      </trkpt>
      <trkpt lat="43.94034" lon="0.30652">
        <ele>139.3</ele>
        <time>2018-04-27T08:51:04Z</time>
      </trkpt>
      <trkpt lat="43.94026" lon="0.30648">
        <ele>138.3</ele>
        <time>2018-04-27T08:51:12Z</time>
      </trkpt>
      <trkpt lat="43.94021" lon="0.30645">
        <ele>137.5</ele>
        <time>2018-04-27T08:51:17Z</time>
      </trkpt>
      <trkpt lat="43.9402" lon="0.30644">
        <ele>137.4</ele>
        <time>2018-04-27T08:51:18Z</time>
      </trkpt>
      <trkpt lat="43.94006" lon="0.30644">
        <ele>136.5</ele>
        <time>2018-04-27T08:51:27Z</time>
      </trkpt>
      <trkpt lat="43.94002" lon="0.30641">
        <ele>136</ele>
        <time>2018-04-27T08:51:32Z</time>
      </trkpt>
      <trkpt lat="43.93993" lon="0.30635">
        <ele>135</ele>
        <time>2018-04-27T08:51:41Z</time>
      </trkpt>
      <trkpt lat="43.93979" lon="0.30632">
        <ele>133.5</ele>
        <time>2018-04-27T08:51:56Z</time>
      </trkpt>
      <trkpt lat="43.93965" lon="0.30637">
        <ele>132.3</ele>
        <time>2018-04-27T08:52:07Z</time>
      </trkpt>
      <trkpt lat="43.93964" lon="0.30637">
        <ele>132.2</ele>
        <time>2018-04-27T08:52:08Z</time>
      </trkpt>
      <trkpt lat="43.93952" lon="0.30642">
        <ele>131.3</ele>
        <time>2018-04-27T08:52:18Z</time>
      </trkpt>
      <trkpt lat="43.93938" lon="0.30648">
        <ele>130.3</ele>
        <time>2018-04-27T08:52:30Z</time>
      </trkpt>
      <trkpt lat="43.93924" lon="0.3065">
        <ele>129.1</ele>
        <time>2018-04-27T08:52:45Z</time>
      </trkpt>
      <trkpt lat="43.93919" lon="0.30648">
        <ele>128.6</ele>
        <time>2018-04-27T08:52:50Z</time>
      </trkpt>
      <trkpt lat="43.93911" lon="0.30644">
        <ele>127.6</ele>
        <time>2018-04-27T08:53:00Z</time>
      </trkpt>
      <trkpt lat="43.939" lon="0.30631">
        <ele>126.4</ele>
        <time>2018-04-27T08:53:12Z</time>
      </trkpt>
      <trkpt lat="43.93893" lon="0.30625">
        <ele>125.6</ele>
        <time>2018-04-27T08:53:20Z</time>
      </trkpt>
      <trkpt lat="43.93888" lon="0.30622">
        <ele>125.2</ele>
        <time>2018-04-27T08:53:25Z</time>
      </trkpt>
      <trkpt lat="43.93876" lon="0.30612">
        <ele>124.3</ele>
        <time>2018-04-27T08:53:38Z</time>
      </trkpt>
      <trkpt lat="43.93864" lon="0.30601">
        <ele>123.1</ele>
        <time>2018-04-27T08:53:55Z</time>
      </trkpt>
      <trkpt lat="43.93854" lon="0.30596">
        <ele>122.5</ele>
        <time>2018-04-27T08:54:02Z</time>
      </trkpt>
      <trkpt lat="43.9385" lon="0.30594">
        <ele>122.1</ele>
        <time>2018-04-27T08:54:05Z</time>
      </trkpt>
      <trkpt lat="43.93839" lon="0.3058">
        <ele>120.1</ele>
        <time>2018-04-27T08:54:19Z</time>
      </trkpt>
      <trkpt lat="43.93829" lon="0.30575">
        <ele>119.1</ele>
        <time>2018-04-27T08:54:26Z</time>
      </trkpt>
      <trkpt lat="43.93826" lon="0.30573">
        <ele>119</ele>
        <time>2018-04-27T08:54:28Z</time>
      </trkpt>
      <trkpt lat="43.93813" lon="0.30567">
        <ele>118.2</ele>
        <time>2018-04-27T08:54:38Z</time>
      </trkpt>
      <trkpt lat="43.93805" lon="0.30549">
        <ele>116.5</ele>
        <time>2018-04-27T08:55:01Z</time>
      </trkpt>
      <trkpt lat="43.93799" lon="0.30542">
        <ele>116</ele>
        <time>2018-04-27T08:55:08Z</time>
      </trkpt>
      <trkpt lat="43.93794" lon="0.30537">
        <ele>115.5</ele>
        <time>2018-04-27T08:55:13Z</time>
      </trkpt>
      <trkpt lat="43.93783" lon="0.30523">
        <ele>114.4</ele>
        <time>2018-04-27T08:55:24Z</time>
      </trkpt>
      <trkpt lat="43.93771" lon="0.30513">
        <ele>113</ele>
        <time>2018-04-27T08:55:39Z</time>
      </trkpt>
      <trkpt lat="43.93762" lon="0.30501">
        <ele>111.9</ele>
        <time>2018-04-27T08:55:50Z</time>
      </trkpt>
      <trkpt lat="43.93761" lon="0.30499">
        <ele>111.6</ele>
        <time>2018-04-27T08:55:52Z</time>
      </trkpt>
      <trkpt lat="43.93753" lon="0.30481">
        <ele>110.2</ele>
        <time>2018-04-27T08:56:03Z</time>
      </trkpt>
      <trkpt lat="43.93749" lon="0.30469">
        <ele>108.9</ele>
        <time>2018-04-27T08:56:14Z</time>
      </trkpt>
      <trkpt lat="43.93747" lon="0.30465">
        <ele>108.1</ele>
        <time>2018-04-27T08:56:18Z</time>
      </trkpt>
      <trkpt lat="43.93735" lon="0.30457">
        <ele>105.5</ele>
        <time>2018-04-27T08:56:32Z</time>
      </trkpt>
      <trkpt lat="43.93734" lon="0.30456">
        <ele>105.4</ele>
        <time>2018-04-27T08:56:33Z</time>
      </trkpt>
      <trkpt lat="43.9372" lon="0.30447">
        <ele>102.8</ele>
        <time>2018-04-27T08:56:48Z</time>
      </trkpt>
      <trkpt lat="43.93718" lon="0.30447">
        <ele>102.5</ele>
        <time>2018-04-27T08:56:50Z</time>
      </trkpt>
      <trkpt lat="43.93706" lon="0.30449">
        <ele>102.2</ele>
        <time>2018-04-27T08:57:01Z</time>
      </trkpt>
      <trkpt lat="43.93696" lon="0.30449">
        <ele>102</ele>
        <time>2018-04-27T08:57:08Z</time>
      </trkpt>
      <trkpt lat="43.93692" lon="0.30449">
        <ele>101.3</ele>
        <time>2018-04-27T08:57:11Z</time>
      </trkpt>
      <trkpt lat="43.93689" lon="0.3045">
        <ele>100.6</ele>
        <time>2018-04-27T08:57:14Z</time>
      </trkpt>
      <trkpt lat="43.93677" lon="0.30454">
        <ele>98.9</ele>
        <time>2018-04-27T08:57:25Z</time>
      </trkpt>
      <trkpt lat="43.93668" lon="0.30454">
        <ele>97.9</ele>
        <time>2018-04-27T08:57:32Z</time>
      </trkpt>
      <trkpt lat="43.93663" lon="0.30455">
        <ele>97.6</ele>
        <time>2018-04-27T08:57:35Z</time>
      </trkpt>
      <trkpt lat="43.9365" lon="0.30453">
        <ele>96.2</ele>
        <time>2018-04-27T08:57:48Z</time>
      </trkpt>
      <trkpt lat="43.93638" lon="0.30456">
        <ele>94.9</ele>
        <time>2018-04-27T08:58:01Z</time>
      </trkpt>
      <trkpt lat="43.93634" lon="0.30456">
        <ele>94.5</ele>
        <time>2018-04-27T08:58:05Z</time>
      </trkpt>
      <trkpt lat="43.9362" lon="0.30458">
        <ele>93.6</ele>
        <time>2018-04-27T08:58:15Z</time>
      </trkpt>
      <trkpt lat="43.93607" lon="0.30464">
        <ele>92.4</ele>
        <time>2018-04-27T08:58:27Z</time>
      </trkpt>
      <trkpt lat="43.93598" lon="0.30475">
        <ele>91.6</ele>
        <time>2018-04-27T08:58:36Z</time>
      </trkpt>
      <trkpt lat="43.93597" lon="0.30477">
        <ele>91.4</ele>
        <time>2018-04-27T08:58:38Z</time>
      </trkpt>
      <trkpt lat="43.93588" lon="0.30493">
        <ele>90</ele>
        <time>2018-04-27T08:58:54Z</time>
      </trkpt>
      <trkpt lat="43.93575" lon="0.305">
        <ele>89</ele>
        <time>2018-04-27T08:59:05Z</time>
      </trkpt>
      <trkpt lat="43.93563" lon="0.3051">
        <ele>88.1</ele>
        <time>2018-04-27T08:59:15Z</time>
      </trkpt>
      <trkpt lat="43.93562" lon="0.30511">
        <ele>88</ele>
        <time>2018-04-27T08:59:16Z</time>
      </trkpt>
      <trkpt lat="43.93551" lon="0.30519">
        <ele>87.1</ele>
        <time>2018-04-27T08:59:27Z</time>
      </trkpt>
      <trkpt lat="43.93539" lon="0.3053">
        <ele>86.3</ele>
        <time>2018-04-27T08:59:37Z</time>
      </trkpt>
      <trkpt lat="43.93533" lon="0.3054">
        <ele>85.4</ele>
        <time>2018-04-27T08:59:49Z</time>
      </trkpt>
      <trkpt lat="43.9352" lon="0.30547">
        <ele>84.6</ele>
        <time>2018-04-27T08:59:59Z</time>
      </trkpt>
      <trkpt lat="43.9352" lon="0.3055">
        <ele>84.2</ele>
        <time>2018-04-27T09:00:04Z</time>
      </trkpt>
      <trkpt lat="43.93521" lon="0.30551">
        <ele>84.2</ele>
        <time>2018-04-27T09:00:06Z</time>
      </trkpt>
      <trkpt lat="43.93528" lon="0.30553">
        <ele>83.8</ele>
        <time>2018-04-27T09:00:25Z</time>
      </trkpt>
      <trkpt lat="43.93515" lon="0.30561">
        <ele>83.5</ele>
        <time>2018-04-27T09:00:41Z</time>
      </trkpt>
      <trkpt lat="43.93506" lon="0.30576">
        <ele>83.3</ele>
        <time>2018-04-27T09:00:52Z</time>
      </trkpt>
      <trkpt lat="43.93495" lon="0.30586">
        <ele>83.2</ele>
        <time>2018-04-27T09:01:01Z</time>
      </trkpt>
      <trkpt lat="43.93486" lon="0.30601">
        <ele>82.9</ele>
        <time>2018-04-27T09:01:15Z</time>
      </trkpt>
      <trkpt lat="43.93478" lon="0.30618">
        <ele>82.7</ele>
        <time>2018-04-27T09:01:28Z</time>
      </trkpt>
      <trkpt lat="43.9347" lon="0.30635">
        <ele>82.5</ele>
        <time>2018-04-27T09:01:39Z</time>
      </trkpt>
      <trkpt lat="43.93461" lon="0.3065">
        <ele>82.2</ele>
        <time>2018-04-27T09:01:52Z</time>
      </trkpt>
      <trkpt lat="43.93456" lon="0.30652">
        <ele>82.1</ele>
        <time>2018-04-27T09:02:00Z</time>
      </trkpt>
      <trkpt lat="43.9346" lon="0.30668">
        <ele>81.9</ele>
        <time>2018-04-27T09:02:08Z</time>
      </trkpt>
      <trkpt lat="43.93451" lon="0.30683">
        <ele>81.7</ele>
        <time>2018-04-27T09:02:19Z</time>
      </trkpt>
      <trkpt lat="43.9344" lon="0.30697">
        <ele>81.5</ele>
        <time>2018-04-27T09:02:32Z</time>
      </trkpt>
      <trkpt lat="43.93426" lon="0.307">
        <ele>81.3</ele>
        <time>2018-04-27T09:02:45Z</time>
      </trkpt>
      <trkpt lat="43.93423" lon="0.30685">
        <ele>81</ele>
        <time>2018-04-27T09:02:58Z</time>
      </trkpt>
      <trkpt lat="43.93423" lon="0.30682">
        <ele>81</ele>
        <time>2018-04-27T09:03:01Z</time>
      </trkpt>
      <trkpt lat="43.93421" lon="0.30663">
        <ele>81.1</ele>
        <time>2018-04-27T09:03:16Z</time>
      </trkpt>
      <trkpt lat="43.9342" lon="0.30643">
        <ele>81.1</ele>
        <time>2018-04-27T09:03:29Z</time>
      </trkpt>
      <trkpt lat="43.93417" lon="0.30625">
        <ele>81.2</ele>
        <time>2018-04-27T09:03:42Z</time>
      </trkpt>
      <trkpt lat="43.93415" lon="0.30606">
        <ele>81.2</ele>
        <time>2018-04-27T09:03:54Z</time>
      </trkpt>
      <trkpt lat="43.93411" lon="0.30587">
        <ele>81.2</ele>
        <time>2018-04-27T09:04:07Z</time>
      </trkpt>
      <trkpt lat="43.93405" lon="0.30569">
        <ele>81.3</ele>
        <time>2018-04-27T09:04:19Z</time>
      </trkpt>
      <trkpt lat="43.93395" lon="0.30556">
        <ele>81.3</ele>
        <time>2018-04-27T09:04:32Z</time>
      </trkpt>
      <trkpt lat="43.93381" lon="0.3055">
        <ele>81.4</ele>
        <time>2018-04-27T09:04:41Z</time>
      </trkpt>
      <trkpt lat="43.93377" lon="0.30538">
        <ele>81.4</ele>
        <time>2018-04-27T09:05:07Z</time>
      </trkpt>
      <trkpt lat="43.93384" lon="0.30532">
        <ele>81.6</ele>
        <time>2018-04-27T09:05:51Z</time>
      </trkpt>
      <trkpt lat="43.93379" lon="0.30524">
        <ele>81.6</ele>
        <time>2018-04-27T09:06:09Z</time>
      </trkpt>
      <trkpt lat="43.93384" lon="0.30525">
        <ele>81.8</ele>
        <time>2018-04-27T09:06:44Z</time>
      </trkpt>
      <trkpt lat="43.93374" lon="0.30512">
        <ele>81.8</ele>
        <time>2018-04-27T09:07:09Z</time>
      </trkpt>
      <trkpt lat="43.93364" lon="0.30499">
        <ele>81.9</ele>
        <time>2018-04-27T09:07:36Z</time>
      </trkpt>
      <trkpt lat="43.93358" lon="0.30481">
        <ele>82</ele>
        <time>2018-04-27T09:07:51Z</time>
      </trkpt>
      <trkpt lat="43.93355" lon="0.30462">
        <ele>82</ele>
        <time>2018-04-27T09:08:05Z</time>
      </trkpt>
      <trkpt lat="43.93353" lon="0.30443">
        <ele>82.1</ele>
        <time>2018-04-27T09:08:18Z</time>
      </trkpt>
      <trkpt lat="43.93347" lon="0.30425">
        <ele>82.1</ele>
        <time>2018-04-27T09:08:33Z</time>
      </trkpt>
      <trkpt lat="43.93346" lon="0.30406">
        <ele>82.2</ele>
        <time>2018-04-27T09:08:48Z</time>
      </trkpt>
      <trkpt lat="43.93346" lon="0.30387">
        <ele>82.2</ele>
        <time>2018-04-27T09:09:02Z</time>
      </trkpt>
      <trkpt lat="43.93345" lon="0.30367">
        <ele>82.3</ele>
        <time>2018-04-27T09:09:16Z</time>
      </trkpt>
      <trkpt lat="43.93342" lon="0.30347">
        <ele>82.3</ele>
        <time>2018-04-27T09:09:32Z</time>
      </trkpt>
      <trkpt lat="43.93342" lon="0.30327">
        <ele>82.4</ele>
        <time>2018-04-27T09:09:48Z</time>
      </trkpt>
      <trkpt lat="43.93357" lon="0.30318">
        <ele>82.4</ele>
        <time>2018-04-27T09:10:01Z</time>
      </trkpt>
      <trkpt lat="43.93371" lon="0.30317">
        <ele>82.4</ele>
        <time>2018-04-27T09:10:15Z</time>
      </trkpt>
      <trkpt lat="43.93384" lon="0.30314">
        <ele>82.5</ele>
        <time>2018-04-27T09:10:28Z</time>
      </trkpt>
      <trkpt lat="43.93398" lon="0.30308">
        <ele>82.5</ele>
        <time>2018-04-27T09:10:40Z</time>
      </trkpt>
      <trkpt lat="43.93412" lon="0.30301">
        <ele>82.6</ele>
        <time>2018-04-27T09:10:53Z</time>
      </trkpt>
      <trkpt lat="43.93425" lon="0.30296">
        <ele>82.6</ele>
        <time>2018-04-27T09:11:06Z</time>
      </trkpt>
      <trkpt lat="43.93439" lon="0.30289">
        <ele>82.7</ele>
        <time>2018-04-27T09:11:20Z</time>
      </trkpt>
      <trkpt lat="43.93453" lon="0.30284">
        <ele>82.7</ele>
        <time>2018-04-27T09:11:33Z</time>
      </trkpt>
      <trkpt lat="43.93466" lon="0.30277">
        <ele>82.7</ele>
        <time>2018-04-27T09:11:45Z</time>
      </trkpt>
      <trkpt lat="43.93478" lon="0.30266">
        <ele>82.8</ele>
        <time>2018-04-27T09:11:58Z</time>
      </trkpt>
      <trkpt lat="43.93489" lon="0.30255">
        <ele>82.8</ele>
        <time>2018-04-27T09:12:12Z</time>
      </trkpt>
      <trkpt lat="43.935" lon="0.30241">
        <ele>82.9</ele>
        <time>2018-04-27T09:12:28Z</time>
      </trkpt>
      <trkpt lat="43.93509" lon="0.30227">
        <ele>82.9</ele>
        <time>2018-04-27T09:12:41Z</time>
      </trkpt>
      <trkpt lat="43.9352" lon="0.30214">
        <ele>83</ele>
        <time>2018-04-27T09:12:53Z</time>
      </trkpt>
      <trkpt lat="43.9353" lon="0.302">
        <ele>83</ele>
        <time>2018-04-27T09:13:04Z</time>
      </trkpt>
      <trkpt lat="43.93535" lon="0.30182">
        <ele>83</ele>
        <time>2018-04-27T09:13:18Z</time>
      </trkpt>
      <trkpt lat="43.93546" lon="0.30169">
        <ele>83.1</ele>
        <time>2018-04-27T09:13:31Z</time>
      </trkpt>
      <trkpt lat="43.93556" lon="0.30156">
        <ele>83.1</ele>
        <time>2018-04-27T09:13:42Z</time>
      </trkpt>
      <trkpt lat="43.93565" lon="0.3014">
        <ele>83.2</ele>
        <time>2018-04-27T09:13:55Z</time>
      </trkpt>
      <trkpt lat="43.93575" lon="0.30127">
        <ele>83.2</ele>
        <time>2018-04-27T09:14:07Z</time>
      </trkpt>
      <trkpt lat="43.93582" lon="0.3011">
        <ele>83.2</ele>
        <time>2018-04-27T09:14:20Z</time>
      </trkpt>
      <trkpt lat="43.9359" lon="0.30094">
        <ele>83.3</ele>
        <time>2018-04-27T09:14:34Z</time>
      </trkpt>
      <trkpt lat="43.93599" lon="0.30079">
        <ele>83.3</ele>
        <time>2018-04-27T09:14:46Z</time>
      </trkpt>
      <trkpt lat="43.93609" lon="0.30066">
        <ele>83.4</ele>
        <time>2018-04-27T09:14:58Z</time>
      </trkpt>
      <trkpt lat="43.9362" lon="0.30056">
        <ele>83.4</ele>
        <time>2018-04-27T09:15:10Z</time>
      </trkpt>
      <trkpt lat="43.93631" lon="0.30043">
        <ele>83.4</ele>
        <time>2018-04-27T09:15:22Z</time>
      </trkpt>
      <trkpt lat="43.93642" lon="0.30032">
        <ele>83.5</ele>
        <time>2018-04-27T09:15:34Z</time>
      </trkpt>
      <trkpt lat="43.93654" lon="0.30022">
        <ele>83.5</ele>
        <time>2018-04-27T09:15:46Z</time>
      </trkpt>
      <trkpt lat="43.93664" lon="0.3001">
        <ele>83.6</ele>
        <time>2018-04-27T09:15:58Z</time>
      </trkpt>
      <trkpt lat="43.93675" lon="0.29998">
        <ele>83.6</ele>
        <time>2018-04-27T09:16:11Z</time>
      </trkpt>
      <trkpt lat="43.93688" lon="0.29988">
        <ele>83.6</ele>
        <time>2018-04-27T09:16:23Z</time>
      </trkpt>
      <trkpt lat="43.93699" lon="0.29976">
        <ele>83.7</ele>
        <time>2018-04-27T09:16:36Z</time>
      </trkpt>
      <trkpt lat="43.9371" lon="0.29964">
        <ele>83.7</ele>
        <time>2018-04-27T09:16:49Z</time>
      </trkpt>
      <trkpt lat="43.93719" lon="0.2995">
        <ele>83.8</ele>
        <time>2018-04-27T09:17:02Z</time>
      </trkpt>
      <trkpt lat="43.93732" lon="0.29941">
        <ele>83.8</ele>
        <time>2018-04-27T09:17:14Z</time>
      </trkpt>
      <trkpt lat="43.93742" lon="0.29927">
        <ele>83.9</ele>
        <time>2018-04-27T09:17:28Z</time>
      </trkpt>
      <trkpt lat="43.93752" lon="0.29914">
        <ele>83.9</ele>
        <time>2018-04-27T09:17:40Z</time>
      </trkpt>
      <trkpt lat="43.93764" lon="0.29903">
        <ele>83.9</ele>
        <time>2018-04-27T09:17:52Z</time>
      </trkpt>
      <trkpt lat="43.93775" lon="0.29892">
        <ele>84</ele>
        <time>2018-04-27T09:18:03Z</time>
      </trkpt>
      <trkpt lat="43.93783" lon="0.29876">
        <ele>84</ele>
        <time>2018-04-27T09:18:18Z</time>
      </trkpt>
      <trkpt lat="43.93777" lon="0.29857">
        <ele>84.1</ele>
        <time>2018-04-27T09:18:32Z</time>
      </trkpt>
      <trkpt lat="43.93771" lon="0.29839">
        <ele>84.1</ele>
        <time>2018-04-27T09:18:47Z</time>
      </trkpt>
      <trkpt lat="43.93766" lon="0.29822">
        <ele>85.5</ele>
        <time>2018-04-27T09:19:02Z</time>
      </trkpt>
      <trkpt lat="43.93759" lon="0.29803">
        <ele>87.1</ele>
        <time>2018-04-27T09:19:18Z</time>
      </trkpt>
      <trkpt lat="43.93758" lon="0.29797">
        <ele>87.5</ele>
        <time>2018-04-27T09:19:23Z</time>
      </trkpt>
      <trkpt lat="43.93754" lon="0.29784">
        <ele>87.7</ele>
        <time>2018-04-27T09:19:33Z</time>
      </trkpt>
      <trkpt lat="43.93749" lon="0.29767">
        <ele>87.9</ele>
        <time>2018-04-27T09:19:49Z</time>
      </trkpt>
      <trkpt lat="43.93743" lon="0.29749">
        <ele>88.1</ele>
        <time>2018-04-27T09:20:05Z</time>
      </trkpt>
      <trkpt lat="43.93738" lon="0.29731">
        <ele>88.3</ele>
        <time>2018-04-27T09:20:18Z</time>
      </trkpt>
      <trkpt lat="43.93734" lon="0.29713">
        <ele>88.5</ele>
        <time>2018-04-27T09:20:31Z</time>
      </trkpt>
      <trkpt lat="43.9373" lon="0.29694">
        <ele>88.8</ele>
        <time>2018-04-27T09:20:48Z</time>
      </trkpt>
      <trkpt lat="43.93722" lon="0.29678">
        <ele>89</ele>
        <time>2018-04-27T09:21:04Z</time>
      </trkpt>
      <trkpt lat="43.93716" lon="0.2966">
        <ele>89.3</ele>
        <time>2018-04-27T09:21:19Z</time>
      </trkpt>
      <trkpt lat="43.93712" lon="0.29641">
        <ele>89.4</ele>
        <time>2018-04-27T09:21:31Z</time>
      </trkpt>
      <trkpt lat="43.93708" lon="0.29622">
        <ele>89.7</ele>
        <time>2018-04-27T09:21:46Z</time>
      </trkpt>
      <trkpt lat="43.93705" lon="0.29603">
        <ele>89.9</ele>
        <time>2018-04-27T09:22:02Z</time>
      </trkpt>
      <trkpt lat="43.93708" lon="0.29584">
        <ele>90.1</ele>
        <time>2018-04-27T09:22:16Z</time>
      </trkpt>
      <trkpt lat="43.93716" lon="0.29567">
        <ele>90.4</ele>
        <time>2018-04-27T09:22:33Z</time>
      </trkpt>
      <trkpt lat="43.93721" lon="0.2955">
        <ele>90.6</ele>
        <time>2018-04-27T09:22:46Z</time>
      </trkpt>
      <trkpt lat="43.93724" lon="0.29531">
        <ele>90.7</ele>
        <time>2018-04-27T09:22:59Z</time>
      </trkpt>
      <trkpt lat="43.93728" lon="0.29512">
        <ele>91</ele>
        <time>2018-04-27T09:23:13Z</time>
      </trkpt>
      <trkpt lat="43.93728" lon="0.29492">
        <ele>91.3</ele>
        <time>2018-04-27T09:23:29Z</time>
      </trkpt>
      <trkpt lat="43.93731" lon="0.29472">
        <ele>91.6</ele>
        <time>2018-04-27T09:23:46Z</time>
      </trkpt>
      <trkpt lat="43.93736" lon="0.29453">
        <ele>92</ele>
        <time>2018-04-27T09:24:02Z</time>
      </trkpt>
      <trkpt lat="43.93739" lon="0.29433">
        <ele>92.3</ele>
        <time>2018-04-27T09:24:18Z</time>
      </trkpt>
      <trkpt lat="43.93743" lon="0.29413">
        <ele>92.7</ele>
        <time>2018-04-27T09:24:37Z</time>
      </trkpt>
      <trkpt lat="43.93747" lon="0.29395">
        <ele>93.1</ele>
        <time>2018-04-27T09:24:54Z</time>
      </trkpt>
      <trkpt lat="43.93751" lon="0.29375">
        <ele>93.4</ele>
        <time>2018-04-27T09:25:08Z</time>
      </trkpt>
      <trkpt lat="43.93756" lon="0.29357">
        <ele>93.6</ele>
        <time>2018-04-27T09:25:20Z</time>
      </trkpt>
      <trkpt lat="43.93755" lon="0.29338">
        <ele>93.9</ele>
        <time>2018-04-27T09:25:33Z</time>
      </trkpt>
      <trkpt lat="43.9376" lon="0.29325">
        <ele>94.1</ele>
        <time>2018-04-27T09:25:43Z</time>
      </trkpt>
      <trkpt lat="43.93761" lon="0.2932">
        <ele>94.5</ele>
        <time>2018-04-27T09:25:47Z</time>
      </trkpt>
      <trkpt lat="43.93766" lon="0.29302">
        <ele>95.9</ele>
        <time>2018-04-27T09:26:01Z</time>
      </trkpt>
      <trkpt lat="43.9377" lon="0.29288">
        <ele>97.2</ele>
        <time>2018-04-27T09:26:13Z</time>
      </trkpt>
      <trkpt lat="43.93771" lon="0.29283">
        <ele>97.6</ele>
        <time>2018-04-27T09:26:17Z</time>
      </trkpt>
      <trkpt lat="43.93774" lon="0.29264">
        <ele>99.6</ele>
        <time>2018-04-27T09:26:34Z</time>
      </trkpt>
      <trkpt lat="43.93776" lon="0.29258">
        <ele>100.5</ele>
        <time>2018-04-27T09:26:42Z</time>
      </trkpt>
      <trkpt lat="43.93779" lon="0.29246">
        <ele>102.4</ele>
        <time>2018-04-27T09:27:00Z</time>
      </trkpt>
      <trkpt lat="43.9378" lon="0.29235">
        <ele>103.7</ele>
        <time>2018-04-27T09:27:12Z</time>
      </trkpt>
      <trkpt lat="43.9378" lon="0.29226">
        <ele>104.2</ele>
        <time>2018-04-27T09:27:23Z</time>
      </trkpt>
      <trkpt lat="43.93784" lon="0.2921">
        <ele>105</ele>
        <time>2018-04-27T09:27:42Z</time>
      </trkpt>
      <trkpt lat="43.93785" lon="0.29205">
        <ele>106.8</ele>
        <time>2018-04-27T09:28:24Z</time>
      </trkpt>
      <trkpt lat="43.93789" lon="0.29192">
        <ele>108.2</ele>
        <time>2018-04-27T09:30:11Z</time>
      </trkpt>
      <trkpt lat="43.93793" lon="0.29174">
        <ele>108.3</ele>
        <time>2018-04-27T09:30:21Z</time>
      </trkpt>
      <trkpt lat="43.93799" lon="0.29156">
        <ele>108.5</ele>
        <time>2018-04-27T09:30:36Z</time>
      </trkpt>
      <trkpt lat="43.93804" lon="0.29139">
        <ele>108.7</ele>
        <time>2018-04-27T09:30:50Z</time>
      </trkpt>
      <trkpt lat="43.93811" lon="0.29119">
        <ele>109</ele>
        <time>2018-04-27T09:31:08Z</time>
      </trkpt>
      <trkpt lat="43.93817" lon="0.29102">
        <ele>109.1</ele>
        <time>2018-04-27T09:31:23Z</time>
      </trkpt>
      <trkpt lat="43.93824" lon="0.29087">
        <ele>109.3</ele>
        <time>2018-04-27T09:31:34Z</time>
      </trkpt>
      <trkpt lat="43.93826" lon="0.29067">
        <ele>109.4</ele>
        <time>2018-04-27T09:31:46Z</time>
      </trkpt>
      <trkpt lat="43.93829" lon="0.29048">
        <ele>109.6</ele>
        <time>2018-04-27T09:31:58Z</time>
      </trkpt>
      <trkpt lat="43.93832" lon="0.2903">
        <ele>109.8</ele>
        <time>2018-04-27T09:32:11Z</time>
      </trkpt>
      <trkpt lat="43.93829" lon="0.29011">
        <ele>110</ele>
        <time>2018-04-27T09:32:27Z</time>
      </trkpt>
      <trkpt lat="43.93837" lon="0.28997">
        <ele>110.1</ele>
        <time>2018-04-27T09:32:37Z</time>
      </trkpt>
      <trkpt lat="43.93841" lon="0.28978">
        <ele>110.3</ele>
        <time>2018-04-27T09:32:51Z</time>
      </trkpt>
      <trkpt lat="43.93845" lon="0.28959">
        <ele>110.5</ele>
        <time>2018-04-27T09:33:04Z</time>
      </trkpt>
      <trkpt lat="43.93845" lon="0.28947">
        <ele>110.6</ele>
        <time>2018-04-27T09:33:12Z</time>
      </trkpt>
      <trkpt lat="43.93845" lon="0.28939">
        <ele>110.8</ele>
        <time>2018-04-27T09:33:17Z</time>
      </trkpt>
      <trkpt lat="43.9385" lon="0.2892">
        <ele>111.3</ele>
        <time>2018-04-27T09:33:31Z</time>
      </trkpt>
      <trkpt lat="43.9385" lon="0.289">
        <ele>111.9</ele>
        <time>2018-04-27T09:33:44Z</time>
      </trkpt>
      <trkpt lat="43.93852" lon="0.28881">
        <ele>112.4</ele>
        <time>2018-04-27T09:33:57Z</time>
      </trkpt>
      <trkpt lat="43.93854" lon="0.28862">
        <ele>113.1</ele>
        <time>2018-04-27T09:34:12Z</time>
      </trkpt>
      <trkpt lat="43.93855" lon="0.28842">
        <ele>113.6</ele>
        <time>2018-04-27T09:34:25Z</time>
      </trkpt>
      <trkpt lat="43.93855" lon="0.28838">
        <ele>113.7</ele>
        <time>2018-04-27T09:34:28Z</time>
      </trkpt>
      <trkpt lat="43.93857" lon="0.28822">
        <ele>114</ele>
        <time>2018-04-27T09:34:39Z</time>
      </trkpt>
      <trkpt lat="43.93857" lon="0.28803">
        <ele>114.4</ele>
        <time>2018-04-27T09:34:53Z</time>
      </trkpt>
      <trkpt lat="43.93859" lon="0.28783">
        <ele>114.8</ele>
        <time>2018-04-27T09:35:08Z</time>
      </trkpt>
      <trkpt lat="43.93857" lon="0.28764">
        <ele>115.1</ele>
        <time>2018-04-27T09:35:19Z</time>
      </trkpt>
      <trkpt lat="43.93858" lon="0.28745">
        <ele>115.5</ele>
        <time>2018-04-27T09:35:35Z</time>
      </trkpt>
      <trkpt lat="43.93859" lon="0.28726">
        <ele>115.9</ele>
        <time>2018-04-27T09:35:48Z</time>
      </trkpt>
      <trkpt lat="43.93858" lon="0.28706">
        <ele>116.2</ele>
        <time>2018-04-27T09:36:01Z</time>
      </trkpt>
      <trkpt lat="43.93859" lon="0.28688">
        <ele>116.6</ele>
        <time>2018-04-27T09:36:13Z</time>
      </trkpt>
      <trkpt lat="43.93859" lon="0.28678">
        <ele>116.8</ele>
        <time>2018-04-27T09:36:20Z</time>
      </trkpt>
      <trkpt lat="43.93859" lon="0.28669">
        <ele>117.3</ele>
        <time>2018-04-27T09:36:27Z</time>
      </trkpt>
      <trkpt lat="43.9386" lon="0.28649">
        <ele>118.3</ele>
        <time>2018-04-27T09:36:41Z</time>
      </trkpt>
      <trkpt lat="43.93857" lon="0.2863">
        <ele>119.6</ele>
        <time>2018-04-27T09:36:58Z</time>
      </trkpt>
      <trkpt lat="43.93859" lon="0.28621">
        <ele>120.1</ele>
        <time>2018-04-27T09:37:04Z</time>
      </trkpt>
      <trkpt lat="43.9386" lon="0.28611">
        <ele>121</ele>
        <time>2018-04-27T09:37:11Z</time>
      </trkpt>
      <trkpt lat="43.9386" lon="0.28591">
        <ele>122.9</ele>
        <time>2018-04-27T09:37:26Z</time>
      </trkpt>
      <trkpt lat="43.9386" lon="0.28589">
        <ele>123.1</ele>
        <time>2018-04-27T09:37:28Z</time>
      </trkpt>
      <trkpt lat="43.93864" lon="0.28573">
        <ele>123.5</ele>
        <time>2018-04-27T09:37:41Z</time>
      </trkpt>
      <trkpt lat="43.93869" lon="0.28555">
        <ele>123.9</ele>
        <time>2018-04-27T09:37:55Z</time>
      </trkpt>
      <trkpt lat="43.93871" lon="0.28536">
        <ele>124.3</ele>
        <time>2018-04-27T09:38:09Z</time>
      </trkpt>
      <trkpt lat="43.93873" lon="0.28516">
        <ele>124.7</ele>
        <time>2018-04-27T09:38:25Z</time>
      </trkpt>
      <trkpt lat="43.93872" lon="0.28497">
        <ele>125.1</ele>
        <time>2018-04-27T09:38:39Z</time>
      </trkpt>
      <trkpt lat="43.93873" lon="0.28478">
        <ele>125.4</ele>
        <time>2018-04-27T09:38:53Z</time>
      </trkpt>
      <trkpt lat="43.93877" lon="0.28459">
        <ele>125.8</ele>
        <time>2018-04-27T09:39:06Z</time>
      </trkpt>
      <trkpt lat="43.93876" lon="0.28439">
        <ele>126.2</ele>
        <time>2018-04-27T09:39:21Z</time>
      </trkpt>
      <trkpt lat="43.93877" lon="0.28429">
        <ele>126.4</ele>
        <time>2018-04-27T09:39:28Z</time>
      </trkpt>
      <trkpt lat="43.93877" lon="0.2842">
        <ele>126.4</ele>
        <time>2018-04-27T09:39:34Z</time>
      </trkpt>
      <trkpt lat="43.9388" lon="0.28402">
        <ele>126.5</ele>
        <time>2018-04-27T09:39:48Z</time>
      </trkpt>
      <trkpt lat="43.93882" lon="0.28382">
        <ele>126.6</ele>
        <time>2018-04-27T09:40:01Z</time>
      </trkpt>
      <trkpt lat="43.93885" lon="0.28363">
        <ele>126.7</ele>
        <time>2018-04-27T09:40:14Z</time>
      </trkpt>
      <trkpt lat="43.93884" lon="0.28343">
        <ele>126.7</ele>
        <time>2018-04-27T09:40:26Z</time>
      </trkpt>
      <trkpt lat="43.93881" lon="0.28323">
        <ele>126.8</ele>
        <time>2018-04-27T09:40:39Z</time>
      </trkpt>
      <trkpt lat="43.93874" lon="0.28306">
        <ele>126.9</ele>
        <time>2018-04-27T09:40:52Z</time>
      </trkpt>
      <trkpt lat="43.93867" lon="0.28288">
        <ele>127</ele>
        <time>2018-04-27T09:41:06Z</time>
      </trkpt>
      <trkpt lat="43.9386" lon="0.2827">
        <ele>127</ele>
        <time>2018-04-27T09:41:20Z</time>
      </trkpt>
      <trkpt lat="43.93853" lon="0.28254">
        <ele>127.1</ele>
        <time>2018-04-27T09:41:31Z</time>
      </trkpt>
      <trkpt lat="43.93848" lon="0.28235">
        <ele>127.2</ele>
        <time>2018-04-27T09:41:44Z</time>
      </trkpt>
      <trkpt lat="43.93841" lon="0.28219">
        <ele>127.3</ele>
        <time>2018-04-27T09:42:00Z</time>
      </trkpt>
      <trkpt lat="43.93835" lon="0.28201">
        <ele>127.4</ele>
        <time>2018-04-27T09:42:14Z</time>
      </trkpt>
      <trkpt lat="43.93827" lon="0.28186">
        <ele>127.4</ele>
        <time>2018-04-27T09:42:27Z</time>
      </trkpt>
      <trkpt lat="43.93822" lon="0.28167">
        <ele>127.5</ele>
        <time>2018-04-27T09:42:42Z</time>
      </trkpt>
      <trkpt lat="43.93816" lon="0.2815">
        <ele>127.6</ele>
        <time>2018-04-27T09:42:56Z</time>
      </trkpt>
      <trkpt lat="43.9381" lon="0.28132">
        <ele>127.7</ele>
        <time>2018-04-27T09:43:09Z</time>
      </trkpt>
      <trkpt lat="43.93802" lon="0.28116">
        <ele>127.8</ele>
        <time>2018-04-27T09:43:21Z</time>
      </trkpt>
      <trkpt lat="43.93795" lon="0.28099">
        <ele>127.8</ele>
        <time>2018-04-27T09:43:34Z</time>
      </trkpt>
      <trkpt lat="43.93788" lon="0.28083">
        <ele>127.9</ele>
        <time>2018-04-27T09:43:47Z</time>
      </trkpt>
      <trkpt lat="43.93781" lon="0.28066">
        <ele>128</ele>
        <time>2018-04-27T09:44:01Z</time>
      </trkpt>
      <trkpt lat="43.93773" lon="0.28051">
        <ele>128.1</ele>
        <time>2018-04-27T09:44:15Z</time>
      </trkpt>
      <trkpt lat="43.93765" lon="0.28036">
        <ele>128.1</ele>
        <time>2018-04-27T09:44:28Z</time>
      </trkpt>
      <trkpt lat="43.93759" lon="0.28019">
        <ele>128.2</ele>
        <time>2018-04-27T09:44:41Z</time>
      </trkpt>
      <trkpt lat="43.93754" lon="0.28001">
        <ele>128.3</ele>
        <time>2018-04-27T09:44:52Z</time>
      </trkpt>
      <trkpt lat="43.93745" lon="0.27985">
        <ele>128.4</ele>
        <time>2018-04-27T09:45:04Z</time>
      </trkpt>
      <trkpt lat="43.93737" lon="0.27969">
        <ele>128.4</ele>
        <time>2018-04-27T09:45:18Z</time>
      </trkpt>
      <trkpt lat="43.93729" lon="0.27954">
        <ele>128.5</ele>
        <time>2018-04-27T09:45:31Z</time>
      </trkpt>
      <trkpt lat="43.93721" lon="0.27937">
        <ele>128.6</ele>
        <time>2018-04-27T09:45:47Z</time>
      </trkpt>
      <trkpt lat="43.93714" lon="0.2792">
        <ele>128.7</ele>
        <time>2018-04-27T09:45:59Z</time>
      </trkpt>
      <trkpt lat="43.93707" lon="0.27904">
        <ele>128.8</ele>
        <time>2018-04-27T09:46:11Z</time>
      </trkpt>
      <trkpt lat="43.93702" lon="0.27886">
        <ele>128.8</ele>
        <time>2018-04-27T09:46:23Z</time>
      </trkpt>
      <trkpt lat="43.93695" lon="0.2787">
        <ele>128.9</ele>
        <time>2018-04-27T09:46:36Z</time>
      </trkpt>
      <trkpt lat="43.93689" lon="0.27851">
        <ele>129</ele>
        <time>2018-04-27T09:46:50Z</time>
      </trkpt>
      <trkpt lat="43.93685" lon="0.27833">
        <ele>129</ele>
        <time>2018-04-27T09:47:02Z</time>
      </trkpt>
      <trkpt lat="43.93675" lon="0.27819">
        <ele>129.1</ele>
        <time>2018-04-27T09:47:15Z</time>
      </trkpt>
      <trkpt lat="43.9367" lon="0.278">
        <ele>129.2</ele>
        <time>2018-04-27T09:47:27Z</time>
      </trkpt>
      <trkpt lat="43.93664" lon="0.27784">
        <ele>129.3</ele>
        <time>2018-04-27T09:47:40Z</time>
      </trkpt>
      <trkpt lat="43.93659" lon="0.27766">
        <ele>129.3</ele>
        <time>2018-04-27T09:47:53Z</time>
      </trkpt>
      <trkpt lat="43.93656" lon="0.27748">
        <ele>129.4</ele>
        <time>2018-04-27T09:48:06Z</time>
      </trkpt>
      <trkpt lat="43.93653" lon="0.2773">
        <ele>129.5</ele>
        <time>2018-04-27T09:48:19Z</time>
      </trkpt>
      <trkpt lat="43.93647" lon="0.27712">
        <ele>129.6</ele>
        <time>2018-04-27T09:48:32Z</time>
      </trkpt>
      <trkpt lat="43.93641" lon="0.27694">
        <ele>129.7</ele>
        <time>2018-04-27T09:48:46Z</time>
      </trkpt>
      <trkpt lat="43.93636" lon="0.27674">
        <ele>129.7</ele>
        <time>2018-04-27T09:49:01Z</time>
      </trkpt>
      <trkpt lat="43.93634" lon="0.27655">
        <ele>129.8</ele>
        <time>2018-04-27T09:49:14Z</time>
      </trkpt>
      <trkpt lat="43.9363" lon="0.27636">
        <ele>129.9</ele>
        <time>2018-04-27T09:49:28Z</time>
      </trkpt>
      <trkpt lat="43.93626" lon="0.27616">
        <ele>130</ele>
        <time>2018-04-27T09:49:42Z</time>
      </trkpt>
      <trkpt lat="43.93624" lon="0.27597">
        <ele>130.1</ele>
        <time>2018-04-27T09:49:56Z</time>
      </trkpt>
      <trkpt lat="43.93623" lon="0.27576">
        <ele>130.1</ele>
        <time>2018-04-27T09:50:10Z</time>
      </trkpt>
      <trkpt lat="43.93623" lon="0.27556">
        <ele>130.2</ele>
        <time>2018-04-27T09:50:25Z</time>
      </trkpt>
      <trkpt lat="43.93619" lon="0.27541">
        <ele>130.3</ele>
        <time>2018-04-27T09:50:34Z</time>
      </trkpt>
      <trkpt lat="43.93618" lon="0.27537">
        <ele>130.2</ele>
        <time>2018-04-27T09:50:36Z</time>
      </trkpt>
      <trkpt lat="43.93624" lon="0.2752">
        <ele>129.3</ele>
        <time>2018-04-27T09:50:56Z</time>
      </trkpt>
      <trkpt lat="43.93634" lon="0.27505">
        <ele>128.6</ele>
        <time>2018-04-27T09:51:10Z</time>
      </trkpt>
      <trkpt lat="43.93646" lon="0.27495">
        <ele>128.1</ele>
        <time>2018-04-27T09:51:21Z</time>
      </trkpt>
      <trkpt lat="43.93655" lon="0.2748">
        <ele>127.5</ele>
        <time>2018-04-27T09:51:36Z</time>
      </trkpt>
      <trkpt lat="43.93665" lon="0.2747">
        <ele>127</ele>
        <time>2018-04-27T09:51:46Z</time>
      </trkpt>
      <trkpt lat="43.93667" lon="0.27469">
        <ele>127</ele>
        <time>2018-04-27T09:51:48Z</time>
      </trkpt>
      <trkpt lat="43.93681" lon="0.27461">
        <ele>126.7</ele>
        <time>2018-04-27T09:52:00Z</time>
      </trkpt>
      <trkpt lat="43.93693" lon="0.27449">
        <ele>126.4</ele>
        <time>2018-04-27T09:52:13Z</time>
      </trkpt>
      <trkpt lat="43.93705" lon="0.2744">
        <ele>126.1</ele>
        <time>2018-04-27T09:52:26Z</time>
      </trkpt>
      <trkpt lat="43.93717" lon="0.27431">
        <ele>125.8</ele>
        <time>2018-04-27T09:52:39Z</time>
      </trkpt>
      <trkpt lat="43.93729" lon="0.2742">
        <ele>125.5</ele>
        <time>2018-04-27T09:52:52Z</time>
      </trkpt>
      <trkpt lat="43.93739" lon="0.27409">
        <ele>125.3</ele>
        <time>2018-04-27T09:53:02Z</time>
      </trkpt>
      <trkpt lat="43.93751" lon="0.27401">
        <ele>125</ele>
        <time>2018-04-27T09:53:17Z</time>
      </trkpt>
      <trkpt lat="43.93763" lon="0.27393">
        <ele>124.7</ele>
        <time>2018-04-27T09:53:28Z</time>
      </trkpt>
      <trkpt lat="43.93776" lon="0.27387">
        <ele>124.5</ele>
        <time>2018-04-27T09:53:39Z</time>
      </trkpt>
      <trkpt lat="43.93784" lon="0.2737">
        <ele>124.2</ele>
        <time>2018-04-27T09:53:52Z</time>
      </trkpt>
      <trkpt lat="43.93791" lon="0.27365">
        <ele>124</ele>
        <time>2018-04-27T09:54:00Z</time>
      </trkpt>
      <trkpt lat="43.93796" lon="0.2736">
        <ele>124.2</ele>
        <time>2018-04-27T09:54:06Z</time>
      </trkpt>
      <trkpt lat="43.93807" lon="0.27349">
        <ele>124.7</ele>
        <time>2018-04-27T09:54:18Z</time>
      </trkpt>
      <trkpt lat="43.93817" lon="0.27336">
        <ele>125.1</ele>
        <time>2018-04-27T09:54:30Z</time>
      </trkpt>
      <trkpt lat="43.93828" lon="0.27323">
        <ele>125.7</ele>
        <time>2018-04-27T09:54:45Z</time>
      </trkpt>
      <trkpt lat="43.93841" lon="0.27313">
        <ele>126.1</ele>
        <time>2018-04-27T09:54:56Z</time>
      </trkpt>
      <trkpt lat="43.93852" lon="0.27301">
        <ele>126.7</ele>
        <time>2018-04-27T09:55:11Z</time>
      </trkpt>
      <trkpt lat="43.93866" lon="0.27297">
        <ele>127.2</ele>
        <time>2018-04-27T09:55:24Z</time>
      </trkpt>
      <trkpt lat="43.9388" lon="0.27291">
        <ele>127.7</ele>
        <time>2018-04-27T09:55:38Z</time>
      </trkpt>
      <trkpt lat="43.93893" lon="0.27282">
        <ele>128.3</ele>
        <time>2018-04-27T09:55:52Z</time>
      </trkpt>
      <trkpt lat="43.93904" lon="0.27274">
        <ele>128.7</ele>
        <time>2018-04-27T09:56:02Z</time>
      </trkpt>
      <trkpt lat="43.93905" lon="0.27273">
        <ele>128.7</ele>
        <time>2018-04-27T09:56:03Z</time>
      </trkpt>
      <trkpt lat="43.93919" lon="0.27266">
        <ele>129.7</ele>
        <time>2018-04-27T09:56:18Z</time>
      </trkpt>
      <trkpt lat="43.9393" lon="0.27256">
        <ele>130.5</ele>
        <time>2018-04-27T09:56:31Z</time>
      </trkpt>
      <trkpt lat="43.93942" lon="0.27245">
        <ele>131.5</ele>
        <time>2018-04-27T09:56:47Z</time>
      </trkpt>
      <trkpt lat="43.93951" lon="0.27239">
        <ele>132.1</ele>
        <time>2018-04-27T09:56:56Z</time>
      </trkpt>
      <trkpt lat="43.93955" lon="0.27236">
        <ele>132.5</ele>
        <time>2018-04-27T09:57:00Z</time>
      </trkpt>
      <trkpt lat="43.93967" lon="0.27228">
        <ele>133.7</ele>
        <time>2018-04-27T09:57:13Z</time>
      </trkpt>
      <trkpt lat="43.9398" lon="0.2722">
        <ele>134.9</ele>
        <time>2018-04-27T09:57:26Z</time>
      </trkpt>
      <trkpt lat="43.93984" lon="0.27215">
        <ele>135.4</ele>
        <time>2018-04-27T09:57:32Z</time>
      </trkpt>
      <trkpt lat="43.93991" lon="0.27208">
        <ele>134.4</ele>
        <time>2018-04-27T09:57:42Z</time>
      </trkpt>
      <trkpt lat="43.94005" lon="0.272">
        <ele>133.3</ele>
        <time>2018-04-27T09:57:54Z</time>
      </trkpt>
      <trkpt lat="43.94017" lon="0.27193">
        <ele>132.2</ele>
        <time>2018-04-27T09:58:05Z</time>
      </trkpt>
      <trkpt lat="43.94027" lon="0.27185">
        <ele>131.3</ele>
        <time>2018-04-27T09:58:14Z</time>
      </trkpt>
      <trkpt lat="43.94029" lon="0.27184">
        <ele>131.4</ele>
        <time>2018-04-27T09:58:16Z</time>
      </trkpt>
      <trkpt lat="43.94035" lon="0.27165">
        <ele>132.9</ele>
        <time>2018-04-27T09:59:00Z</time>
      </trkpt>
      <trkpt lat="43.94038" lon="0.27146">
        <ele>133.3</ele>
        <time>2018-04-27T09:59:13Z</time>
      </trkpt>
      <trkpt lat="43.94038" lon="0.27127">
        <ele>133.7</ele>
        <time>2018-04-27T09:59:25Z</time>
      </trkpt>
      <trkpt lat="43.94038" lon="0.27108">
        <ele>134.1</ele>
        <time>2018-04-27T09:59:37Z</time>
      </trkpt>
      <trkpt lat="43.94038" lon="0.27089">
        <ele>134.5</ele>
        <time>2018-04-27T09:59:49Z</time>
      </trkpt>
      <trkpt lat="43.9404" lon="0.27078">
        <ele>134.7</ele>
        <time>2018-04-27T09:59:56Z</time>
      </trkpt>
      <trkpt lat="43.94041" lon="0.2707">
        <ele>134.9</ele>
        <time>2018-04-27T10:00:02Z</time>
      </trkpt>
      <trkpt lat="43.94042" lon="0.2705">
        <ele>135.3</ele>
        <time>2018-04-27T10:00:15Z</time>
      </trkpt>
      <trkpt lat="43.94042" lon="0.27031">
        <ele>135.7</ele>
        <time>2018-04-27T10:00:28Z</time>
      </trkpt>
      <trkpt lat="43.94044" lon="0.27011">
        <ele>136.1</ele>
        <time>2018-04-27T10:00:41Z</time>
      </trkpt>
      <trkpt lat="43.94044" lon="0.26992">
        <ele>136.6</ele>
        <time>2018-04-27T10:00:56Z</time>
      </trkpt>
      <trkpt lat="43.94045" lon="0.26973">
        <ele>137</ele>
        <time>2018-04-27T10:01:11Z</time>
      </trkpt>
      <trkpt lat="43.94046" lon="0.2696">
        <ele>138.2</ele>
        <time>2018-04-27T10:01:50Z</time>
      </trkpt>
      <trkpt lat="43.94047" lon="0.26959">
        <ele>138.6</ele>
        <time>2018-04-27T10:01:54Z</time>
      </trkpt>
      <trkpt lat="43.94061" lon="0.26963">
        <ele>139.7</ele>
        <time>2018-04-27T10:02:07Z</time>
      </trkpt>
      <trkpt lat="43.94075" lon="0.26967">
        <ele>140.8</ele>
        <time>2018-04-27T10:02:20Z</time>
      </trkpt>
      <trkpt lat="43.9408" lon="0.2697">
        <ele>141.3</ele>
        <time>2018-04-27T10:02:26Z</time>
      </trkpt>
      <trkpt lat="43.94088" lon="0.26973">
        <ele>141.9</ele>
        <time>2018-04-27T10:02:34Z</time>
      </trkpt>
      <trkpt lat="43.94103" lon="0.26978">
        <ele>142.7</ele>
        <time>2018-04-27T10:02:46Z</time>
      </trkpt>
      <trkpt lat="43.94116" lon="0.2698">
        <ele>143.5</ele>
        <time>2018-04-27T10:02:57Z</time>
      </trkpt>
      <trkpt lat="43.94128" lon="0.26984">
        <ele>144.3</ele>
        <time>2018-04-27T10:03:07Z</time>
      </trkpt>
      <trkpt lat="43.9413" lon="0.26985">
        <ele>144.4</ele>
        <time>2018-04-27T10:03:09Z</time>
      </trkpt>
      <trkpt lat="43.94145" lon="0.26988">
        <ele>145.2</ele>
        <time>2018-04-27T10:03:21Z</time>
      </trkpt>
      <trkpt lat="43.94158" lon="0.26992">
        <ele>146.1</ele>
        <time>2018-04-27T10:03:34Z</time>
      </trkpt>
      <trkpt lat="43.94171" lon="0.26996">
        <ele>147.4</ele>
        <time>2018-04-27T10:03:53Z</time>
      </trkpt>
      <trkpt lat="43.94173" lon="0.26997">
        <ele>147.7</ele>
        <time>2018-04-27T10:03:57Z</time>
      </trkpt>
      <trkpt lat="43.9418" lon="0.27001">
        <ele>149</ele>
        <time>2018-04-27T10:04:18Z</time>
      </trkpt>
      <trkpt lat="43.94189" lon="0.27009">
        <ele>151</ele>
        <time>2018-04-27T10:04:51Z</time>
      </trkpt>
      <trkpt lat="43.94192" lon="0.27012">
        <ele>151</ele>
        <time>2018-04-27T10:05:01Z</time>
      </trkpt>
      <trkpt lat="43.94196" lon="0.27015">
        <ele>150.9</ele>
        <time>2018-04-27T10:05:14Z</time>
      </trkpt>
      <trkpt lat="43.94196" lon="0.27028">
        <ele>150.8</ele>
        <time>2018-04-27T10:05:51Z</time>
      </trkpt>
      <trkpt lat="43.94198" lon="0.27027">
        <ele>150.8</ele>
        <time>2018-04-27T10:05:52Z</time>
      </trkpt>
      <trkpt lat="43.94184" lon="0.27022">
        <ele>150.7</ele>
        <time>2018-04-27T10:06:07Z</time>
      </trkpt>
      <trkpt lat="43.94183" lon="0.27019">
        <ele>150.7</ele>
        <time>2018-04-27T10:06:15Z</time>
      </trkpt>
      <trkpt lat="43.94189" lon="0.27021">
        <ele>150.6</ele>
        <time>2018-04-27T10:06:32Z</time>
      </trkpt>
      <trkpt lat="43.94192" lon="0.27023">
        <ele>150.6</ele>
        <time>2018-04-27T10:06:52Z</time>
      </trkpt>
      <trkpt lat="43.94191" lon="0.27026">
        <ele>150.5</ele>
        <time>2018-04-27T10:06:57Z</time>
      </trkpt>
      <trkpt lat="43.94197" lon="0.27027">
        <ele>150.5</ele>
        <time>2018-04-27T10:07:18Z</time>
      </trkpt>
      <trkpt lat="43.94199" lon="0.27016">
        <ele>150.4</ele>
        <time>2018-04-27T10:07:25Z</time>
      </trkpt>
      <trkpt lat="43.94205" lon="0.27009">
        <ele>150.3</ele>
        <time>2018-04-27T10:08:01Z</time>
      </trkpt>
      <trkpt lat="43.94206" lon="0.27005">
        <ele>150.2</ele>
        <time>2018-04-27T10:08:22Z</time>
      </trkpt>
      <trkpt lat="43.94196" lon="0.27004">
        <ele>150.2</ele>
        <time>2018-04-27T10:08:42Z</time>
      </trkpt>
      <trkpt lat="43.94197" lon="0.27006">
        <ele>150.1</ele>
        <time>2018-04-27T10:08:47Z</time>
      </trkpt>
      <trkpt lat="43.94201" lon="0.27016">
        <ele>150</ele>
        <time>2018-04-27T10:09:19Z</time>
      </trkpt>
      <trkpt lat="43.94201" lon="0.27014">
        <ele>149.9</ele>
        <time>2018-04-27T10:09:37Z</time>
      </trkpt>
      <trkpt lat="43.94193" lon="0.27003">
        <ele>149.7</ele>
        <time>2018-04-27T10:10:32Z</time>
      </trkpt>
      <trkpt lat="43.94192" lon="0.27009">
        <ele>149.7</ele>
        <time>2018-04-27T10:10:38Z</time>
      </trkpt>
      <trkpt lat="43.94189" lon="0.2701">
        <ele>149.6</ele>
        <time>2018-04-27T10:11:16Z</time>
      </trkpt>
      <trkpt lat="43.94192" lon="0.27012">
        <ele>149.4</ele>
        <time>2018-04-27T10:12:04Z</time>
      </trkpt>
      <trkpt lat="43.94199" lon="0.26994">
        <ele>149.1</ele>
        <time>2018-04-27T10:13:16Z</time>
      </trkpt>
      <trkpt lat="43.94196" lon="0.27013">
        <ele>149</ele>
        <time>2018-04-27T10:13:46Z</time>
      </trkpt>
      <trkpt lat="43.94197" lon="0.2701">
        <ele>148.9</ele>
        <time>2018-04-27T10:14:21Z</time>
      </trkpt>
      <trkpt lat="43.94195" lon="0.27008">
        <ele>148.9</ele>
        <time>2018-04-27T10:14:26Z</time>
      </trkpt>
      <trkpt lat="43.942" lon="0.26987">
        <ele>148.7</ele>
        <time>2018-04-27T10:14:58Z</time>
      </trkpt>
      <trkpt lat="43.94197" lon="0.27003">
        <ele>148.5</ele>
        <time>2018-04-27T10:15:59Z</time>
      </trkpt>
      <trkpt lat="43.94203" lon="0.27003">
        <ele>148.5</ele>
        <time>2018-04-27T10:16:10Z</time>
      </trkpt>
      <trkpt lat="43.94207" lon="0.26994">
        <ele>148.4</ele>
        <time>2018-04-27T10:16:34Z</time>
      </trkpt>
      <trkpt lat="43.94204" lon="0.26998">
        <ele>148.3</ele>
        <time>2018-04-27T10:16:44Z</time>
      </trkpt>
      <trkpt lat="43.94199" lon="0.27011">
        <ele>148.3</ele>
        <time>2018-04-27T10:16:59Z</time>
      </trkpt>
      <trkpt lat="43.94189" lon="0.2702">
        <ele>148</ele>
        <time>2018-04-27T10:18:15Z</time>
      </trkpt>
      <trkpt lat="43.94188" lon="0.27015">
        <ele>148</ele>
        <time>2018-04-27T10:18:18Z</time>
      </trkpt>
      <trkpt lat="43.94194" lon="0.27006">
        <ele>148</ele>
        <time>2018-04-27T10:18:23Z</time>
      </trkpt>
      <trkpt lat="43.9419" lon="0.27003">
        <ele>147.9</ele>
        <time>2018-04-27T10:18:38Z</time>
      </trkpt>
      <trkpt lat="43.94175" lon="0.27047">
        <ele>147.9</ele>
        <time>2018-04-27T10:18:52Z</time>
      </trkpt>
      <trkpt lat="43.94182" lon="0.27047">
        <ele>147.8</ele>
        <time>2018-04-27T10:19:13Z</time>
      </trkpt>
      <trkpt lat="43.94184" lon="0.27049">
        <ele>147.8</ele>
        <time>2018-04-27T10:19:16Z</time>
      </trkpt>
      <trkpt lat="43.94192" lon="0.27028">
        <ele>147.8</ele>
        <time>2018-04-27T10:19:17Z</time>
      </trkpt>
      <trkpt lat="43.94182" lon="0.27038">
        <ele>147.8</ele>
        <time>2018-04-27T10:19:19Z</time>
      </trkpt>
      <trkpt lat="43.94182" lon="0.27043">
        <ele>147.7</ele>
        <time>2018-04-27T10:19:29Z</time>
      </trkpt>
      <trkpt lat="43.94192" lon="0.27027">
        <ele>147.7</ele>
        <time>2018-04-27T10:19:43Z</time>
      </trkpt>
      <trkpt lat="43.94195" lon="0.27007">
        <ele>147.6</ele>
        <time>2018-04-27T10:19:49Z</time>
      </trkpt>
      <trkpt lat="43.94185" lon="0.27012">
        <ele>147.6</ele>
        <time>2018-04-27T10:19:57Z</time>
      </trkpt>
      <trkpt lat="43.9418" lon="0.27012">
        <ele>147.5</ele>
        <time>2018-04-27T10:20:37Z</time>
      </trkpt>
      <trkpt lat="43.94178" lon="0.27012">
        <ele>146.4</ele>
        <time>2018-04-27T10:21:00Z</time>
      </trkpt>
      <trkpt lat="43.94165" lon="0.27002">
        <ele>144.1</ele>
        <time>2018-04-27T10:21:54Z</time>
      </trkpt>
      <trkpt lat="43.94153" lon="0.26994">
        <ele>143.5</ele>
        <time>2018-04-27T10:22:07Z</time>
      </trkpt>
      <trkpt lat="43.94151" lon="0.26993">
        <ele>143.3</ele>
        <time>2018-04-27T10:22:09Z</time>
      </trkpt>
      <trkpt lat="43.94138" lon="0.26987">
        <ele>140.6</ele>
        <time>2018-04-27T10:22:46Z</time>
      </trkpt>
      <trkpt lat="43.94125" lon="0.2698">
        <ele>139.9</ele>
        <time>2018-04-27T10:22:55Z</time>
      </trkpt>
      <trkpt lat="43.94118" lon="0.2698">
        <ele>139.5</ele>
        <time>2018-04-27T10:23:01Z</time>
      </trkpt>
      <trkpt lat="43.9411" lon="0.26979">
        <ele>138.9</ele>
        <time>2018-04-27T10:23:08Z</time>
      </trkpt>
      <trkpt lat="43.94097" lon="0.26976">
        <ele>138.1</ele>
        <time>2018-04-27T10:23:17Z</time>
      </trkpt>
      <trkpt lat="43.94083" lon="0.26974">
        <ele>137.1</ele>
        <time>2018-04-27T10:23:28Z</time>
      </trkpt>
      <trkpt lat="43.94078" lon="0.26973">
        <ele>136.8</ele>
        <time>2018-04-27T10:23:31Z</time>
      </trkpt>
      <trkpt lat="43.94069" lon="0.26971">
        <ele>136.1</ele>
        <time>2018-04-27T10:23:38Z</time>
      </trkpt>
      <trkpt lat="43.94062" lon="0.26968">
        <ele>135.7</ele>
        <time>2018-04-27T10:23:43Z</time>
      </trkpt>
      <trkpt lat="43.94055" lon="0.26966">
        <ele>135.8</ele>
        <time>2018-04-27T10:23:48Z</time>
      </trkpt>
      <trkpt lat="43.94045" lon="0.26951">
        <ele>136.2</ele>
        <time>2018-04-27T10:24:03Z</time>
      </trkpt>
      <trkpt lat="43.94046" lon="0.26932">
        <ele>136.6</ele>
        <time>2018-04-27T10:24:17Z</time>
      </trkpt>
      <trkpt lat="43.94045" lon="0.26912">
        <ele>137</ele>
        <time>2018-04-27T10:24:30Z</time>
      </trkpt>
      <trkpt lat="43.94046" lon="0.26893">
        <ele>137.4</ele>
        <time>2018-04-27T10:24:44Z</time>
      </trkpt>
      <trkpt lat="43.94046" lon="0.2687">
        <ele>137.8</ele>
        <time>2018-04-27T10:24:58Z</time>
      </trkpt>
      <trkpt lat="43.94044" lon="0.26851">
        <ele>138.2</ele>
        <time>2018-04-27T10:25:13Z</time>
      </trkpt>
      <trkpt lat="43.94044" lon="0.26831">
        <ele>138.6</ele>
        <time>2018-04-27T10:25:27Z</time>
      </trkpt>
      <trkpt lat="43.94045" lon="0.26812">
        <ele>138.9</ele>
        <time>2018-04-27T10:25:40Z</time>
      </trkpt>
      <trkpt lat="43.94045" lon="0.26794">
        <ele>139.3</ele>
        <time>2018-04-27T10:25:52Z</time>
      </trkpt>
      <trkpt lat="43.94045" lon="0.26793">
        <ele>139.3</ele>
        <time>2018-04-27T10:25:53Z</time>
      </trkpt>
      <trkpt lat="43.94046" lon="0.26774">
        <ele>139.9</ele>
        <time>2018-04-27T10:26:07Z</time>
      </trkpt>
      <trkpt lat="43.94043" lon="0.26756">
        <ele>140.4</ele>
        <time>2018-04-27T10:26:19Z</time>
      </trkpt>
      <trkpt lat="43.94044" lon="0.26737">
        <ele>140.8</ele>
        <time>2018-04-27T10:26:31Z</time>
      </trkpt>
      <trkpt lat="43.94049" lon="0.26718">
        <ele>141.5</ele>
        <time>2018-04-27T10:26:47Z</time>
      </trkpt>
      <trkpt lat="43.94054" lon="0.267">
        <ele>142.1</ele>
        <time>2018-04-27T10:27:03Z</time>
      </trkpt>
      <trkpt lat="43.94056" lon="0.26691">
        <ele>142.4</ele>
        <time>2018-04-27T10:27:10Z</time>
      </trkpt>
      <trkpt lat="43.94058" lon="0.26681">
        <ele>143</ele>
        <time>2018-04-27T10:27:18Z</time>
      </trkpt>
      <trkpt lat="43.9406" lon="0.26662">
        <ele>144.2</ele>
        <time>2018-04-27T10:27:32Z</time>
      </trkpt>
      <trkpt lat="43.94063" lon="0.26643">
        <ele>145.4</ele>
        <time>2018-04-27T10:27:47Z</time>
      </trkpt>
      <trkpt lat="43.94065" lon="0.26637">
        <ele>145.8</ele>
        <time>2018-04-27T10:27:52Z</time>
      </trkpt>
      <trkpt lat="43.94068" lon="0.26624">
        <ele>147.5</ele>
        <time>2018-04-27T10:28:04Z</time>
      </trkpt>
      <trkpt lat="43.94071" lon="0.26606">
        <ele>149.8</ele>
        <time>2018-04-27T10:28:20Z</time>
      </trkpt>
      <trkpt lat="43.94073" lon="0.26595">
        <ele>150.9</ele>
        <time>2018-04-27T10:28:28Z</time>
      </trkpt>
      <trkpt lat="43.94074" lon="0.26586">
        <ele>151.1</ele>
        <time>2018-04-27T10:28:34Z</time>
      </trkpt>
      <trkpt lat="43.94075" lon="0.26567">
        <ele>151.4</ele>
        <time>2018-04-27T10:28:49Z</time>
      </trkpt>
      <trkpt lat="43.94077" lon="0.26548">
        <ele>151.8</ele>
        <time>2018-04-27T10:29:04Z</time>
      </trkpt>
      <trkpt lat="43.9408" lon="0.26529">
        <ele>152.2</ele>
        <time>2018-04-27T10:29:17Z</time>
      </trkpt>
      <trkpt lat="43.94083" lon="0.2651">
        <ele>152.5</ele>
        <time>2018-04-27T10:29:30Z</time>
      </trkpt>
      <trkpt lat="43.94086" lon="0.26491">
        <ele>152.8</ele>
        <time>2018-04-27T10:29:44Z</time>
      </trkpt>
      <trkpt lat="43.94088" lon="0.2647">
        <ele>153.2</ele>
        <time>2018-04-27T10:29:58Z</time>
      </trkpt>
      <trkpt lat="43.94089" lon="0.2645">
        <ele>153.5</ele>
        <time>2018-04-27T10:30:12Z</time>
      </trkpt>
      <trkpt lat="43.94089" lon="0.2643">
        <ele>154</ele>
        <time>2018-04-27T10:30:28Z</time>
      </trkpt>
      <trkpt lat="43.94089" lon="0.2641">
        <ele>155.1</ele>
        <time>2018-04-27T10:30:43Z</time>
      </trkpt>
      <trkpt lat="43.94089" lon="0.2639">
        <ele>156.1</ele>
        <time>2018-04-27T10:30:57Z</time>
      </trkpt>
      <trkpt lat="43.9409" lon="0.26371">
        <ele>157.1</ele>
        <time>2018-04-27T10:31:11Z</time>
      </trkpt>
      <trkpt lat="43.9409" lon="0.26364">
        <ele>157.5</ele>
        <time>2018-04-27T10:31:16Z</time>
      </trkpt>
      <trkpt lat="43.94089" lon="0.26351">
        <ele>157.9</ele>
        <time>2018-04-27T10:31:26Z</time>
      </trkpt>
      <trkpt lat="43.94092" lon="0.26333">
        <ele>158.5</ele>
        <time>2018-04-27T10:31:39Z</time>
      </trkpt>
      <trkpt lat="43.94092" lon="0.26313">
        <ele>159.1</ele>
        <time>2018-04-27T10:31:53Z</time>
      </trkpt>
      <trkpt lat="43.94093" lon="0.26294">
        <ele>159.6</ele>
        <time>2018-04-27T10:32:06Z</time>
      </trkpt>
      <trkpt lat="43.94091" lon="0.26279">
        <ele>160.8</ele>
        <time>2018-04-27T10:32:35Z</time>
      </trkpt>
      <trkpt lat="43.94091" lon="0.26276">
        <ele>156.6</ele>
        <time>2018-04-27T10:32:41Z</time>
      </trkpt>
      <trkpt lat="43.9409" lon="0.26275">
        <ele>156.9</ele>
        <time>2018-04-27T10:32:43Z</time>
      </trkpt>
      <trkpt lat="43.94088" lon="0.26257">
        <ele>159.6</ele>
        <time>2018-04-27T10:32:57Z</time>
      </trkpt>
      <trkpt lat="43.94088" lon="0.26253">
        <ele>159.9</ele>
        <time>2018-04-27T10:32:59Z</time>
      </trkpt>
      <trkpt lat="43.94088" lon="0.26237">
        <ele>160.3</ele>
        <time>2018-04-27T10:33:10Z</time>
      </trkpt>
      <trkpt lat="43.94089" lon="0.26217">
        <ele>160.7</ele>
        <time>2018-04-27T10:33:23Z</time>
      </trkpt>
      <trkpt lat="43.94091" lon="0.26198">
        <ele>161.2</ele>
        <time>2018-04-27T10:33:37Z</time>
      </trkpt>
      <trkpt lat="43.94093" lon="0.2618">
        <ele>161.6</ele>
        <time>2018-04-27T10:33:50Z</time>
      </trkpt>
      <trkpt lat="43.94097" lon="0.26161">
        <ele>162</ele>
        <time>2018-04-27T10:34:03Z</time>
      </trkpt>
      <trkpt lat="43.941" lon="0.26141">
        <ele>162.4</ele>
        <time>2018-04-27T10:34:16Z</time>
      </trkpt>
      <trkpt lat="43.94107" lon="0.26124">
        <ele>162.8</ele>
        <time>2018-04-27T10:34:29Z</time>
      </trkpt>
      <trkpt lat="43.9411" lon="0.26116">
        <ele>163</ele>
        <time>2018-04-27T10:34:35Z</time>
      </trkpt>
      <trkpt lat="43.94113" lon="0.26107">
        <ele>162.9</ele>
        <time>2018-04-27T10:34:41Z</time>
      </trkpt>
      <trkpt lat="43.94119" lon="0.2609">
        <ele>162.8</ele>
        <time>2018-04-27T10:34:53Z</time>
      </trkpt>
      <trkpt lat="43.94125" lon="0.26072">
        <ele>162.7</ele>
        <time>2018-04-27T10:35:06Z</time>
      </trkpt>
      <trkpt lat="43.94131" lon="0.26055">
        <ele>162.5</ele>
        <time>2018-04-27T10:35:18Z</time>
      </trkpt>
      <trkpt lat="43.94138" lon="0.26037">
        <ele>162.4</ele>
        <time>2018-04-27T10:35:32Z</time>
      </trkpt>
      <trkpt lat="43.94145" lon="0.26021">
        <ele>162.2</ele>
        <time>2018-04-27T10:35:44Z</time>
      </trkpt>
      <trkpt lat="43.94153" lon="0.26004">
        <ele>162.1</ele>
        <time>2018-04-27T10:35:57Z</time>
      </trkpt>
      <trkpt lat="43.94159" lon="0.25987">
        <ele>161.9</ele>
        <time>2018-04-27T10:36:10Z</time>
      </trkpt>
      <trkpt lat="43.94166" lon="0.25969">
        <ele>161.8</ele>
        <time>2018-04-27T10:36:22Z</time>
      </trkpt>
      <trkpt lat="43.94171" lon="0.2595">
        <ele>161.6</ele>
        <time>2018-04-27T10:36:34Z</time>
      </trkpt>
      <trkpt lat="43.94177" lon="0.25932">
        <ele>161.5</ele>
        <time>2018-04-27T10:36:48Z</time>
      </trkpt>
      <trkpt lat="43.94183" lon="0.25914">
        <ele>161.3</ele>
        <time>2018-04-27T10:37:02Z</time>
      </trkpt>
      <trkpt lat="43.94191" lon="0.25897">
        <ele>161.2</ele>
        <time>2018-04-27T10:37:15Z</time>
      </trkpt>
      <trkpt lat="43.94196" lon="0.2588">
        <ele>161</ele>
        <time>2018-04-27T10:37:27Z</time>
      </trkpt>
      <trkpt lat="43.94201" lon="0.25861">
        <ele>160.9</ele>
        <time>2018-04-27T10:37:40Z</time>
      </trkpt>
      <trkpt lat="43.94207" lon="0.25843">
        <ele>160.7</ele>
        <time>2018-04-27T10:37:52Z</time>
      </trkpt>
      <trkpt lat="43.94213" lon="0.25825">
        <ele>160.6</ele>
        <time>2018-04-27T10:38:04Z</time>
      </trkpt>
      <trkpt lat="43.94219" lon="0.25807">
        <ele>160.5</ele>
        <time>2018-04-27T10:38:16Z</time>
      </trkpt>
      <trkpt lat="43.94223" lon="0.25789">
        <ele>160.3</ele>
        <time>2018-04-27T10:38:28Z</time>
      </trkpt>
      <trkpt lat="43.94228" lon="0.25771">
        <ele>160.2</ele>
        <time>2018-04-27T10:38:41Z</time>
      </trkpt>
      <trkpt lat="43.94234" lon="0.25753">
        <ele>160</ele>
        <time>2018-04-27T10:38:53Z</time>
      </trkpt>
      <trkpt lat="43.94236" lon="0.25744">
        <ele>160</ele>
        <time>2018-04-27T10:38:59Z</time>
      </trkpt>
      <trkpt lat="43.94238" lon="0.25734">
        <ele>159.9</ele>
        <time>2018-04-27T10:39:06Z</time>
      </trkpt>
      <trkpt lat="43.94243" lon="0.25716">
        <ele>159.8</ele>
        <time>2018-04-27T10:39:18Z</time>
      </trkpt>
      <trkpt lat="43.94248" lon="0.25699">
        <ele>159.7</ele>
        <time>2018-04-27T10:39:30Z</time>
      </trkpt>
      <trkpt lat="43.94254" lon="0.25682">
        <ele>159.6</ele>
        <time>2018-04-27T10:39:42Z</time>
      </trkpt>
      <trkpt lat="43.94258" lon="0.25664">
        <ele>159.5</ele>
        <time>2018-04-27T10:39:54Z</time>
      </trkpt>
      <trkpt lat="43.94263" lon="0.25646">
        <ele>159.4</ele>
        <time>2018-04-27T10:40:05Z</time>
      </trkpt>
      <trkpt lat="43.94269" lon="0.25629">
        <ele>159.3</ele>
        <time>2018-04-27T10:40:16Z</time>
      </trkpt>
      <trkpt lat="43.94273" lon="0.25611">
        <ele>159.2</ele>
        <time>2018-04-27T10:40:28Z</time>
      </trkpt>
      <trkpt lat="43.94279" lon="0.25592">
        <ele>159.1</ele>
        <time>2018-04-27T10:40:41Z</time>
      </trkpt>
      <trkpt lat="43.94283" lon="0.25574">
        <ele>159</ele>
        <time>2018-04-27T10:40:53Z</time>
      </trkpt>
      <trkpt lat="43.94289" lon="0.25556">
        <ele>158.9</ele>
        <time>2018-04-27T10:41:05Z</time>
      </trkpt>
      <trkpt lat="43.94296" lon="0.25538">
        <ele>158.8</ele>
        <time>2018-04-27T10:41:18Z</time>
      </trkpt>
      <trkpt lat="43.94302" lon="0.2552">
        <ele>158.7</ele>
        <time>2018-04-27T10:41:30Z</time>
      </trkpt>
      <trkpt lat="43.94307" lon="0.25503">
        <ele>158.5</ele>
        <time>2018-04-27T10:41:42Z</time>
      </trkpt>
      <trkpt lat="43.94311" lon="0.25484">
        <ele>158.4</ele>
        <time>2018-04-27T10:41:54Z</time>
      </trkpt>
      <trkpt lat="43.94317" lon="0.25466">
        <ele>158.3</ele>
        <time>2018-04-27T10:42:06Z</time>
      </trkpt>
      <trkpt lat="43.94324" lon="0.25448">
        <ele>158.2</ele>
        <time>2018-04-27T10:42:18Z</time>
      </trkpt>
      <trkpt lat="43.94329" lon="0.2543">
        <ele>157.8</ele>
        <time>2018-04-27T10:43:12Z</time>
      </trkpt>
      <trkpt lat="43.94334" lon="0.25412">
        <ele>157.7</ele>
        <time>2018-04-27T10:43:23Z</time>
      </trkpt>
      <trkpt lat="43.94338" lon="0.25393">
        <ele>157.6</ele>
        <time>2018-04-27T10:43:34Z</time>
      </trkpt>
      <trkpt lat="43.9434" lon="0.25374">
        <ele>157.5</ele>
        <time>2018-04-27T10:43:45Z</time>
      </trkpt>
      <trkpt lat="43.94345" lon="0.25357">
        <ele>157.4</ele>
        <time>2018-04-27T10:43:56Z</time>
      </trkpt>
      <trkpt lat="43.9435" lon="0.25338">
        <ele>157.3</ele>
        <time>2018-04-27T10:44:07Z</time>
      </trkpt>
      <trkpt lat="43.94353" lon="0.25319">
        <ele>157.2</ele>
        <time>2018-04-27T10:44:19Z</time>
      </trkpt>
      <trkpt lat="43.94358" lon="0.253">
        <ele>157.1</ele>
        <time>2018-04-27T10:44:31Z</time>
      </trkpt>
      <trkpt lat="43.94363" lon="0.25282">
        <ele>157</ele>
        <time>2018-04-27T10:44:43Z</time>
      </trkpt>
      <trkpt lat="43.94371" lon="0.25267">
        <ele>156.9</ele>
        <time>2018-04-27T10:44:53Z</time>
      </trkpt>
      <trkpt lat="43.94379" lon="0.25251">
        <ele>156.9</ele>
        <time>2018-04-27T10:45:04Z</time>
      </trkpt>
      <trkpt lat="43.94386" lon="0.25235">
        <ele>156.9</ele>
        <time>2018-04-27T10:45:15Z</time>
      </trkpt>
      <trkpt lat="43.94392" lon="0.25219">
        <ele>156.8</ele>
        <time>2018-04-27T10:45:27Z</time>
      </trkpt>
      <trkpt lat="43.944" lon="0.25202">
        <ele>156.8</ele>
        <time>2018-04-27T10:45:38Z</time>
      </trkpt>
      <trkpt lat="43.94409" lon="0.25186">
        <ele>156.7</ele>
        <time>2018-04-27T10:45:50Z</time>
      </trkpt>
      <trkpt lat="43.94416" lon="0.25169">
        <ele>156.7</ele>
        <time>2018-04-27T10:46:02Z</time>
      </trkpt>
      <trkpt lat="43.94427" lon="0.25154">
        <ele>156.6</ele>
        <time>2018-04-27T10:46:12Z</time>
      </trkpt>
      <trkpt lat="43.94436" lon="0.25141">
        <ele>156.6</ele>
        <time>2018-04-27T10:46:23Z</time>
      </trkpt>
      <trkpt lat="43.94446" lon="0.25127">
        <ele>156.6</ele>
        <time>2018-04-27T10:46:36Z</time>
      </trkpt>
      <trkpt lat="43.94458" lon="0.25116">
        <ele>156.5</ele>
        <time>2018-04-27T10:46:49Z</time>
      </trkpt>
      <trkpt lat="43.94469" lon="0.25107">
        <ele>156.5</ele>
        <time>2018-04-27T10:47:01Z</time>
      </trkpt>
      <trkpt lat="43.94481" lon="0.25096">
        <ele>156.4</ele>
        <time>2018-04-27T10:47:14Z</time>
      </trkpt>
      <trkpt lat="43.94493" lon="0.25087">
        <ele>156.4</ele>
        <time>2018-04-27T10:47:25Z</time>
      </trkpt>
      <trkpt lat="43.94505" lon="0.25078">
        <ele>156.3</ele>
        <time>2018-04-27T10:47:38Z</time>
      </trkpt>
      <trkpt lat="43.94517" lon="0.25068">
        <ele>156.3</ele>
        <time>2018-04-27T10:47:51Z</time>
      </trkpt>
      <trkpt lat="43.94529" lon="0.25059">
        <ele>156.2</ele>
        <time>2018-04-27T10:48:03Z</time>
      </trkpt>
      <trkpt lat="43.94541" lon="0.25049">
        <ele>156.2</ele>
        <time>2018-04-27T10:48:16Z</time>
      </trkpt>
      <trkpt lat="43.94553" lon="0.25039">
        <ele>156.1</ele>
        <time>2018-04-27T10:48:28Z</time>
      </trkpt>
      <trkpt lat="43.94564" lon="0.25029">
        <ele>156.1</ele>
        <time>2018-04-27T10:48:39Z</time>
      </trkpt>
      <trkpt lat="43.94576" lon="0.25019">
        <ele>155.9</ele>
        <time>2018-04-27T10:49:32Z</time>
      </trkpt>
      <trkpt lat="43.94588" lon="0.25008">
        <ele>155.9</ele>
        <time>2018-04-27T10:49:44Z</time>
      </trkpt>
      <trkpt lat="43.946" lon="0.24999">
        <ele>155.8</ele>
        <time>2018-04-27T10:49:54Z</time>
      </trkpt>
      <trkpt lat="43.9461" lon="0.24986">
        <ele>155.8</ele>
        <time>2018-04-27T10:50:05Z</time>
      </trkpt>
      <trkpt lat="43.9462" lon="0.24973">
        <ele>155.7</ele>
        <time>2018-04-27T10:50:16Z</time>
      </trkpt>
      <trkpt lat="43.94631" lon="0.24961">
        <ele>155.7</ele>
        <time>2018-04-27T10:50:27Z</time>
      </trkpt>
      <trkpt lat="43.94642" lon="0.2495">
        <ele>155.7</ele>
        <time>2018-04-27T10:50:36Z</time>
      </trkpt>
      <trkpt lat="43.94653" lon="0.24938">
        <ele>155.6</ele>
        <time>2018-04-27T10:50:45Z</time>
      </trkpt>
      <trkpt lat="43.94664" lon="0.24924">
        <ele>155.6</ele>
        <time>2018-04-27T10:50:56Z</time>
      </trkpt>
      <trkpt lat="43.94675" lon="0.24913">
        <ele>155.5</ele>
        <time>2018-04-27T10:51:07Z</time>
      </trkpt>
      <trkpt lat="43.94685" lon="0.24901">
        <ele>155.5</ele>
        <time>2018-04-27T10:51:17Z</time>
      </trkpt>
      <trkpt lat="43.94696" lon="0.24887">
        <ele>155.5</ele>
        <time>2018-04-27T10:51:29Z</time>
      </trkpt>
      <trkpt lat="43.94706" lon="0.24873">
        <ele>155.4</ele>
        <time>2018-04-27T10:51:43Z</time>
      </trkpt>
      <trkpt lat="43.94716" lon="0.24859">
        <ele>155.4</ele>
        <time>2018-04-27T10:51:58Z</time>
      </trkpt>
      <trkpt lat="43.94724" lon="0.24842">
        <ele>155.3</ele>
        <time>2018-04-27T10:52:11Z</time>
      </trkpt>
      <trkpt lat="43.94733" lon="0.24827">
        <ele>155.3</ele>
        <time>2018-04-27T10:52:24Z</time>
      </trkpt>
      <trkpt lat="43.94742" lon="0.24813">
        <ele>155.2</ele>
        <time>2018-04-27T10:52:36Z</time>
      </trkpt>
      <trkpt lat="43.94752" lon="0.24799">
        <ele>155.2</ele>
        <time>2018-04-27T10:52:50Z</time>
      </trkpt>
      <trkpt lat="43.94764" lon="0.24787">
        <ele>155.1</ele>
        <time>2018-04-27T10:53:01Z</time>
      </trkpt>
      <trkpt lat="43.94776" lon="0.24777">
        <ele>155.1</ele>
        <time>2018-04-27T10:53:13Z</time>
      </trkpt>
      <trkpt lat="43.94787" lon="0.24766">
        <ele>155</ele>
        <time>2018-04-27T10:53:26Z</time>
      </trkpt>
      <trkpt lat="43.94799" lon="0.24754">
        <ele>155</ele>
        <time>2018-04-27T10:53:39Z</time>
      </trkpt>
      <trkpt lat="43.9481" lon="0.24744">
        <ele>154.9</ele>
        <time>2018-04-27T10:53:51Z</time>
      </trkpt>
      <trkpt lat="43.94821" lon="0.24732">
        <ele>154.9</ele>
        <time>2018-04-27T10:54:03Z</time>
      </trkpt>
      <trkpt lat="43.94832" lon="0.24719">
        <ele>154.8</ele>
        <time>2018-04-27T10:54:17Z</time>
      </trkpt>
      <trkpt lat="43.94841" lon="0.24705">
        <ele>154.8</ele>
        <time>2018-04-27T10:54:29Z</time>
      </trkpt>
      <trkpt lat="43.94851" lon="0.24691">
        <ele>154.7</ele>
        <time>2018-04-27T10:54:42Z</time>
      </trkpt>
      <trkpt lat="43.94859" lon="0.24675">
        <ele>154.6</ele>
        <time>2018-04-27T10:55:15Z</time>
      </trkpt>
      <trkpt lat="43.94867" lon="0.2466">
        <ele>154.6</ele>
        <time>2018-04-27T10:55:28Z</time>
      </trkpt>
      <trkpt lat="43.94875" lon="0.24645">
        <ele>154.5</ele>
        <time>2018-04-27T10:55:39Z</time>
      </trkpt>
      <trkpt lat="43.94884" lon="0.24629">
        <ele>154.5</ele>
        <time>2018-04-27T10:55:51Z</time>
      </trkpt>
      <trkpt lat="43.94894" lon="0.24616">
        <ele>154.5</ele>
        <time>2018-04-27T10:56:00Z</time>
      </trkpt>
      <trkpt lat="43.94904" lon="0.24602">
        <ele>154.4</ele>
        <time>2018-04-27T10:56:11Z</time>
      </trkpt>
      <trkpt lat="43.94912" lon="0.24586">
        <ele>154.4</ele>
        <time>2018-04-27T10:56:21Z</time>
      </trkpt>
      <trkpt lat="43.94921" lon="0.24571">
        <ele>154.3</ele>
        <time>2018-04-27T10:56:31Z</time>
      </trkpt>
      <trkpt lat="43.94929" lon="0.24555">
        <ele>154.3</ele>
        <time>2018-04-27T10:56:41Z</time>
      </trkpt>
      <trkpt lat="43.94938" lon="0.24539">
        <ele>154.3</ele>
        <time>2018-04-27T10:56:53Z</time>
      </trkpt>
      <trkpt lat="43.94947" lon="0.24523">
        <ele>154.2</ele>
        <time>2018-04-27T10:57:05Z</time>
      </trkpt>
      <trkpt lat="43.94956" lon="0.24509">
        <ele>154.2</ele>
        <time>2018-04-27T10:57:17Z</time>
      </trkpt>
      <trkpt lat="43.94964" lon="0.24494">
        <ele>154.1</ele>
        <time>2018-04-27T10:57:30Z</time>
      </trkpt>
      <trkpt lat="43.94969" lon="0.24476">
        <ele>154.1</ele>
        <time>2018-04-27T10:57:42Z</time>
      </trkpt>
      <trkpt lat="43.94974" lon="0.24458">
        <ele>154</ele>
        <time>2018-04-27T10:57:56Z</time>
      </trkpt>
      <trkpt lat="43.94979" lon="0.24439">
        <ele>154</ele>
        <time>2018-04-27T10:58:08Z</time>
      </trkpt>
      <trkpt lat="43.94985" lon="0.24424">
        <ele>153.9</ele>
        <time>2018-04-27T10:58:29Z</time>
      </trkpt>
      <trkpt lat="43.94986" lon="0.24422">
        <ele>153.5</ele>
        <time>2018-04-27T10:58:31Z</time>
      </trkpt>
      <trkpt lat="43.94988" lon="0.24403">
        <ele>151.3</ele>
        <time>2018-04-27T10:58:43Z</time>
      </trkpt>
      <trkpt lat="43.94989" lon="0.24395">
        <ele>150.6</ele>
        <time>2018-04-27T10:58:47Z</time>
      </trkpt>
      <trkpt lat="43.9499" lon="0.24383">
        <ele>150.2</ele>
        <time>2018-04-27T10:58:54Z</time>
      </trkpt>
      <trkpt lat="43.94995" lon="0.24364">
        <ele>149.5</ele>
        <time>2018-04-27T10:59:05Z</time>
      </trkpt>
      <trkpt lat="43.95" lon="0.24346">
        <ele>148.9</ele>
        <time>2018-04-27T10:59:16Z</time>
      </trkpt>
      <trkpt lat="43.95004" lon="0.24328">
        <ele>148.2</ele>
        <time>2018-04-27T10:59:27Z</time>
      </trkpt>
      <trkpt lat="43.95006" lon="0.24309">
        <ele>147.6</ele>
        <time>2018-04-27T10:59:37Z</time>
      </trkpt>
      <trkpt lat="43.95009" lon="0.24303">
        <ele>147.4</ele>
        <time>2018-04-27T10:59:41Z</time>
      </trkpt>
      <trkpt lat="43.95013" lon="0.24292">
        <ele>147.2</ele>
        <time>2018-04-27T10:59:49Z</time>
      </trkpt>
      <trkpt lat="43.95016" lon="0.24274">
        <ele>146.9</ele>
        <time>2018-04-27T11:00:00Z</time>
      </trkpt>
      <trkpt lat="43.95021" lon="0.24255">
        <ele>146.6</ele>
        <time>2018-04-27T11:00:13Z</time>
      </trkpt>
      <trkpt lat="43.95023" lon="0.24235">
        <ele>146.3</ele>
        <time>2018-04-27T11:00:24Z</time>
      </trkpt>
      <trkpt lat="43.95035" lon="0.24223">
        <ele>146.1</ele>
        <time>2018-04-27T11:00:35Z</time>
      </trkpt>
      <trkpt lat="43.95038" lon="0.24204">
        <ele>145.8</ele>
        <time>2018-04-27T11:00:48Z</time>
      </trkpt>
      <trkpt lat="43.95039" lon="0.24184">
        <ele>145.4</ele>
        <time>2018-04-27T11:01:03Z</time>
      </trkpt>
      <trkpt lat="43.9504" lon="0.24164">
        <ele>145.1</ele>
        <time>2018-04-27T11:01:14Z</time>
      </trkpt>
      <trkpt lat="43.95041" lon="0.24144">
        <ele>144.8</ele>
        <time>2018-04-27T11:01:28Z</time>
      </trkpt>
      <trkpt lat="43.95036" lon="0.24125">
        <ele>144.4</ele>
        <time>2018-04-27T11:01:41Z</time>
      </trkpt>
      <trkpt lat="43.95033" lon="0.24105">
        <ele>144.1</ele>
        <time>2018-04-27T11:01:54Z</time>
      </trkpt>
      <trkpt lat="43.95032" lon="0.24085">
        <ele>143.8</ele>
        <time>2018-04-27T11:02:06Z</time>
      </trkpt>
      <trkpt lat="43.95029" lon="0.24074">
        <ele>143.6</ele>
        <time>2018-04-27T11:02:13Z</time>
      </trkpt>
      <trkpt lat="43.95028" lon="0.24067">
        <ele>143.4</ele>
        <time>2018-04-27T11:02:17Z</time>
      </trkpt>
      <trkpt lat="43.95024" lon="0.24049">
        <ele>142.5</ele>
        <time>2018-04-27T11:02:28Z</time>
      </trkpt>
      <trkpt lat="43.95014" lon="0.24035">
        <ele>140.6</ele>
        <time>2018-04-27T11:02:54Z</time>
      </trkpt>
      <trkpt lat="43.9501" lon="0.24027">
        <ele>140.1</ele>
        <time>2018-04-27T11:03:01Z</time>
      </trkpt>
      <trkpt lat="43.95006" lon="0.24019">
        <ele>139.1</ele>
        <time>2018-04-27T11:03:08Z</time>
      </trkpt>
      <trkpt lat="43.95003" lon="0.24">
        <ele>137.5</ele>
        <time>2018-04-27T11:03:19Z</time>
      </trkpt>
      <trkpt lat="43.95001" lon="0.23992">
        <ele>136.6</ele>
        <time>2018-04-27T11:03:25Z</time>
      </trkpt>
      <trkpt lat="43.94998" lon="0.23982">
        <ele>135.6</ele>
        <time>2018-04-27T11:03:32Z</time>
      </trkpt>
      <trkpt lat="43.94998" lon="0.23967">
        <ele>134.1</ele>
        <time>2018-04-27T11:03:43Z</time>
      </trkpt>
      <trkpt lat="43.94998" lon="0.23962">
        <ele>133.8</ele>
        <time>2018-04-27T11:03:46Z</time>
      </trkpt>
      <trkpt lat="43.94997" lon="0.23943">
        <ele>132.4</ele>
        <time>2018-04-27T11:04:01Z</time>
      </trkpt>
      <trkpt lat="43.94997" lon="0.23934">
        <ele>131.9</ele>
        <time>2018-04-27T11:04:07Z</time>
      </trkpt>
      <trkpt lat="43.94997" lon="0.23922">
        <ele>131.3</ele>
        <time>2018-04-27T11:04:15Z</time>
      </trkpt>
      <trkpt lat="43.94998" lon="0.23902">
        <ele>130.3</ele>
        <time>2018-04-27T11:04:29Z</time>
      </trkpt>
      <trkpt lat="43.94999" lon="0.23882">
        <ele>129</ele>
        <time>2018-04-27T11:04:46Z</time>
      </trkpt>
      <trkpt lat="43.94999" lon="0.23864">
        <ele>128.4</ele>
        <time>2018-04-27T11:04:55Z</time>
      </trkpt>
      <trkpt lat="43.94998" lon="0.23845">
        <ele>126.9</ele>
        <time>2018-04-27T11:05:08Z</time>
      </trkpt>
      <trkpt lat="43.94997" lon="0.23826">
        <ele>125.3</ele>
        <time>2018-04-27T11:05:22Z</time>
      </trkpt>
      <trkpt lat="43.94997" lon="0.23821">
        <ele>124.9</ele>
        <time>2018-04-27T11:05:25Z</time>
      </trkpt>
      <trkpt lat="43.94999" lon="0.23807">
        <ele>123.8</ele>
        <time>2018-04-27T11:05:34Z</time>
      </trkpt>
      <trkpt lat="43.95" lon="0.23787">
        <ele>121.8</ele>
        <time>2018-04-27T11:05:50Z</time>
      </trkpt>
      <trkpt lat="43.94999" lon="0.23778">
        <ele>121.2</ele>
        <time>2018-04-27T11:05:55Z</time>
      </trkpt>
      <trkpt lat="43.94998" lon="0.23766">
        <ele>120.1</ele>
        <time>2018-04-27T11:06:02Z</time>
      </trkpt>
      <trkpt lat="43.94997" lon="0.23761">
        <ele>119.7</ele>
        <time>2018-04-27T11:06:05Z</time>
      </trkpt>
      <trkpt lat="43.94995" lon="0.23747">
        <ele>118.9</ele>
        <time>2018-04-27T11:06:13Z</time>
      </trkpt>
      <trkpt lat="43.94994" lon="0.23728">
        <ele>117.8</ele>
        <time>2018-04-27T11:06:25Z</time>
      </trkpt>
      <trkpt lat="43.94994" lon="0.23727">
        <ele>117.7</ele>
        <time>2018-04-27T11:06:26Z</time>
      </trkpt>
      <trkpt lat="43.94991" lon="0.23707">
        <ele>116.8</ele>
        <time>2018-04-27T11:06:40Z</time>
      </trkpt>
      <trkpt lat="43.94991" lon="0.23689">
        <ele>116.1</ele>
        <time>2018-04-27T11:06:51Z</time>
      </trkpt>
      <trkpt lat="43.94989" lon="0.2367">
        <ele>115.3</ele>
        <time>2018-04-27T11:07:05Z</time>
      </trkpt>
      <trkpt lat="43.94986" lon="0.23651">
        <ele>114.5</ele>
        <time>2018-04-27T11:07:18Z</time>
      </trkpt>
      <trkpt lat="43.94986" lon="0.23646">
        <ele>114.3</ele>
        <time>2018-04-27T11:07:21Z</time>
      </trkpt>
      <trkpt lat="43.94986" lon="0.23632">
        <ele>112.9</ele>
        <time>2018-04-27T11:07:31Z</time>
      </trkpt>
      <trkpt lat="43.94988" lon="0.23612">
        <ele>110.9</ele>
        <time>2018-04-27T11:07:46Z</time>
      </trkpt>
      <trkpt lat="43.94989" lon="0.23609">
        <ele>110.6</ele>
        <time>2018-04-27T11:07:48Z</time>
      </trkpt>
      <trkpt lat="43.9499" lon="0.236">
        <ele>109.9</ele>
        <time>2018-04-27T11:07:54Z</time>
      </trkpt>
      <trkpt lat="43.94991" lon="0.23593">
        <ele>109.6</ele>
        <time>2018-04-27T11:07:58Z</time>
      </trkpt>
      <trkpt lat="43.94991" lon="0.2359">
        <ele>109.5</ele>
        <time>2018-04-27T11:08:00Z</time>
      </trkpt>
      <trkpt lat="43.94991" lon="0.23574">
        <ele>108.9</ele>
        <time>2018-04-27T11:08:11Z</time>
      </trkpt>
      <trkpt lat="43.94994" lon="0.23555">
        <ele>108.2</ele>
        <time>2018-04-27T11:08:27Z</time>
      </trkpt>
      <trkpt lat="43.94996" lon="0.23535">
        <ele>107.6</ele>
        <time>2018-04-27T11:08:39Z</time>
      </trkpt>
      <trkpt lat="43.94999" lon="0.23515">
        <ele>107.1</ele>
        <time>2018-04-27T11:08:50Z</time>
      </trkpt>
      <trkpt lat="43.95004" lon="0.23497">
        <ele>106.6</ele>
        <time>2018-04-27T11:09:02Z</time>
      </trkpt>
      <trkpt lat="43.95004" lon="0.23491">
        <ele>106.4</ele>
        <time>2018-04-27T11:09:06Z</time>
      </trkpt>
      <trkpt lat="43.95004" lon="0.23479">
        <ele>106.7</ele>
        <time>2018-04-27T11:09:14Z</time>
      </trkpt>
      <trkpt lat="43.95008" lon="0.2346">
        <ele>107.1</ele>
        <time>2018-04-27T11:09:26Z</time>
      </trkpt>
      <trkpt lat="43.9501" lon="0.23441">
        <ele>107.6</ele>
        <time>2018-04-27T11:09:39Z</time>
      </trkpt>
      <trkpt lat="43.9501" lon="0.23421">
        <ele>108.1</ele>
        <time>2018-04-27T11:09:54Z</time>
      </trkpt>
      <trkpt lat="43.9501" lon="0.23402">
        <ele>108.5</ele>
        <time>2018-04-27T11:10:06Z</time>
      </trkpt>
      <trkpt lat="43.95011" lon="0.23382">
        <ele>109</ele>
        <time>2018-04-27T11:10:18Z</time>
      </trkpt>
      <trkpt lat="43.95012" lon="0.23363">
        <ele>109.5</ele>
        <time>2018-04-27T11:10:32Z</time>
      </trkpt>
      <trkpt lat="43.95012" lon="0.23357">
        <ele>109.6</ele>
        <time>2018-04-27T11:10:36Z</time>
      </trkpt>
      <trkpt lat="43.95012" lon="0.23343">
        <ele>110.4</ele>
        <time>2018-04-27T11:10:46Z</time>
      </trkpt>
      <trkpt lat="43.9501" lon="0.23323">
        <ele>111.5</ele>
        <time>2018-04-27T11:10:59Z</time>
      </trkpt>
      <trkpt lat="43.95009" lon="0.23304">
        <ele>112.7</ele>
        <time>2018-04-27T11:11:14Z</time>
      </trkpt>
      <trkpt lat="43.9501" lon="0.23299">
        <ele>113</ele>
        <time>2018-04-27T11:11:18Z</time>
      </trkpt>
      <trkpt lat="43.9501" lon="0.23284">
        <ele>114.4</ele>
        <time>2018-04-27T11:11:30Z</time>
      </trkpt>
      <trkpt lat="43.95012" lon="0.23264">
        <ele>116.2</ele>
        <time>2018-04-27T11:11:46Z</time>
      </trkpt>
      <trkpt lat="43.95012" lon="0.23262">
        <ele>116.4</ele>
        <time>2018-04-27T11:11:48Z</time>
      </trkpt>
      <trkpt lat="43.95013" lon="0.23246">
        <ele>119</ele>
        <time>2018-04-27T11:12:03Z</time>
      </trkpt>
      <trkpt lat="43.95014" lon="0.23242">
        <ele>119.5</ele>
        <time>2018-04-27T11:12:06Z</time>
      </trkpt>
      <trkpt lat="43.95016" lon="0.23227">
        <ele>120.6</ele>
        <time>2018-04-27T11:12:17Z</time>
      </trkpt>
      <trkpt lat="43.95017" lon="0.23208">
        <ele>122</ele>
        <time>2018-04-27T11:12:31Z</time>
      </trkpt>
      <trkpt lat="43.95018" lon="0.23188">
        <ele>123.1</ele>
        <time>2018-04-27T11:12:42Z</time>
      </trkpt>
      <trkpt lat="43.9502" lon="0.23169">
        <ele>124.3</ele>
        <time>2018-04-27T11:12:54Z</time>
      </trkpt>
      <trkpt lat="43.95021" lon="0.2315">
        <ele>125.6</ele>
        <time>2018-04-27T11:13:06Z</time>
      </trkpt>
      <trkpt lat="43.9502" lon="0.23141">
        <ele>126.2</ele>
        <time>2018-04-27T11:13:12Z</time>
      </trkpt>
      <trkpt lat="43.95019" lon="0.2313">
        <ele>127.1</ele>
        <time>2018-04-27T11:13:20Z</time>
      </trkpt>
      <trkpt lat="43.95019" lon="0.2311">
        <ele>128.6</ele>
        <time>2018-04-27T11:13:34Z</time>
      </trkpt>
      <trkpt lat="43.95019" lon="0.231">
        <ele>129.4</ele>
        <time>2018-04-27T11:13:42Z</time>
      </trkpt>
      <trkpt lat="43.95019" lon="0.23091">
        <ele>130.2</ele>
        <time>2018-04-27T11:13:49Z</time>
      </trkpt>
      <trkpt lat="43.95023" lon="0.23073">
        <ele>131.5</ele>
        <time>2018-04-27T11:14:00Z</time>
      </trkpt>
      <trkpt lat="43.95026" lon="0.23057">
        <ele>132.7</ele>
        <time>2018-04-27T11:14:12Z</time>
      </trkpt>
      <trkpt lat="43.95027" lon="0.23055">
        <ele>131.6</ele>
        <time>2018-04-27T11:14:14Z</time>
      </trkpt>
      <trkpt lat="43.95028" lon="0.23049">
        <ele>129.4</ele>
        <time>2018-04-27T11:14:18Z</time>
      </trkpt>
      <trkpt lat="43.9503" lon="0.23036">
        <ele>127.1</ele>
        <time>2018-04-27T11:14:26Z</time>
      </trkpt>
      <trkpt lat="43.9503" lon="0.23032">
        <ele>126.3</ele>
        <time>2018-04-27T11:14:29Z</time>
      </trkpt>
      <trkpt lat="43.95029" lon="0.23017">
        <ele>127</ele>
        <time>2018-04-27T11:14:39Z</time>
      </trkpt>
      <trkpt lat="43.95028" lon="0.22997">
        <ele>127.9</ele>
        <time>2018-04-27T11:14:54Z</time>
      </trkpt>
      <trkpt lat="43.95028" lon="0.22977">
        <ele>128.8</ele>
        <time>2018-04-27T11:15:07Z</time>
      </trkpt>
      <trkpt lat="43.9503" lon="0.22958">
        <ele>129.5</ele>
        <time>2018-04-27T11:15:19Z</time>
      </trkpt>
      <trkpt lat="43.9503" lon="0.22956">
        <ele>129.6</ele>
        <time>2018-04-27T11:15:20Z</time>
      </trkpt>
      <trkpt lat="43.9503" lon="0.22937">
        <ele>130.3</ele>
        <time>2018-04-27T11:15:32Z</time>
      </trkpt>
      <trkpt lat="43.95028" lon="0.22918">
        <ele>131</ele>
        <time>2018-04-27T11:15:44Z</time>
      </trkpt>
      <trkpt lat="43.95027" lon="0.22899">
        <ele>131.9</ele>
        <time>2018-04-27T11:15:58Z</time>
      </trkpt>
      <trkpt lat="43.95027" lon="0.22887">
        <ele>132.8</ele>
        <time>2018-04-27T11:16:14Z</time>
      </trkpt>
      <trkpt lat="43.95027" lon="0.22881">
        <ele>133</ele>
        <time>2018-04-27T11:16:23Z</time>
      </trkpt>
      <trkpt lat="43.95028" lon="0.22869">
        <ele>133.5</ele>
        <time>2018-04-27T11:16:43Z</time>
      </trkpt>
      <trkpt lat="43.9503" lon="0.22849">
        <ele>134.9</ele>
        <time>2018-04-27T11:17:44Z</time>
      </trkpt>
      <trkpt lat="43.95033" lon="0.22831">
        <ele>135.1</ele>
        <time>2018-04-27T11:17:55Z</time>
      </trkpt>
      <trkpt lat="43.95037" lon="0.22812">
        <ele>135.5</ele>
        <time>2018-04-27T11:18:09Z</time>
      </trkpt>
      <trkpt lat="43.9504" lon="0.22793">
        <ele>135.8</ele>
        <time>2018-04-27T11:18:24Z</time>
      </trkpt>
      <trkpt lat="43.9504" lon="0.2279">
        <ele>135.8</ele>
        <time>2018-04-27T11:18:26Z</time>
      </trkpt>
      <trkpt lat="43.95043" lon="0.22774">
        <ele>136</ele>
        <time>2018-04-27T11:18:37Z</time>
      </trkpt>
      <trkpt lat="43.95047" lon="0.22756">
        <ele>136.8</ele>
        <time>2018-04-27T11:19:27Z</time>
      </trkpt>
      <trkpt lat="43.9505" lon="0.22736">
        <ele>136.9</ele>
        <time>2018-04-27T11:19:39Z</time>
      </trkpt>
      <trkpt lat="43.95053" lon="0.22717">
        <ele>137.1</ele>
        <time>2018-04-27T11:19:51Z</time>
      </trkpt>
      <trkpt lat="43.95059" lon="0.22699">
        <ele>137.3</ele>
        <time>2018-04-27T11:20:02Z</time>
      </trkpt>
      <trkpt lat="43.95063" lon="0.2268">
        <ele>137.4</ele>
        <time>2018-04-27T11:20:12Z</time>
      </trkpt>
      <trkpt lat="43.95067" lon="0.22661">
        <ele>137.6</ele>
        <time>2018-04-27T11:20:23Z</time>
      </trkpt>
      <trkpt lat="43.9507" lon="0.22641">
        <ele>137.8</ele>
        <time>2018-04-27T11:20:34Z</time>
      </trkpt>
      <trkpt lat="43.95074" lon="0.22622">
        <ele>137.9</ele>
        <time>2018-04-27T11:20:45Z</time>
      </trkpt>
      <trkpt lat="43.95078" lon="0.22603">
        <ele>138.1</ele>
        <time>2018-04-27T11:20:56Z</time>
      </trkpt>
      <trkpt lat="43.95081" lon="0.22585">
        <ele>138.2</ele>
        <time>2018-04-27T11:21:06Z</time>
      </trkpt>
      <trkpt lat="43.95085" lon="0.22566">
        <ele>138.4</ele>
        <time>2018-04-27T11:21:17Z</time>
      </trkpt>
      <trkpt lat="43.95091" lon="0.22547">
        <ele>138.6</ele>
        <time>2018-04-27T11:21:29Z</time>
      </trkpt>
      <trkpt lat="43.95093" lon="0.22528">
        <ele>138.8</ele>
        <time>2018-04-27T11:21:43Z</time>
      </trkpt>
      <trkpt lat="43.95098" lon="0.2251">
        <ele>139</ele>
        <time>2018-04-27T11:21:58Z</time>
      </trkpt>
      <trkpt lat="43.95104" lon="0.22492">
        <ele>140.5</ele>
        <time>2018-04-27T11:22:13Z</time>
      </trkpt>
      <trkpt lat="43.95104" lon="0.22471">
        <ele>142.3</ele>
        <time>2018-04-27T11:22:32Z</time>
      </trkpt>
      <trkpt lat="43.95104" lon="0.22468">
        <ele>142.5</ele>
        <time>2018-04-27T11:22:34Z</time>
      </trkpt>
      <trkpt lat="43.95106" lon="0.22459">
        <ele>143.2</ele>
        <time>2018-04-27T11:22:41Z</time>
      </trkpt>
      <trkpt lat="43.95091" lon="0.22458">
        <ele>144.6</ele>
        <time>2018-04-27T11:22:55Z</time>
      </trkpt>
      <trkpt lat="43.95084" lon="0.22454">
        <ele>145.5</ele>
        <time>2018-04-27T11:23:04Z</time>
      </trkpt>
      <trkpt lat="43.95078" lon="0.22452">
        <ele>146.2</ele>
        <time>2018-04-27T11:23:10Z</time>
      </trkpt>
      <trkpt lat="43.95065" lon="0.22445">
        <ele>147.7</ele>
        <time>2018-04-27T11:23:24Z</time>
      </trkpt>
      <trkpt lat="43.95054" lon="0.2244">
        <ele>148.8</ele>
        <time>2018-04-27T11:23:34Z</time>
      </trkpt>
      <trkpt lat="43.95052" lon="0.22439">
        <ele>149</ele>
        <time>2018-04-27T11:23:36Z</time>
      </trkpt>
      <trkpt lat="43.95038" lon="0.22433">
        <ele>149.9</ele>
        <time>2018-04-27T11:23:48Z</time>
      </trkpt>
      <trkpt lat="43.95027" lon="0.22422">
        <ele>151</ele>
        <time>2018-04-27T11:24:02Z</time>
      </trkpt>
      <trkpt lat="43.95017" lon="0.22407">
        <ele>152</ele>
        <time>2018-04-27T11:24:14Z</time>
      </trkpt>
      <trkpt lat="43.95016" lon="0.22405">
        <ele>152.2</ele>
        <time>2018-04-27T11:24:16Z</time>
      </trkpt>
      <trkpt lat="43.95012" lon="0.2239">
        <ele>153</ele>
        <time>2018-04-27T11:24:29Z</time>
      </trkpt>
      <trkpt lat="43.95002" lon="0.22375">
        <ele>153.9</ele>
        <time>2018-04-27T11:24:42Z</time>
      </trkpt>
      <trkpt lat="43.94997" lon="0.22357">
        <ele>154.8</ele>
        <time>2018-04-27T11:24:57Z</time>
      </trkpt>
      <trkpt lat="43.94992" lon="0.22349">
        <ele>155.3</ele>
        <time>2018-04-27T11:25:04Z</time>
      </trkpt>
      <trkpt lat="43.94987" lon="0.22342">
        <ele>155.4</ele>
        <time>2018-04-27T11:25:10Z</time>
      </trkpt>
      <trkpt lat="43.94979" lon="0.22325">
        <ele>155.7</ele>
        <time>2018-04-27T11:25:21Z</time>
      </trkpt>
      <trkpt lat="43.94973" lon="0.22308">
        <ele>156</ele>
        <time>2018-04-27T11:25:35Z</time>
      </trkpt>
      <trkpt lat="43.9497" lon="0.22307">
        <ele>156.1</ele>
        <time>2018-04-27T11:25:39Z</time>
      </trkpt>
      <trkpt lat="43.94963" lon="0.2229">
        <ele>157</ele>
        <time>2018-04-27T11:26:15Z</time>
      </trkpt>
      <trkpt lat="43.94957" lon="0.22273">
        <ele>157.3</ele>
        <time>2018-04-27T11:26:28Z</time>
      </trkpt>
      <trkpt lat="43.94954" lon="0.22253">
        <ele>157.6</ele>
        <time>2018-04-27T11:26:43Z</time>
      </trkpt>
      <trkpt lat="43.94952" lon="0.22234">
        <ele>157.9</ele>
        <time>2018-04-27T11:26:57Z</time>
      </trkpt>
      <trkpt lat="43.94949" lon="0.22214">
        <ele>158.3</ele>
        <time>2018-04-27T11:27:12Z</time>
      </trkpt>
      <trkpt lat="43.94947" lon="0.22195">
        <ele>158.6</ele>
        <time>2018-04-27T11:27:26Z</time>
      </trkpt>
      <trkpt lat="43.94945" lon="0.22176">
        <ele>159</ele>
        <time>2018-04-27T11:27:40Z</time>
      </trkpt>
      <trkpt lat="43.94941" lon="0.22156">
        <ele>159.2</ele>
        <time>2018-04-27T11:27:53Z</time>
      </trkpt>
      <trkpt lat="43.94941" lon="0.22137">
        <ele>159.6</ele>
        <time>2018-04-27T11:28:07Z</time>
      </trkpt>
      <trkpt lat="43.94938" lon="0.22119">
        <ele>159.8</ele>
        <time>2018-04-27T11:28:19Z</time>
      </trkpt>
      <trkpt lat="43.94932" lon="0.22102">
        <ele>160.1</ele>
        <time>2018-04-27T11:28:30Z</time>
      </trkpt>
      <trkpt lat="43.94929" lon="0.22082">
        <ele>160.4</ele>
        <time>2018-04-27T11:28:43Z</time>
      </trkpt>
      <trkpt lat="43.94926" lon="0.22064">
        <ele>160.6</ele>
        <time>2018-04-27T11:28:55Z</time>
      </trkpt>
      <trkpt lat="43.94924" lon="0.22045">
        <ele>160.9</ele>
        <time>2018-04-27T11:29:07Z</time>
      </trkpt>
      <trkpt lat="43.94921" lon="0.22026">
        <ele>161.2</ele>
        <time>2018-04-27T11:29:21Z</time>
      </trkpt>
      <trkpt lat="43.94916" lon="0.22008">
        <ele>161.5</ele>
        <time>2018-04-27T11:29:35Z</time>
      </trkpt>
      <trkpt lat="43.94911" lon="0.21989">
        <ele>161.8</ele>
        <time>2018-04-27T11:29:48Z</time>
      </trkpt>
      <trkpt lat="43.94907" lon="0.2197">
        <ele>162.1</ele>
        <time>2018-04-27T11:30:02Z</time>
      </trkpt>
      <trkpt lat="43.94905" lon="0.21965">
        <ele>162.2</ele>
        <time>2018-04-27T11:30:06Z</time>
      </trkpt>
      <trkpt lat="43.94901" lon="0.21952">
        <ele>162.8</ele>
        <time>2018-04-27T11:30:15Z</time>
      </trkpt>
      <trkpt lat="43.94896" lon="0.21933">
        <ele>163.9</ele>
        <time>2018-04-27T11:30:30Z</time>
      </trkpt>
      <trkpt lat="43.94892" lon="0.21915">
        <ele>164.9</ele>
        <time>2018-04-27T11:30:45Z</time>
      </trkpt>
      <trkpt lat="43.94891" lon="0.21902">
        <ele>165.5</ele>
        <time>2018-04-27T11:30:54Z</time>
      </trkpt>
      <trkpt lat="43.94891" lon="0.21895">
        <ele>165.3</ele>
        <time>2018-04-27T11:30:59Z</time>
      </trkpt>
      <trkpt lat="43.94887" lon="0.21877">
        <ele>165</ele>
        <time>2018-04-27T11:31:12Z</time>
      </trkpt>
      <trkpt lat="43.94883" lon="0.21859">
        <ele>164.6</ele>
        <time>2018-04-27T11:31:25Z</time>
      </trkpt>
      <trkpt lat="43.94881" lon="0.21839">
        <ele>164.2</ele>
        <time>2018-04-27T11:31:39Z</time>
      </trkpt>
      <trkpt lat="43.94881" lon="0.2182">
        <ele>163.9</ele>
        <time>2018-04-27T11:31:52Z</time>
      </trkpt>
      <trkpt lat="43.94879" lon="0.21801">
        <ele>163.5</ele>
        <time>2018-04-27T11:32:05Z</time>
      </trkpt>
      <trkpt lat="43.94877" lon="0.21782">
        <ele>163.2</ele>
        <time>2018-04-27T11:32:17Z</time>
      </trkpt>
      <trkpt lat="43.94874" lon="0.21763">
        <ele>162.8</ele>
        <time>2018-04-27T11:32:30Z</time>
      </trkpt>
      <trkpt lat="43.94875" lon="0.21744">
        <ele>162.4</ele>
        <time>2018-04-27T11:32:44Z</time>
      </trkpt>
      <trkpt lat="43.94875" lon="0.21724">
        <ele>162</ele>
        <time>2018-04-27T11:32:58Z</time>
      </trkpt>
      <trkpt lat="43.94875" lon="0.21721">
        <ele>162</ele>
        <time>2018-04-27T11:33:00Z</time>
      </trkpt>
      <trkpt lat="43.94874" lon="0.21705">
        <ele>161.3</ele>
        <time>2018-04-27T11:33:09Z</time>
      </trkpt>
      <trkpt lat="43.94875" lon="0.21685">
        <ele>160.3</ele>
        <time>2018-04-27T11:33:24Z</time>
      </trkpt>
      <trkpt lat="43.94878" lon="0.21665">
        <ele>159.3</ele>
        <time>2018-04-27T11:33:37Z</time>
      </trkpt>
      <trkpt lat="43.94878" lon="0.21646">
        <ele>158.5</ele>
        <time>2018-04-27T11:33:48Z</time>
      </trkpt>
      <trkpt lat="43.94881" lon="0.21626">
        <ele>158</ele>
        <time>2018-04-27T11:34:00Z</time>
      </trkpt>
      <trkpt lat="43.94884" lon="0.21607">
        <ele>157.5</ele>
        <time>2018-04-27T11:34:12Z</time>
      </trkpt>
      <trkpt lat="43.94887" lon="0.21588">
        <ele>156.9</ele>
        <time>2018-04-27T11:34:25Z</time>
      </trkpt>
      <trkpt lat="43.94892" lon="0.2157">
        <ele>156.3</ele>
        <time>2018-04-27T11:34:38Z</time>
      </trkpt>
      <trkpt lat="43.94893" lon="0.2155">
        <ele>155.6</ele>
        <time>2018-04-27T11:34:53Z</time>
      </trkpt>
      <trkpt lat="43.94894" lon="0.21541">
        <ele>155.3</ele>
        <time>2018-04-27T11:35:00Z</time>
      </trkpt>
      <trkpt lat="43.94894" lon="0.21531">
        <ele>154.7</ele>
        <time>2018-04-27T11:35:08Z</time>
      </trkpt>
      <trkpt lat="43.94895" lon="0.21512">
        <ele>153.9</ele>
        <time>2018-04-27T11:35:20Z</time>
      </trkpt>
      <trkpt lat="43.94899" lon="0.21493">
        <ele>152.9</ele>
        <time>2018-04-27T11:35:33Z</time>
      </trkpt>
      <trkpt lat="43.94905" lon="0.21476">
        <ele>152</ele>
        <time>2018-04-27T11:35:46Z</time>
      </trkpt>
      <trkpt lat="43.94905" lon="0.21473">
        <ele>151.8</ele>
        <time>2018-04-27T11:35:48Z</time>
      </trkpt>
      <trkpt lat="43.94909" lon="0.21457">
        <ele>150.9</ele>
        <time>2018-04-27T11:36:00Z</time>
      </trkpt>
      <trkpt lat="43.94912" lon="0.21438">
        <ele>149.9</ele>
        <time>2018-04-27T11:36:13Z</time>
      </trkpt>
      <trkpt lat="43.94918" lon="0.2142">
        <ele>148.9</ele>
        <time>2018-04-27T11:36:26Z</time>
      </trkpt>
      <trkpt lat="43.94919" lon="0.21414">
        <ele>148.6</ele>
        <time>2018-04-27T11:36:30Z</time>
      </trkpt>
      <trkpt lat="43.94922" lon="0.21402">
        <ele>148.2</ele>
        <time>2018-04-27T11:36:38Z</time>
      </trkpt>
      <trkpt lat="43.94928" lon="0.21386">
        <ele>147.4</ele>
        <time>2018-04-27T11:36:50Z</time>
      </trkpt>
      <trkpt lat="43.94933" lon="0.21367">
        <ele>146.6</ele>
        <time>2018-04-27T11:37:03Z</time>
      </trkpt>
      <trkpt lat="43.94938" lon="0.21349">
        <ele>145.9</ele>
        <time>2018-04-27T11:37:15Z</time>
      </trkpt>
      <trkpt lat="43.94944" lon="0.21333">
        <ele>145.2</ele>
        <time>2018-04-27T11:37:27Z</time>
      </trkpt>
      <trkpt lat="43.94944" lon="0.21331">
        <ele>145.2</ele>
        <time>2018-04-27T11:37:28Z</time>
      </trkpt>
      <trkpt lat="43.94948" lon="0.21313">
        <ele>144.8</ele>
        <time>2018-04-27T11:37:40Z</time>
      </trkpt>
      <trkpt lat="43.94954" lon="0.21295">
        <ele>144.4</ele>
        <time>2018-04-27T11:37:53Z</time>
      </trkpt>
      <trkpt lat="43.94959" lon="0.21278">
        <ele>143.6</ele>
        <time>2018-04-27T11:38:18Z</time>
      </trkpt>
      <trkpt lat="43.94964" lon="0.2126">
        <ele>142.1</ele>
        <time>2018-04-27T11:39:04Z</time>
      </trkpt>
      <trkpt lat="43.94968" lon="0.21242">
        <ele>141.7</ele>
        <time>2018-04-27T11:39:16Z</time>
      </trkpt>
      <trkpt lat="43.94971" lon="0.21235">
        <ele>141.6</ele>
        <time>2018-04-27T11:39:21Z</time>
      </trkpt>
      <trkpt lat="43.94975" lon="0.21225">
        <ele>141.2</ele>
        <time>2018-04-27T11:39:28Z</time>
      </trkpt>
      <trkpt lat="43.94981" lon="0.21207">
        <ele>140.5</ele>
        <time>2018-04-27T11:39:40Z</time>
      </trkpt>
      <trkpt lat="43.94986" lon="0.21189">
        <ele>139.7</ele>
        <time>2018-04-27T11:39:53Z</time>
      </trkpt>
      <trkpt lat="43.94993" lon="0.21171">
        <ele>138.9</ele>
        <time>2018-04-27T11:40:07Z</time>
      </trkpt>
      <trkpt lat="43.94996" lon="0.21158">
        <ele>138.5</ele>
        <time>2018-04-27T11:40:15Z</time>
      </trkpt>
      <trkpt lat="43.94998" lon="0.21152">
        <ele>138.4</ele>
        <time>2018-04-27T11:40:19Z</time>
      </trkpt>
      <trkpt lat="43.95004" lon="0.21135">
        <ele>138.1</ele>
        <time>2018-04-27T11:40:31Z</time>
      </trkpt>
      <trkpt lat="43.95007" lon="0.21116">
        <ele>137.9</ele>
        <time>2018-04-27T11:40:43Z</time>
      </trkpt>
      <trkpt lat="43.95012" lon="0.21098">
        <ele>137.6</ele>
        <time>2018-04-27T11:40:55Z</time>
      </trkpt>
      <trkpt lat="43.95018" lon="0.2108">
        <ele>137.4</ele>
        <time>2018-04-27T11:41:06Z</time>
      </trkpt>
      <trkpt lat="43.95023" lon="0.21062">
        <ele>137.1</ele>
        <time>2018-04-27T11:41:19Z</time>
      </trkpt>
      <trkpt lat="43.95026" lon="0.21044">
        <ele>136.8</ele>
        <time>2018-04-27T11:41:32Z</time>
      </trkpt>
      <trkpt lat="43.95029" lon="0.21024">
        <ele>136.5</ele>
        <time>2018-04-27T11:41:45Z</time>
      </trkpt>
      <trkpt lat="43.95037" lon="0.21007">
        <ele>136.2</ele>
        <time>2018-04-27T11:41:59Z</time>
      </trkpt>
      <trkpt lat="43.95042" lon="0.20988">
        <ele>135.9</ele>
        <time>2018-04-27T11:42:12Z</time>
      </trkpt>
      <trkpt lat="43.95046" lon="0.20969">
        <ele>135.7</ele>
        <time>2018-04-27T11:42:25Z</time>
      </trkpt>
      <trkpt lat="43.95049" lon="0.2095">
        <ele>135.4</ele>
        <time>2018-04-27T11:42:38Z</time>
      </trkpt>
      <trkpt lat="43.95049" lon="0.20949">
        <ele>135.4</ele>
        <time>2018-04-27T11:42:39Z</time>
      </trkpt>
      <trkpt lat="43.95045" lon="0.20936">
        <ele>135.3</ele>
        <time>2018-04-27T11:42:49Z</time>
      </trkpt>
      <trkpt lat="43.9504" lon="0.20918">
        <ele>135.3</ele>
        <time>2018-04-27T11:43:15Z</time>
      </trkpt>
      <trkpt lat="43.95037" lon="0.20899">
        <ele>135.2</ele>
        <time>2018-04-27T11:43:44Z</time>
      </trkpt>
      <trkpt lat="43.95037" lon="0.2088">
        <ele>135.2</ele>
        <time>2018-04-27T11:43:56Z</time>
      </trkpt>
      <trkpt lat="43.95041" lon="0.20875">
        <ele>135</ele>
        <time>2018-04-27T11:45:55Z</time>
      </trkpt>
      <trkpt lat="43.95037" lon="0.20875">
        <ele>134.6</ele>
        <time>2018-04-27T11:49:35Z</time>
      </trkpt>
      <trkpt lat="43.95039" lon="0.2087">
        <ele>134.6</ele>
        <time>2018-04-27T11:49:59Z</time>
      </trkpt>
      <trkpt lat="43.9503" lon="0.20862">
        <ele>134.1</ele>
        <time>2018-04-27T11:54:49Z</time>
      </trkpt>
      <trkpt lat="43.95027" lon="0.20857">
        <ele>133.7</ele>
        <time>2018-04-27T11:57:51Z</time>
      </trkpt>
      <trkpt lat="43.95027" lon="0.2086">
        <ele>133.7</ele>
        <time>2018-04-27T11:58:08Z</time>
      </trkpt>
      <trkpt lat="43.9503" lon="0.20855">
        <ele>133.6</ele>
        <time>2018-04-27T11:58:53Z</time>
      </trkpt>
      <trkpt lat="43.95029" lon="0.20871">
        <ele>133.5</ele>
        <time>2018-04-27T12:00:14Z</time>
      </trkpt>
      <trkpt lat="43.95024" lon="0.20864">
        <ele>133.1</ele>
        <time>2018-04-27T12:03:46Z</time>
      </trkpt>
      <trkpt lat="43.95018" lon="0.20863">
        <ele>133</ele>
        <time>2018-04-27T12:05:02Z</time>
      </trkpt>
      <trkpt lat="43.95023" lon="0.20865">
        <ele>133</ele>
        <time>2018-04-27T12:05:11Z</time>
      </trkpt>
      <trkpt lat="43.95029" lon="0.20862">
        <ele>132.8</ele>
        <time>2018-04-27T12:06:40Z</time>
      </trkpt>
      <trkpt lat="43.95033" lon="0.20867">
        <ele>132.3</ele>
        <time>2018-04-27T12:11:10Z</time>
      </trkpt>
      <trkpt lat="43.95036" lon="0.2087">
        <ele>131.3</ele>
        <time>2018-04-27T12:14:52Z</time>
      </trkpt>
      <trkpt lat="43.95035" lon="0.20872">
        <ele>131.2</ele>
        <time>2018-04-27T12:15:07Z</time>
      </trkpt>
      <trkpt lat="43.95036" lon="0.20873">
        <ele>131.1</ele>
        <time>2018-04-27T12:15:27Z</time>
      </trkpt>
      <trkpt lat="43.95038" lon="0.20854">
        <ele>130.7</ele>
        <time>2018-04-27T12:16:46Z</time>
      </trkpt>
      <trkpt lat="43.95038" lon="0.20833">
        <ele>130.6</ele>
        <time>2018-04-27T12:17:10Z</time>
      </trkpt>
      <trkpt lat="43.95033" lon="0.20814">
        <ele>130.5</ele>
        <time>2018-04-27T12:17:26Z</time>
      </trkpt>
      <trkpt lat="43.95033" lon="0.20795">
        <ele>130.5</ele>
        <time>2018-04-27T12:17:40Z</time>
      </trkpt>
      <trkpt lat="43.95033" lon="0.20776">
        <ele>130.4</ele>
        <time>2018-04-27T12:17:56Z</time>
      </trkpt>
      <trkpt lat="43.95031" lon="0.20758">
        <ele>130.3</ele>
        <time>2018-04-27T12:18:11Z</time>
      </trkpt>
      <trkpt lat="43.9503" lon="0.20739">
        <ele>130.2</ele>
        <time>2018-04-27T12:18:27Z</time>
      </trkpt>
      <trkpt lat="43.95029" lon="0.2072">
        <ele>130.2</ele>
        <time>2018-04-27T12:18:43Z</time>
      </trkpt>
      <trkpt lat="43.95028" lon="0.20701">
        <ele>130.1</ele>
        <time>2018-04-27T12:19:00Z</time>
      </trkpt>
      <trkpt lat="43.95026" lon="0.20682">
        <ele>130</ele>
        <time>2018-04-27T12:19:14Z</time>
      </trkpt>
      <trkpt lat="43.95028" lon="0.20662">
        <ele>129.9</ele>
        <time>2018-04-27T12:19:30Z</time>
      </trkpt>
      <trkpt lat="43.9503" lon="0.20643">
        <ele>129.9</ele>
        <time>2018-04-27T12:19:48Z</time>
      </trkpt>
      <trkpt lat="43.95027" lon="0.20624">
        <ele>129.8</ele>
        <time>2018-04-27T12:20:02Z</time>
      </trkpt>
      <trkpt lat="43.95029" lon="0.2061">
        <ele>129.7</ele>
        <time>2018-04-27T12:20:17Z</time>
      </trkpt>
      <trkpt lat="43.95024" lon="0.20592">
        <ele>129.7</ele>
        <time>2018-04-27T12:20:30Z</time>
      </trkpt>
      <trkpt lat="43.95023" lon="0.2058">
        <ele>129.6</ele>
        <time>2018-04-27T12:20:40Z</time>
      </trkpt>
      <trkpt lat="43.95023" lon="0.20562">
        <ele>129.6</ele>
        <time>2018-04-27T12:20:53Z</time>
      </trkpt>
      <trkpt lat="43.95022" lon="0.20542">
        <ele>129.5</ele>
        <time>2018-04-27T12:21:09Z</time>
      </trkpt>
      <trkpt lat="43.95019" lon="0.20523">
        <ele>129.4</ele>
        <time>2018-04-27T12:21:23Z</time>
      </trkpt>
      <trkpt lat="43.95019" lon="0.20504">
        <ele>129.3</ele>
        <time>2018-04-27T12:21:36Z</time>
      </trkpt>
      <trkpt lat="43.95021" lon="0.20485">
        <ele>129.3</ele>
        <time>2018-04-27T12:21:48Z</time>
      </trkpt>
      <trkpt lat="43.95022" lon="0.20469">
        <ele>129.2</ele>
        <time>2018-04-27T12:22:02Z</time>
      </trkpt>
      <trkpt lat="43.95022" lon="0.20466">
        <ele>129.1</ele>
        <time>2018-04-27T12:22:04Z</time>
      </trkpt>
      <trkpt lat="43.9502" lon="0.20447">
        <ele>128.4</ele>
        <time>2018-04-27T12:22:17Z</time>
      </trkpt>
      <trkpt lat="43.95018" lon="0.20428">
        <ele>127.6</ele>
        <time>2018-04-27T12:22:31Z</time>
      </trkpt>
      <trkpt lat="43.95018" lon="0.20409">
        <ele>126.7</ele>
        <time>2018-04-27T12:22:46Z</time>
      </trkpt>
      <trkpt lat="43.95018" lon="0.20389">
        <ele>126.1</ele>
        <time>2018-04-27T12:22:58Z</time>
      </trkpt>
      <trkpt lat="43.95018" lon="0.20384">
        <ele>125.8</ele>
        <time>2018-04-27T12:23:02Z</time>
      </trkpt>
      <trkpt lat="43.95018" lon="0.20369">
        <ele>125.4</ele>
        <time>2018-04-27T12:23:13Z</time>
      </trkpt>
      <trkpt lat="43.95018" lon="0.2035">
        <ele>124.9</ele>
        <time>2018-04-27T12:23:27Z</time>
      </trkpt>
      <trkpt lat="43.95021" lon="0.20332">
        <ele>124.5</ele>
        <time>2018-04-27T12:23:40Z</time>
      </trkpt>
      <trkpt lat="43.95018" lon="0.20312">
        <ele>123.9</ele>
        <time>2018-04-27T12:23:54Z</time>
      </trkpt>
      <trkpt lat="43.95018" lon="0.20291">
        <ele>123.4</ele>
        <time>2018-04-27T12:24:09Z</time>
      </trkpt>
      <trkpt lat="43.95018" lon="0.20273">
        <ele>122.8</ele>
        <time>2018-04-27T12:24:26Z</time>
      </trkpt>
      <trkpt lat="43.95018" lon="0.20272">
        <ele>122.8</ele>
        <time>2018-04-27T12:24:27Z</time>
      </trkpt>
      <trkpt lat="43.95022" lon="0.20252">
        <ele>122.4</ele>
        <time>2018-04-27T12:24:43Z</time>
      </trkpt>
      <trkpt lat="43.95018" lon="0.20233">
        <ele>122.1</ele>
        <time>2018-04-27T12:24:57Z</time>
      </trkpt>
      <trkpt lat="43.95018" lon="0.20213">
        <ele>121.8</ele>
        <time>2018-04-27T12:25:12Z</time>
      </trkpt>
      <trkpt lat="43.95018" lon="0.20194">
        <ele>121.5</ele>
        <time>2018-04-27T12:25:26Z</time>
      </trkpt>
      <trkpt lat="43.95018" lon="0.20175">
        <ele>121.3</ele>
        <time>2018-04-27T12:25:39Z</time>
      </trkpt>
      <trkpt lat="43.95017" lon="0.20155">
        <ele>120.9</ele>
        <time>2018-04-27T12:25:54Z</time>
      </trkpt>
      <trkpt lat="43.95012" lon="0.20136">
        <ele>120.7</ele>
        <time>2018-04-27T12:26:08Z</time>
      </trkpt>
      <trkpt lat="43.95015" lon="0.20117">
        <ele>120.4</ele>
        <time>2018-04-27T12:26:21Z</time>
      </trkpt>
      <trkpt lat="43.95011" lon="0.201">
        <ele>120.1</ele>
        <time>2018-04-27T12:26:34Z</time>
      </trkpt>
      <trkpt lat="43.95016" lon="0.20081">
        <ele>119.8</ele>
        <time>2018-04-27T12:26:47Z</time>
      </trkpt>
      <trkpt lat="43.95017" lon="0.20073">
        <ele>119.7</ele>
        <time>2018-04-27T12:26:54Z</time>
      </trkpt>
      <trkpt lat="43.95019" lon="0.20063">
        <ele>119.6</ele>
        <time>2018-04-27T12:27:02Z</time>
      </trkpt>
      <trkpt lat="43.95014" lon="0.20042">
        <ele>119.1</ele>
        <time>2018-04-27T12:27:35Z</time>
      </trkpt>
      <trkpt lat="43.95011" lon="0.20042">
        <ele>118.9</ele>
        <time>2018-04-27T12:27:48Z</time>
      </trkpt>
      <trkpt lat="43.95016" lon="0.2005">
        <ele>118.8</ele>
        <time>2018-04-27T12:27:54Z</time>
      </trkpt>
      <trkpt lat="43.95012" lon="0.20032">
        <ele>118.4</ele>
        <time>2018-04-27T12:28:24Z</time>
      </trkpt>
      <trkpt lat="43.95009" lon="0.20027">
        <ele>118.3</ele>
        <time>2018-04-27T12:28:30Z</time>
      </trkpt>
      <trkpt lat="43.95014" lon="0.20015">
        <ele>118.2</ele>
        <time>2018-04-27T12:28:41Z</time>
      </trkpt>
      <trkpt lat="43.95007" lon="0.20012">
        <ele>118</ele>
        <time>2018-04-27T12:28:49Z</time>
      </trkpt>
      <trkpt lat="43.95014" lon="0.19991">
        <ele>118</ele>
        <time>2018-04-27T12:28:55Z</time>
      </trkpt>
      <trkpt lat="43.95013" lon="0.19992">
        <ele>117.7</ele>
        <time>2018-04-27T12:29:14Z</time>
      </trkpt>
      <trkpt lat="43.95015" lon="0.19972">
        <ele>117.5</ele>
        <time>2018-04-27T12:29:24Z</time>
      </trkpt>
      <trkpt lat="43.95011" lon="0.19963">
        <ele>117.5</ele>
        <time>2018-04-27T12:29:30Z</time>
      </trkpt>
      <trkpt lat="43.95019" lon="0.19955">
        <ele>117.3</ele>
        <time>2018-04-27T12:29:43Z</time>
      </trkpt>
      <trkpt lat="43.95013" lon="0.19938">
        <ele>117.1</ele>
        <time>2018-04-27T12:29:56Z</time>
      </trkpt>
      <trkpt lat="43.95009" lon="0.19918">
        <ele>116.5</ele>
        <time>2018-04-27T12:30:38Z</time>
      </trkpt>
      <trkpt lat="43.95009" lon="0.19918">
        <ele>116.4</ele>
        <time>2018-04-27T12:30:40Z</time>
      </trkpt>
      <trkpt lat="43.95008" lon="0.19916">
        <ele>116.5</ele>
        <time>2018-04-27T12:30:58Z</time>
      </trkpt>
      <trkpt lat="43.95009" lon="0.19935">
        <ele>116.5</ele>
        <time>2018-04-27T12:31:21Z</time>
      </trkpt>
      <trkpt lat="43.9501" lon="0.19938">
        <ele>116.6</ele>
        <time>2018-04-27T12:31:31Z</time>
      </trkpt>
      <trkpt lat="43.95009" lon="0.19917">
        <ele>116.6</ele>
        <time>2018-04-27T12:31:44Z</time>
      </trkpt>
      <trkpt lat="43.95002" lon="0.19899">
        <ele>116.6</ele>
        <time>2018-04-27T12:31:56Z</time>
      </trkpt>
      <trkpt lat="43.94994" lon="0.19888">
        <ele>116.6</ele>
        <time>2018-04-27T12:32:00Z</time>
      </trkpt>
      <trkpt lat="43.9499" lon="0.19889">
        <ele>116.6</ele>
        <time>2018-04-27T12:32:01Z</time>
      </trkpt>
      <trkpt lat="43.95005" lon="0.19914">
        <ele>116.7</ele>
        <time>2018-04-27T12:32:15Z</time>
      </trkpt>
      <trkpt lat="43.95013" lon="0.19935">
        <ele>116.7</ele>
        <time>2018-04-27T12:32:34Z</time>
      </trkpt>
      <trkpt lat="43.9502" lon="0.19949">
        <ele>116.8</ele>
        <time>2018-04-27T12:32:58Z</time>
      </trkpt>
      <trkpt lat="43.95024" lon="0.19947">
        <ele>116.8</ele>
        <time>2018-04-27T12:33:15Z</time>
      </trkpt>
      <trkpt lat="43.95023" lon="0.19951">
        <ele>116.8</ele>
        <time>2018-04-27T12:33:20Z</time>
      </trkpt>
      <trkpt lat="43.95016" lon="0.19941">
        <ele>116.8</ele>
        <time>2018-04-27T12:33:36Z</time>
      </trkpt>
      <trkpt lat="43.95018" lon="0.19937">
        <ele>116.9</ele>
        <time>2018-04-27T12:33:46Z</time>
      </trkpt>
      <trkpt lat="43.95012" lon="0.19949">
        <ele>116.9</ele>
        <time>2018-04-27T12:34:04Z</time>
      </trkpt>
      <trkpt lat="43.95026" lon="0.19948">
        <ele>116.9</ele>
        <time>2018-04-27T12:34:20Z</time>
      </trkpt>
      <trkpt lat="43.95032" lon="0.19947">
        <ele>116.9</ele>
        <time>2018-04-27T12:34:26Z</time>
      </trkpt>
      <trkpt lat="43.95029" lon="0.19941">
        <ele>117</ele>
        <time>2018-04-27T12:34:30Z</time>
      </trkpt>
      <trkpt lat="43.95024" lon="0.19945">
        <ele>117</ele>
        <time>2018-04-27T12:34:46Z</time>
      </trkpt>
      <trkpt lat="43.95024" lon="0.19952">
        <ele>117</ele>
        <time>2018-04-27T12:35:09Z</time>
      </trkpt>
      <trkpt lat="43.95025" lon="0.19939">
        <ele>117.2</ele>
        <time>2018-04-27T12:36:09Z</time>
      </trkpt>
      <trkpt lat="43.95026" lon="0.19943">
        <ele>117.2</ele>
        <time>2018-04-27T12:36:19Z</time>
      </trkpt>
      <trkpt lat="43.95014" lon="0.19919">
        <ele>117.2</ele>
        <time>2018-04-27T12:36:23Z</time>
      </trkpt>
      <trkpt lat="43.95024" lon="0.19931">
        <ele>117.3</ele>
        <time>2018-04-27T12:36:48Z</time>
      </trkpt>
      <trkpt lat="43.95023" lon="0.19934">
        <ele>117.3</ele>
        <time>2018-04-27T12:37:04Z</time>
      </trkpt>
      <trkpt lat="43.95021" lon="0.19923">
        <ele>117.3</ele>
        <time>2018-04-27T12:37:15Z</time>
      </trkpt>
      <trkpt lat="43.95026" lon="0.19937">
        <ele>117.3</ele>
        <time>2018-04-27T12:37:19Z</time>
      </trkpt>
      <trkpt lat="43.95026" lon="0.19924">
        <ele>117.3</ele>
        <time>2018-04-27T12:37:27Z</time>
      </trkpt>
      <trkpt lat="43.95023" lon="0.19943">
        <ele>117.4</ele>
        <time>2018-04-27T12:37:55Z</time>
      </trkpt>
      <trkpt lat="43.95022" lon="0.19951">
        <ele>117.4</ele>
        <time>2018-04-27T12:38:01Z</time>
      </trkpt>
      <trkpt lat="43.95014" lon="0.19955">
        <ele>117.5</ele>
        <time>2018-04-27T12:38:55Z</time>
      </trkpt>
      <trkpt lat="43.95034" lon="0.19963">
        <ele>117.5</ele>
        <time>2018-04-27T12:38:56Z</time>
      </trkpt>
      <trkpt lat="43.95036" lon="0.19964">
        <ele>117.5</ele>
        <time>2018-04-27T12:38:57Z</time>
      </trkpt>
      <trkpt lat="43.95039" lon="0.19976">
        <ele>117.6</ele>
        <time>2018-04-27T12:39:02Z</time>
      </trkpt>
      <trkpt lat="43.95033" lon="0.19986">
        <ele>117.6</ele>
        <time>2018-04-27T12:39:05Z</time>
      </trkpt>
      <trkpt lat="43.95032" lon="0.19985">
        <ele>117.6</ele>
        <time>2018-04-27T12:39:11Z</time>
      </trkpt>
      <trkpt lat="43.95031" lon="0.20007">
        <ele>117.6</ele>
        <time>2018-04-27T12:39:13Z</time>
      </trkpt>
      <trkpt lat="43.95033" lon="0.19985">
        <ele>117.6</ele>
        <time>2018-04-27T12:39:16Z</time>
      </trkpt>
      <trkpt lat="43.95032" lon="0.1996">
        <ele>117.6</ele>
        <time>2018-04-27T12:39:17Z</time>
      </trkpt>
      <trkpt lat="43.95009" lon="0.19919">
        <ele>117.6</ele>
        <time>2018-04-27T12:39:30Z</time>
      </trkpt>
      <trkpt lat="43.95002" lon="0.19911">
        <ele>117.6</ele>
        <time>2018-04-27T12:39:47Z</time>
      </trkpt>
      <trkpt lat="43.95008" lon="0.19919">
        <ele>117.7</ele>
        <time>2018-04-27T12:39:48Z</time>
      </trkpt>
      <trkpt lat="43.9502" lon="0.19958">
        <ele>117.7</ele>
        <time>2018-04-27T12:40:03Z</time>
      </trkpt>
      <trkpt lat="43.9502" lon="0.19961">
        <ele>117.7</ele>
        <time>2018-04-27T12:40:15Z</time>
      </trkpt>
      <trkpt lat="43.95018" lon="0.19943">
        <ele>117.7</ele>
        <time>2018-04-27T12:40:28Z</time>
      </trkpt>
      <trkpt lat="43.95019" lon="0.19933">
        <ele>117.8</ele>
        <time>2018-04-27T12:40:36Z</time>
      </trkpt>
      <trkpt lat="43.95024" lon="0.19953">
        <ele>117.8</ele>
        <time>2018-04-27T12:40:43Z</time>
      </trkpt>
      <trkpt lat="43.95019" lon="0.19935">
        <ele>118.1</ele>
        <time>2018-04-27T12:42:57Z</time>
      </trkpt>
      <trkpt lat="43.95021" lon="0.19927">
        <ele>118.1</ele>
        <time>2018-04-27T12:43:03Z</time>
      </trkpt>
      <trkpt lat="43.95025" lon="0.19929">
        <ele>118.1</ele>
        <time>2018-04-27T12:43:13Z</time>
      </trkpt>
      <trkpt lat="43.95017" lon="0.19931">
        <ele>118.2</ele>
        <time>2018-04-27T12:43:39Z</time>
      </trkpt>
      <trkpt lat="43.95017" lon="0.19928">
        <ele>118.2</ele>
        <time>2018-04-27T12:43:43Z</time>
      </trkpt>
      <trkpt lat="43.95023" lon="0.19938">
        <ele>118.3</ele>
        <time>2018-04-27T12:44:42Z</time>
      </trkpt>
      <trkpt lat="43.95022" lon="0.19941">
        <ele>118.3</ele>
        <time>2018-04-27T12:44:56Z</time>
      </trkpt>
      <trkpt lat="43.95019" lon="0.19927">
        <ele>118.4</ele>
        <time>2018-04-27T12:45:12Z</time>
      </trkpt>
      <trkpt lat="43.95017" lon="0.19929">
        <ele>118.5</ele>
        <time>2018-04-27T12:46:10Z</time>
      </trkpt>
      <trkpt lat="43.95018" lon="0.19932">
        <ele>118.5</ele>
        <time>2018-04-27T12:46:20Z</time>
      </trkpt>
      <trkpt lat="43.95026" lon="0.19931">
        <ele>118.6</ele>
        <time>2018-04-27T12:46:39Z</time>
      </trkpt>
      <trkpt lat="43.9502" lon="0.19923">
        <ele>118.7</ele>
        <time>2018-04-27T12:47:30Z</time>
      </trkpt>
      <trkpt lat="43.95019" lon="0.19938">
        <ele>118.9</ele>
        <time>2018-04-27T12:48:58Z</time>
      </trkpt>
      <trkpt lat="43.95023" lon="0.19942">
        <ele>118.9</ele>
        <time>2018-04-27T12:49:05Z</time>
      </trkpt>
      <trkpt lat="43.95025" lon="0.19931">
        <ele>119</ele>
        <time>2018-04-27T12:49:42Z</time>
      </trkpt>
      <trkpt lat="43.95033" lon="0.19938">
        <ele>119</ele>
        <time>2018-04-27T12:49:49Z</time>
      </trkpt>
      <trkpt lat="43.95033" lon="0.19958">
        <ele>119</ele>
        <time>2018-04-27T12:49:56Z</time>
      </trkpt>
      <trkpt lat="43.95021" lon="0.19949">
        <ele>119</ele>
        <time>2018-04-27T12:50:14Z</time>
      </trkpt>
      <trkpt lat="43.95014" lon="0.19931">
        <ele>119.1</ele>
        <time>2018-04-27T12:50:42Z</time>
      </trkpt>
      <trkpt lat="43.95011" lon="0.19922">
        <ele>119.1</ele>
        <time>2018-04-27T12:50:49Z</time>
      </trkpt>
      <trkpt lat="43.95007" lon="0.1994">
        <ele>119.2</ele>
        <time>2018-04-27T12:51:21Z</time>
      </trkpt>
      <trkpt lat="43.95008" lon="0.19959">
        <ele>119.2</ele>
        <time>2018-04-27T12:51:37Z</time>
      </trkpt>
      <trkpt lat="43.95007" lon="0.19979">
        <ele>119.2</ele>
        <time>2018-04-27T12:51:52Z</time>
      </trkpt>
      <trkpt lat="43.9501" lon="0.19991">
        <ele>119.3</ele>
        <time>2018-04-27T12:52:03Z</time>
      </trkpt>
      <trkpt lat="43.95001" lon="0.19998">
        <ele>119.3</ele>
        <time>2018-04-27T12:52:21Z</time>
      </trkpt>
      <trkpt lat="43.94998" lon="0.19996">
        <ele>119.3</ele>
        <time>2018-04-27T12:52:27Z</time>
      </trkpt>
      <trkpt lat="43.95016" lon="0.19998">
        <ele>119.3</ele>
        <time>2018-04-27T12:52:31Z</time>
      </trkpt>
      <trkpt lat="43.95009" lon="0.19997">
        <ele>119.3</ele>
        <time>2018-04-27T12:52:37Z</time>
      </trkpt>
      <trkpt lat="43.94996" lon="0.20001">
        <ele>119.4</ele>
        <time>2018-04-27T12:53:00Z</time>
      </trkpt>
      <trkpt lat="43.94981" lon="0.20003">
        <ele>119.4</ele>
        <time>2018-04-27T12:53:21Z</time>
      </trkpt>
      <trkpt lat="43.94977" lon="0.20006">
        <ele>119.4</ele>
        <time>2018-04-27T12:53:27Z</time>
      </trkpt>
      <trkpt lat="43.94971" lon="0.2001">
        <ele>119.3</ele>
        <time>2018-04-27T12:53:37Z</time>
      </trkpt>
      <trkpt lat="43.94969" lon="0.20029">
        <ele>118.7</ele>
        <time>2018-04-27T12:54:11Z</time>
      </trkpt>
      <trkpt lat="43.9497" lon="0.20048">
        <ele>118.5</ele>
        <time>2018-04-27T12:54:23Z</time>
      </trkpt>
      <trkpt lat="43.94963" lon="0.2005">
        <ele>118</ele>
        <time>2018-04-27T12:54:47Z</time>
      </trkpt>
      <trkpt lat="43.94967" lon="0.20061">
        <ele>117.8</ele>
        <time>2018-04-27T12:55:03Z</time>
      </trkpt>
      <trkpt lat="43.94954" lon="0.20057">
        <ele>117.6</ele>
        <time>2018-04-27T12:55:10Z</time>
      </trkpt>
      <trkpt lat="43.94945" lon="0.20061">
        <ele>117.5</ele>
        <time>2018-04-27T12:55:15Z</time>
      </trkpt>
      <trkpt lat="43.94944" lon="0.2008">
        <ele>117</ele>
        <time>2018-04-27T12:55:44Z</time>
      </trkpt>
      <trkpt lat="43.9494" lon="0.20086">
        <ele>116.9</ele>
        <time>2018-04-27T12:55:52Z</time>
      </trkpt>
      <trkpt lat="43.94955" lon="0.20067">
        <ele>116.7</ele>
        <time>2018-04-27T12:56:04Z</time>
      </trkpt>
      <trkpt lat="43.9495" lon="0.20064">
        <ele>116.2</ele>
        <time>2018-04-27T12:56:29Z</time>
      </trkpt>
      <trkpt lat="43.94946" lon="0.20055">
        <ele>116.1</ele>
        <time>2018-04-27T12:56:36Z</time>
      </trkpt>
      <trkpt lat="43.94943" lon="0.20048">
        <ele>115.6</ele>
        <time>2018-04-27T12:56:42Z</time>
      </trkpt>
      <trkpt lat="43.94945" lon="0.20028">
        <ele>113.4</ele>
        <time>2018-04-27T12:57:06Z</time>
      </trkpt>
      <trkpt lat="43.94941" lon="0.20009">
        <ele>112.4</ele>
        <time>2018-04-27T12:57:17Z</time>
      </trkpt>
      <trkpt lat="43.94941" lon="0.20009">
        <ele>112.4</ele>
        <time>2018-04-27T12:57:18Z</time>
      </trkpt>
      <trkpt lat="43.94938" lon="0.1999">
        <ele>112</ele>
        <time>2018-04-27T12:57:40Z</time>
      </trkpt>
      <trkpt lat="43.94939" lon="0.19971">
        <ele>111.8</ele>
        <time>2018-04-27T12:57:52Z</time>
      </trkpt>
      <trkpt lat="43.94936" lon="0.19953">
        <ele>111.7</ele>
        <time>2018-04-27T12:58:03Z</time>
      </trkpt>
      <trkpt lat="43.94933" lon="0.19933">
        <ele>111.5</ele>
        <time>2018-04-27T12:58:17Z</time>
      </trkpt>
      <trkpt lat="43.94929" lon="0.19915">
        <ele>111.3</ele>
        <time>2018-04-27T12:58:30Z</time>
      </trkpt>
      <trkpt lat="43.94928" lon="0.19895">
        <ele>111</ele>
        <time>2018-04-27T12:58:47Z</time>
      </trkpt>
      <trkpt lat="43.94931" lon="0.19876">
        <ele>110.8</ele>
        <time>2018-04-27T12:59:02Z</time>
      </trkpt>
      <trkpt lat="43.9493" lon="0.19857">
        <ele>110.6</ele>
        <time>2018-04-27T12:59:15Z</time>
      </trkpt>
      <trkpt lat="43.94938" lon="0.19841">
        <ele>110.4</ele>
        <time>2018-04-27T12:59:29Z</time>
      </trkpt>
      <trkpt lat="43.94945" lon="0.19824">
        <ele>110.1</ele>
        <time>2018-04-27T12:59:46Z</time>
      </trkpt>
      <trkpt lat="43.94959" lon="0.19822">
        <ele>109.9</ele>
        <time>2018-04-27T12:59:59Z</time>
      </trkpt>
      <trkpt lat="43.94973" lon="0.19826">
        <ele>109.7</ele>
        <time>2018-04-27T13:00:15Z</time>
      </trkpt>
      <trkpt lat="43.94987" lon="0.19834">
        <ele>109.4</ele>
        <time>2018-04-27T13:00:36Z</time>
      </trkpt>
      <trkpt lat="43.95" lon="0.19837">
        <ele>109.2</ele>
        <time>2018-04-27T13:00:51Z</time>
      </trkpt>
      <trkpt lat="43.94998" lon="0.19828">
        <ele>109</ele>
        <time>2018-04-27T13:00:59Z</time>
      </trkpt>
      <trkpt lat="43.94995" lon="0.19818">
        <ele>107.7</ele>
        <time>2018-04-27T13:01:08Z</time>
      </trkpt>
      <trkpt lat="43.9499" lon="0.19806">
        <ele>105.4</ele>
        <time>2018-04-27T13:01:24Z</time>
      </trkpt>
      <trkpt lat="43.94988" lon="0.19802">
        <ele>104.9</ele>
        <time>2018-04-27T13:01:29Z</time>
      </trkpt>
      <trkpt lat="43.94978" lon="0.19789">
        <ele>103.1</ele>
        <time>2018-04-27T13:01:46Z</time>
      </trkpt>
      <trkpt lat="43.94976" lon="0.19787">
        <ele>102.7</ele>
        <time>2018-04-27T13:01:50Z</time>
      </trkpt>
      <trkpt lat="43.94972" lon="0.19783">
        <ele>102.7</ele>
        <time>2018-04-27T13:01:56Z</time>
      </trkpt>
      <trkpt lat="43.94966" lon="0.19777">
        <ele>101.2</ele>
        <time>2018-04-27T13:02:07Z</time>
      </trkpt>
      <trkpt lat="43.94955" lon="0.19775">
        <ele>99.4</ele>
        <time>2018-04-27T13:02:20Z</time>
      </trkpt>
      <trkpt lat="43.94952" lon="0.19775">
        <ele>99</ele>
        <time>2018-04-27T13:02:23Z</time>
      </trkpt>
      <trkpt lat="43.94945" lon="0.19776">
        <ele>97.7</ele>
        <time>2018-04-27T13:02:32Z</time>
      </trkpt>
      <trkpt lat="43.94938" lon="0.19776">
        <ele>96.6</ele>
        <time>2018-04-27T13:02:40Z</time>
      </trkpt>
      <trkpt lat="43.94926" lon="0.19778">
        <ele>94.4</ele>
        <time>2018-04-27T13:02:56Z</time>
      </trkpt>
      <trkpt lat="43.94925" lon="0.19778">
        <ele>94.3</ele>
        <time>2018-04-27T13:02:57Z</time>
      </trkpt>
      <trkpt lat="43.94915" lon="0.19793">
        <ele>92.7</ele>
        <time>2018-04-27T13:03:14Z</time>
      </trkpt>
      <trkpt lat="43.94917" lon="0.19782">
        <ele>91.5</ele>
        <time>2018-04-27T13:03:26Z</time>
      </trkpt>
      <trkpt lat="43.94919" lon="0.19774">
        <ele>90.8</ele>
        <time>2018-04-27T13:03:35Z</time>
      </trkpt>
      <trkpt lat="43.9493" lon="0.19762">
        <ele>89.3</ele>
        <time>2018-04-27T13:03:53Z</time>
      </trkpt>
      <trkpt lat="43.94921" lon="0.19761">
        <ele>88.1</ele>
        <time>2018-04-27T13:04:08Z</time>
      </trkpt>
      <trkpt lat="43.94916" lon="0.19761">
        <ele>87.2</ele>
        <time>2018-04-27T13:04:17Z</time>
      </trkpt>
      <trkpt lat="43.94903" lon="0.19769">
        <ele>85.2</ele>
        <time>2018-04-27T13:04:35Z</time>
      </trkpt>
      <trkpt lat="43.94901" lon="0.1977">
        <ele>84.9</ele>
        <time>2018-04-27T13:04:38Z</time>
      </trkpt>
      <trkpt lat="43.9489" lon="0.19774">
        <ele>84.4</ele>
        <time>2018-04-27T13:04:51Z</time>
      </trkpt>
      <trkpt lat="43.94878" lon="0.19785">
        <ele>84</ele>
        <time>2018-04-27T13:05:05Z</time>
      </trkpt>
      <trkpt lat="43.94869" lon="0.198">
        <ele>83.5</ele>
        <time>2018-04-27T13:05:18Z</time>
      </trkpt>
      <trkpt lat="43.9486" lon="0.19815">
        <ele>83.1</ele>
        <time>2018-04-27T13:05:30Z</time>
      </trkpt>
      <trkpt lat="43.94849" lon="0.19826">
        <ele>82.5</ele>
        <time>2018-04-27T13:05:46Z</time>
      </trkpt>
      <trkpt lat="43.94835" lon="0.19833">
        <ele>82.2</ele>
        <time>2018-04-27T13:05:57Z</time>
      </trkpt>
      <trkpt lat="43.94822" lon="0.19835">
        <ele>81.8</ele>
        <time>2018-04-27T13:06:08Z</time>
      </trkpt>
      <trkpt lat="43.94821" lon="0.19835">
        <ele>81.9</ele>
        <time>2018-04-27T13:06:09Z</time>
      </trkpt>
      <trkpt lat="43.94808" lon="0.19832">
        <ele>83.8</ele>
        <time>2018-04-27T13:06:24Z</time>
      </trkpt>
      <trkpt lat="43.94793" lon="0.19836">
        <ele>85.8</ele>
        <time>2018-04-27T13:06:40Z</time>
      </trkpt>
      <trkpt lat="43.9479" lon="0.19837">
        <ele>86.2</ele>
        <time>2018-04-27T13:06:44Z</time>
      </trkpt>
      <trkpt lat="43.94779" lon="0.1984">
        <ele>86.1</ele>
        <time>2018-04-27T13:06:56Z</time>
      </trkpt>
      <trkpt lat="43.94765" lon="0.19844">
        <ele>86</ele>
        <time>2018-04-27T13:07:09Z</time>
      </trkpt>
      <trkpt lat="43.94752" lon="0.19854">
        <ele>85.9</ele>
        <time>2018-04-27T13:07:23Z</time>
      </trkpt>
      <trkpt lat="43.94741" lon="0.19863">
        <ele>85.8</ele>
        <time>2018-04-27T13:07:33Z</time>
      </trkpt>
      <trkpt lat="43.94727" lon="0.19867">
        <ele>85.6</ele>
        <time>2018-04-27T13:07:46Z</time>
      </trkpt>
      <trkpt lat="43.94713" lon="0.19869">
        <ele>85.5</ele>
        <time>2018-04-27T13:08:00Z</time>
      </trkpt>
      <trkpt lat="43.94704" lon="0.19872">
        <ele>85.4</ele>
        <time>2018-04-27T13:08:10Z</time>
      </trkpt>
      <trkpt lat="43.94689" lon="0.19868">
        <ele>85.2</ele>
        <time>2018-04-27T13:08:25Z</time>
      </trkpt>
      <trkpt lat="43.94675" lon="0.19868">
        <ele>85.1</ele>
        <time>2018-04-27T13:08:38Z</time>
      </trkpt>
      <trkpt lat="43.94662" lon="0.19875">
        <ele>85</ele>
        <time>2018-04-27T13:08:53Z</time>
      </trkpt>
      <trkpt lat="43.94646" lon="0.19874">
        <ele>84.8</ele>
        <time>2018-04-27T13:09:04Z</time>
      </trkpt>
      <trkpt lat="43.94633" lon="0.19871">
        <ele>84.7</ele>
        <time>2018-04-27T13:09:17Z</time>
      </trkpt>
      <trkpt lat="43.94625" lon="0.19872">
        <ele>84.6</ele>
        <time>2018-04-27T13:09:28Z</time>
      </trkpt>
      <trkpt lat="43.94611" lon="0.19875">
        <ele>84.4</ele>
        <time>2018-04-27T13:09:46Z</time>
      </trkpt>
      <trkpt lat="43.94598" lon="0.1988">
        <ele>84.3</ele>
        <time>2018-04-27T13:09:59Z</time>
      </trkpt>
      <trkpt lat="43.94584" lon="0.19884">
        <ele>84.2</ele>
        <time>2018-04-27T13:10:13Z</time>
      </trkpt>
      <trkpt lat="43.9457" lon="0.19892">
        <ele>84</ele>
        <time>2018-04-27T13:10:25Z</time>
      </trkpt>
      <trkpt lat="43.94557" lon="0.19895">
        <ele>83.9</ele>
        <time>2018-04-27T13:10:38Z</time>
      </trkpt>
      <trkpt lat="43.94544" lon="0.19904">
        <ele>83.7</ele>
        <time>2018-04-27T13:10:55Z</time>
      </trkpt>
      <trkpt lat="43.94531" lon="0.19907">
        <ele>83.6</ele>
        <time>2018-04-27T13:11:09Z</time>
      </trkpt>
      <trkpt lat="43.94517" lon="0.19909">
        <ele>83.5</ele>
        <time>2018-04-27T13:11:23Z</time>
      </trkpt>
      <trkpt lat="43.94503" lon="0.19915">
        <ele>83.3</ele>
        <time>2018-04-27T13:11:38Z</time>
      </trkpt>
      <trkpt lat="43.9449" lon="0.1992">
        <ele>83.2</ele>
        <time>2018-04-27T13:11:51Z</time>
      </trkpt>
      <trkpt lat="43.94477" lon="0.19929">
        <ele>83.1</ele>
        <time>2018-04-27T13:12:04Z</time>
      </trkpt>
      <trkpt lat="43.94464" lon="0.19936">
        <ele>82.9</ele>
        <time>2018-04-27T13:12:17Z</time>
      </trkpt>
      <trkpt lat="43.94452" lon="0.19935">
        <ele>82.8</ele>
        <time>2018-04-27T13:12:28Z</time>
      </trkpt>
      <trkpt lat="43.9445" lon="0.19934">
        <ele>82.9</ele>
        <time>2018-04-27T13:12:30Z</time>
      </trkpt>
      <trkpt lat="43.94443" lon="0.19933">
        <ele>83.1</ele>
        <time>2018-04-27T13:12:35Z</time>
      </trkpt>
      <trkpt lat="43.94429" lon="0.19931">
        <ele>84.3</ele>
        <time>2018-04-27T13:13:06Z</time>
      </trkpt>
      <trkpt lat="43.94414" lon="0.19929">
        <ele>84.7</ele>
        <time>2018-04-27T13:13:17Z</time>
      </trkpt>
      <trkpt lat="43.944" lon="0.19928">
        <ele>85.1</ele>
        <time>2018-04-27T13:13:28Z</time>
      </trkpt>
      <trkpt lat="43.94385" lon="0.19923">
        <ele>85.7</ele>
        <time>2018-04-27T13:13:42Z</time>
      </trkpt>
      <trkpt lat="43.94375" lon="0.19921">
        <ele>86.1</ele>
        <time>2018-04-27T13:13:52Z</time>
      </trkpt>
      <trkpt lat="43.94371" lon="0.1992">
        <ele>86.7</ele>
        <time>2018-04-27T13:13:57Z</time>
      </trkpt>
      <trkpt lat="43.94357" lon="0.19916">
        <ele>88.2</ele>
        <time>2018-04-27T13:14:10Z</time>
      </trkpt>
      <trkpt lat="43.94346" lon="0.19912">
        <ele>89.7</ele>
        <time>2018-04-27T13:14:22Z</time>
      </trkpt>
      <trkpt lat="43.94343" lon="0.19911">
        <ele>89.9</ele>
        <time>2018-04-27T13:14:25Z</time>
      </trkpt>
      <trkpt lat="43.9433" lon="0.19903">
        <ele>90.7</ele>
        <time>2018-04-27T13:14:40Z</time>
      </trkpt>
      <trkpt lat="43.94318" lon="0.19894">
        <ele>91.5</ele>
        <time>2018-04-27T13:14:53Z</time>
      </trkpt>
      <trkpt lat="43.94303" lon="0.19892">
        <ele>92.5</ele>
        <time>2018-04-27T13:15:09Z</time>
      </trkpt>
      <trkpt lat="43.94297" lon="0.1989">
        <ele>92.9</ele>
        <time>2018-04-27T13:15:16Z</time>
      </trkpt>
      <trkpt lat="43.94289" lon="0.19889">
        <ele>92.4</ele>
        <time>2018-04-27T13:15:24Z</time>
      </trkpt>
      <trkpt lat="43.94275" lon="0.19886">
        <ele>91.4</ele>
        <time>2018-04-27T13:15:41Z</time>
      </trkpt>
      <trkpt lat="43.94261" lon="0.19881">
        <ele>90.7</ele>
        <time>2018-04-27T13:15:54Z</time>
      </trkpt>
      <trkpt lat="43.94247" lon="0.1988">
        <ele>90</ele>
        <time>2018-04-27T13:16:06Z</time>
      </trkpt>
      <trkpt lat="43.94236" lon="0.19876">
        <ele>89.4</ele>
        <time>2018-04-27T13:16:18Z</time>
      </trkpt>
      <trkpt lat="43.94234" lon="0.19875">
        <ele>89.3</ele>
        <time>2018-04-27T13:16:20Z</time>
      </trkpt>
      <trkpt lat="43.94221" lon="0.1987">
        <ele>88.7</ele>
        <time>2018-04-27T13:16:31Z</time>
      </trkpt>
      <trkpt lat="43.94208" lon="0.19863">
        <ele>88.1</ele>
        <time>2018-04-27T13:16:44Z</time>
      </trkpt>
      <trkpt lat="43.94195" lon="0.19855">
        <ele>87.5</ele>
        <time>2018-04-27T13:16:56Z</time>
      </trkpt>
      <trkpt lat="43.94184" lon="0.19844">
        <ele>86.8</ele>
        <time>2018-04-27T13:17:11Z</time>
      </trkpt>
      <trkpt lat="43.9417" lon="0.19839">
        <ele>86</ele>
        <time>2018-04-27T13:17:26Z</time>
      </trkpt>
      <trkpt lat="43.94166" lon="0.19835">
        <ele>85.9</ele>
        <time>2018-04-27T13:17:30Z</time>
      </trkpt>
      <trkpt lat="43.94158" lon="0.19829">
        <ele>85.3</ele>
        <time>2018-04-27T13:17:38Z</time>
      </trkpt>
      <trkpt lat="43.94146" lon="0.19816">
        <ele>84.3</ele>
        <time>2018-04-27T13:17:54Z</time>
      </trkpt>
      <trkpt lat="43.94133" lon="0.19808">
        <ele>83.5</ele>
        <time>2018-04-27T13:18:07Z</time>
      </trkpt>
      <trkpt lat="43.9412" lon="0.19799">
        <ele>82.6</ele>
        <time>2018-04-27T13:18:21Z</time>
      </trkpt>
      <trkpt lat="43.94117" lon="0.19797">
        <ele>82.5</ele>
        <time>2018-04-27T13:18:24Z</time>
      </trkpt>
      <trkpt lat="43.94107" lon="0.19791">
        <ele>82.9</ele>
        <time>2018-04-27T13:18:33Z</time>
      </trkpt>
      <trkpt lat="43.94098" lon="0.19775">
        <ele>83.5</ele>
        <time>2018-04-27T13:18:47Z</time>
      </trkpt>
      <trkpt lat="43.94087" lon="0.19762">
        <ele>84.3</ele>
        <time>2018-04-27T13:19:06Z</time>
      </trkpt>
      <trkpt lat="43.94084" lon="0.19742">
        <ele>84.9</ele>
        <time>2018-04-27T13:19:20Z</time>
      </trkpt>
      <trkpt lat="43.94086" lon="0.19732">
        <ele>85.2</ele>
        <time>2018-04-27T13:19:27Z</time>
      </trkpt>
      <trkpt lat="43.94077" lon="0.19723">
        <ele>85.6</ele>
        <time>2018-04-27T13:19:36Z</time>
      </trkpt>
      <trkpt lat="43.94075" lon="0.19721">
        <ele>85.6</ele>
        <time>2018-04-27T13:19:38Z</time>
      </trkpt>
      <trkpt lat="43.94063" lon="0.19709">
        <ele>85.7</ele>
        <time>2018-04-27T13:19:50Z</time>
      </trkpt>
      <trkpt lat="43.94055" lon="0.19693">
        <ele>85.7</ele>
        <time>2018-04-27T13:20:07Z</time>
      </trkpt>
      <trkpt lat="43.94047" lon="0.19677">
        <ele>85.8</ele>
        <time>2018-04-27T13:20:21Z</time>
      </trkpt>
      <trkpt lat="43.94035" lon="0.19668">
        <ele>85.8</ele>
        <time>2018-04-27T13:20:33Z</time>
      </trkpt>
      <trkpt lat="43.94022" lon="0.19663">
        <ele>85.9</ele>
        <time>2018-04-27T13:20:45Z</time>
      </trkpt>
      <trkpt lat="43.94009" lon="0.19655">
        <ele>85.9</ele>
        <time>2018-04-27T13:21:00Z</time>
      </trkpt>
      <trkpt lat="43.93994" lon="0.19653">
        <ele>85.9</ele>
        <time>2018-04-27T13:21:17Z</time>
      </trkpt>
      <trkpt lat="43.93981" lon="0.19651">
        <ele>86</ele>
        <time>2018-04-27T13:21:28Z</time>
      </trkpt>
      <trkpt lat="43.93965" lon="0.19649">
        <ele>86</ele>
        <time>2018-04-27T13:21:44Z</time>
      </trkpt>
      <trkpt lat="43.93951" lon="0.19647">
        <ele>86.1</ele>
        <time>2018-04-27T13:21:57Z</time>
      </trkpt>
      <trkpt lat="43.93937" lon="0.19644">
        <ele>86.1</ele>
        <time>2018-04-27T13:22:10Z</time>
      </trkpt>
      <trkpt lat="43.93923" lon="0.19637">
        <ele>86.2</ele>
        <time>2018-04-27T13:22:26Z</time>
      </trkpt>
      <trkpt lat="43.93909" lon="0.19634">
        <ele>86.2</ele>
        <time>2018-04-27T13:22:39Z</time>
      </trkpt>
      <trkpt lat="43.93895" lon="0.19632">
        <ele>86.2</ele>
        <time>2018-04-27T13:22:50Z</time>
      </trkpt>
      <trkpt lat="43.93882" lon="0.19628">
        <ele>86.3</ele>
        <time>2018-04-27T13:23:02Z</time>
      </trkpt>
      <trkpt lat="43.93868" lon="0.19626">
        <ele>86.3</ele>
        <time>2018-04-27T13:23:17Z</time>
      </trkpt>
      <trkpt lat="43.93854" lon="0.19627">
        <ele>86.4</ele>
        <time>2018-04-27T13:23:32Z</time>
      </trkpt>
      <trkpt lat="43.93841" lon="0.19618">
        <ele>86.4</ele>
        <time>2018-04-27T13:23:47Z</time>
      </trkpt>
      <trkpt lat="43.93827" lon="0.19612">
        <ele>86.4</ele>
        <time>2018-04-27T13:24:00Z</time>
      </trkpt>
      <trkpt lat="43.93815" lon="0.19605">
        <ele>86.5</ele>
        <time>2018-04-27T13:24:14Z</time>
      </trkpt>
      <trkpt lat="43.9381" lon="0.19605">
        <ele>86.5</ele>
        <time>2018-04-27T13:24:18Z</time>
      </trkpt>
      <trkpt lat="43.93797" lon="0.19597">
        <ele>86.5</ele>
        <time>2018-04-27T13:24:33Z</time>
      </trkpt>
      <trkpt lat="43.93783" lon="0.19593">
        <ele>86.6</ele>
        <time>2018-04-27T13:24:49Z</time>
      </trkpt>
      <trkpt lat="43.9377" lon="0.19586">
        <ele>86.6</ele>
        <time>2018-04-27T13:25:02Z</time>
      </trkpt>
      <trkpt lat="43.93756" lon="0.19582">
        <ele>86.7</ele>
        <time>2018-04-27T13:25:16Z</time>
      </trkpt>
      <trkpt lat="43.93742" lon="0.19582">
        <ele>86.7</ele>
        <time>2018-04-27T13:25:29Z</time>
      </trkpt>
      <trkpt lat="43.93728" lon="0.19579">
        <ele>86.7</ele>
        <time>2018-04-27T13:25:41Z</time>
      </trkpt>
      <trkpt lat="43.93715" lon="0.19575">
        <ele>86.8</ele>
        <time>2018-04-27T13:25:54Z</time>
      </trkpt>
      <trkpt lat="43.93701" lon="0.1957">
        <ele>86.8</ele>
        <time>2018-04-27T13:26:06Z</time>
      </trkpt>
      <trkpt lat="43.93687" lon="0.19565">
        <ele>86.9</ele>
        <time>2018-04-27T13:26:20Z</time>
      </trkpt>
      <trkpt lat="43.93673" lon="0.19567">
        <ele>86.9</ele>
        <time>2018-04-27T13:26:32Z</time>
      </trkpt>
      <trkpt lat="43.93659" lon="0.19566">
        <ele>86.9</ele>
        <time>2018-04-27T13:26:46Z</time>
      </trkpt>
      <trkpt lat="43.93644" lon="0.19567">
        <ele>87</ele>
        <time>2018-04-27T13:27:00Z</time>
      </trkpt>
      <trkpt lat="43.9363" lon="0.19565">
        <ele>87</ele>
        <time>2018-04-27T13:27:12Z</time>
      </trkpt>
      <trkpt lat="43.93616" lon="0.19568">
        <ele>87.1</ele>
        <time>2018-04-27T13:27:27Z</time>
      </trkpt>
      <trkpt lat="43.93602" lon="0.1957">
        <ele>87.1</ele>
        <time>2018-04-27T13:27:39Z</time>
      </trkpt>
      <trkpt lat="43.93588" lon="0.19573">
        <ele>87.1</ele>
        <time>2018-04-27T13:27:51Z</time>
      </trkpt>
      <trkpt lat="43.93574" lon="0.1957">
        <ele>87.2</ele>
        <time>2018-04-27T13:28:07Z</time>
      </trkpt>
      <trkpt lat="43.9356" lon="0.19572">
        <ele>87.2</ele>
        <time>2018-04-27T13:28:21Z</time>
      </trkpt>
      <trkpt lat="43.93546" lon="0.19574">
        <ele>87.3</ele>
        <time>2018-04-27T13:28:34Z</time>
      </trkpt>
      <trkpt lat="43.93533" lon="0.19571">
        <ele>87.3</ele>
        <time>2018-04-27T13:28:47Z</time>
      </trkpt>
      <trkpt lat="43.93518" lon="0.19575">
        <ele>87.3</ele>
        <time>2018-04-27T13:28:59Z</time>
      </trkpt>
      <trkpt lat="43.93506" lon="0.19585">
        <ele>87.4</ele>
        <time>2018-04-27T13:29:15Z</time>
      </trkpt>
      <trkpt lat="43.93493" lon="0.19591">
        <ele>87.4</ele>
        <time>2018-04-27T13:29:29Z</time>
      </trkpt>
      <trkpt lat="43.93478" lon="0.19593">
        <ele>87.5</ele>
        <time>2018-04-27T13:29:43Z</time>
      </trkpt>
      <trkpt lat="43.93464" lon="0.19593">
        <ele>87.5</ele>
        <time>2018-04-27T13:29:53Z</time>
      </trkpt>
      <trkpt lat="43.93451" lon="0.19593">
        <ele>87.5</ele>
        <time>2018-04-27T13:30:04Z</time>
      </trkpt>
      <trkpt lat="43.93437" lon="0.19591">
        <ele>87.6</ele>
        <time>2018-04-27T13:30:17Z</time>
      </trkpt>
      <trkpt lat="43.93423" lon="0.19591">
        <ele>87.6</ele>
        <time>2018-04-27T13:30:29Z</time>
      </trkpt>
      <trkpt lat="43.93409" lon="0.1959">
        <ele>87.7</ele>
        <time>2018-04-27T13:30:43Z</time>
      </trkpt>
      <trkpt lat="43.93395" lon="0.19595">
        <ele>87.7</ele>
        <time>2018-04-27T13:31:06Z</time>
      </trkpt>
      <trkpt lat="43.93384" lon="0.19596">
        <ele>87.8</ele>
        <time>2018-04-27T13:31:31Z</time>
      </trkpt>
      <trkpt lat="43.93372" lon="0.19606">
        <ele>88.1</ele>
        <time>2018-04-27T13:33:01Z</time>
      </trkpt>
      <trkpt lat="43.9336" lon="0.19613">
        <ele>88.1</ele>
        <time>2018-04-27T13:33:17Z</time>
      </trkpt>
      <trkpt lat="43.93347" lon="0.19618">
        <ele>88.2</ele>
        <time>2018-04-27T13:33:33Z</time>
      </trkpt>
      <trkpt lat="43.93333" lon="0.19619">
        <ele>88.2</ele>
        <time>2018-04-27T13:33:45Z</time>
      </trkpt>
      <trkpt lat="43.93319" lon="0.19618">
        <ele>88.2</ele>
        <time>2018-04-27T13:33:58Z</time>
      </trkpt>
      <trkpt lat="43.93305" lon="0.19619">
        <ele>88.3</ele>
        <time>2018-04-27T13:34:13Z</time>
      </trkpt>
      <trkpt lat="43.9329" lon="0.19617">
        <ele>88.3</ele>
        <time>2018-04-27T13:34:27Z</time>
      </trkpt>
      <trkpt lat="43.93277" lon="0.19612">
        <ele>88.4</ele>
        <time>2018-04-27T13:34:40Z</time>
      </trkpt>
      <trkpt lat="43.93263" lon="0.19613">
        <ele>88.4</ele>
        <time>2018-04-27T13:34:52Z</time>
      </trkpt>
      <trkpt lat="43.9325" lon="0.19606">
        <ele>88.4</ele>
        <time>2018-04-27T13:35:06Z</time>
      </trkpt>
      <trkpt lat="43.93235" lon="0.19606">
        <ele>88.5</ele>
        <time>2018-04-27T13:35:20Z</time>
      </trkpt>
      <trkpt lat="43.93222" lon="0.19605">
        <ele>88.5</ele>
        <time>2018-04-27T13:35:34Z</time>
      </trkpt>
      <trkpt lat="43.93207" lon="0.19602">
        <ele>88.6</ele>
        <time>2018-04-27T13:35:48Z</time>
      </trkpt>
      <trkpt lat="43.93192" lon="0.19601">
        <ele>88.6</ele>
        <time>2018-04-27T13:36:00Z</time>
      </trkpt>
      <trkpt lat="43.93178" lon="0.196">
        <ele>88.7</ele>
        <time>2018-04-27T13:36:17Z</time>
      </trkpt>
      <trkpt lat="43.93165" lon="0.19597">
        <ele>88.7</ele>
        <time>2018-04-27T13:36:29Z</time>
      </trkpt>
      <trkpt lat="43.93151" lon="0.19596">
        <ele>88.7</ele>
        <time>2018-04-27T13:36:42Z</time>
      </trkpt>
      <trkpt lat="43.93143" lon="0.19593">
        <ele>88.8</ele>
        <time>2018-04-27T13:36:52Z</time>
      </trkpt>
      <trkpt lat="43.93138" lon="0.1959">
        <ele>88.4</ele>
        <time>2018-04-27T13:36:58Z</time>
      </trkpt>
      <trkpt lat="43.93125" lon="0.19583">
        <ele>87.7</ele>
        <time>2018-04-27T13:37:09Z</time>
      </trkpt>
      <trkpt lat="43.93113" lon="0.19574">
        <ele>86.8</ele>
        <time>2018-04-27T13:37:22Z</time>
      </trkpt>
      <trkpt lat="43.93101" lon="0.19562">
        <ele>85.8</ele>
        <time>2018-04-27T13:37:38Z</time>
      </trkpt>
      <trkpt lat="43.93089" lon="0.19551">
        <ele>85.1</ele>
        <time>2018-04-27T13:37:49Z</time>
      </trkpt>
      <trkpt lat="43.93078" lon="0.1954">
        <ele>85.4</ele>
        <time>2018-04-27T13:37:59Z</time>
      </trkpt>
      <trkpt lat="43.93065" lon="0.19531">
        <ele>85.8</ele>
        <time>2018-04-27T13:38:11Z</time>
      </trkpt>
      <trkpt lat="43.93051" lon="0.19536">
        <ele>86.4</ele>
        <time>2018-04-27T13:38:28Z</time>
      </trkpt>
      <trkpt lat="43.93037" lon="0.19533">
        <ele>87.1</ele>
        <time>2018-04-27T13:38:47Z</time>
      </trkpt>
      <trkpt lat="43.93023" lon="0.19532">
        <ele>87.6</ele>
        <time>2018-04-27T13:39:01Z</time>
      </trkpt>
      <trkpt lat="43.93009" lon="0.1953">
        <ele>88.1</ele>
        <time>2018-04-27T13:39:15Z</time>
      </trkpt>
      <trkpt lat="43.92995" lon="0.19535">
        <ele>88.6</ele>
        <time>2018-04-27T13:39:30Z</time>
      </trkpt>
      <trkpt lat="43.92994" lon="0.19536">
        <ele>88.6</ele>
        <time>2018-04-27T13:39:31Z</time>
      </trkpt>
      <trkpt lat="43.92982" lon="0.19541">
        <ele>89.5</ele>
        <time>2018-04-27T13:39:44Z</time>
      </trkpt>
      <trkpt lat="43.92968" lon="0.19537">
        <ele>90.3</ele>
        <time>2018-04-27T13:39:56Z</time>
      </trkpt>
      <trkpt lat="43.92955" lon="0.19542">
        <ele>91.1</ele>
        <time>2018-04-27T13:40:08Z</time>
      </trkpt>
      <trkpt lat="43.92941" lon="0.19544">
        <ele>92.1</ele>
        <time>2018-04-27T13:40:23Z</time>
      </trkpt>
      <trkpt lat="43.92939" lon="0.19545">
        <ele>92.3</ele>
        <time>2018-04-27T13:40:25Z</time>
      </trkpt>
      <trkpt lat="43.92927" lon="0.19549">
        <ele>92.8</ele>
        <time>2018-04-27T13:40:38Z</time>
      </trkpt>
      <trkpt lat="43.92914" lon="0.19556">
        <ele>93.5</ele>
        <time>2018-04-27T13:40:54Z</time>
      </trkpt>
      <trkpt lat="43.92901" lon="0.19562">
        <ele>94</ele>
        <time>2018-04-27T13:41:07Z</time>
      </trkpt>
      <trkpt lat="43.92887" lon="0.19557">
        <ele>94.6</ele>
        <time>2018-04-27T13:41:21Z</time>
      </trkpt>
      <trkpt lat="43.92873" lon="0.19552">
        <ele>95.3</ele>
        <time>2018-04-27T13:41:37Z</time>
      </trkpt>
      <trkpt lat="43.92867" lon="0.19552">
        <ele>95.5</ele>
        <time>2018-04-27T13:41:43Z</time>
      </trkpt>
      <trkpt lat="43.92859" lon="0.19552">
        <ele>96.2</ele>
        <time>2018-04-27T13:41:51Z</time>
      </trkpt>
      <trkpt lat="43.92846" lon="0.19549">
        <ele>97.3</ele>
        <time>2018-04-27T13:42:04Z</time>
      </trkpt>
      <trkpt lat="43.9283" lon="0.19551">
        <ele>98.5</ele>
        <time>2018-04-27T13:42:18Z</time>
      </trkpt>
      <trkpt lat="43.9283" lon="0.19551">
        <ele>98.6</ele>
        <time>2018-04-27T13:42:19Z</time>
      </trkpt>
      <trkpt lat="43.92817" lon="0.19552">
        <ele>99.6</ele>
        <time>2018-04-27T13:42:33Z</time>
      </trkpt>
      <trkpt lat="43.92804" lon="0.19545">
        <ele>100.4</ele>
        <time>2018-04-27T13:42:46Z</time>
      </trkpt>
      <trkpt lat="43.9279" lon="0.19546">
        <ele>101.4</ele>
        <time>2018-04-27T13:43:00Z</time>
      </trkpt>
      <trkpt lat="43.92784" lon="0.19544">
        <ele>101.8</ele>
        <time>2018-04-27T13:43:07Z</time>
      </trkpt>
      <trkpt lat="43.92776" lon="0.19543">
        <ele>102.3</ele>
        <time>2018-04-27T13:43:15Z</time>
      </trkpt>
      <trkpt lat="43.92762" lon="0.19544">
        <ele>103.3</ele>
        <time>2018-04-27T13:43:30Z</time>
      </trkpt>
      <trkpt lat="43.9275" lon="0.19534">
        <ele>104.2</ele>
        <time>2018-04-27T13:43:46Z</time>
      </trkpt>
      <trkpt lat="43.92736" lon="0.19534">
        <ele>105.1</ele>
        <time>2018-04-27T13:43:59Z</time>
      </trkpt>
      <trkpt lat="43.92735" lon="0.19534">
        <ele>105.1</ele>
        <time>2018-04-27T13:44:00Z</time>
      </trkpt>
      <trkpt lat="43.92723" lon="0.19542">
        <ele>105.9</ele>
        <time>2018-04-27T13:44:11Z</time>
      </trkpt>
      <trkpt lat="43.92711" lon="0.19551">
        <ele>106.9</ele>
        <time>2018-04-27T13:44:25Z</time>
      </trkpt>
      <trkpt lat="43.927" lon="0.19564">
        <ele>107.9</ele>
        <time>2018-04-27T13:44:39Z</time>
      </trkpt>
      <trkpt lat="43.92692" lon="0.19574">
        <ele>108.6</ele>
        <time>2018-04-27T13:44:50Z</time>
      </trkpt>
      <trkpt lat="43.9269" lon="0.19577">
        <ele>108.5</ele>
        <time>2018-04-27T13:44:54Z</time>
      </trkpt>
      <trkpt lat="43.92678" lon="0.19588">
        <ele>108.1</ele>
        <time>2018-04-27T13:45:08Z</time>
      </trkpt>
      <trkpt lat="43.92664" lon="0.19594">
        <ele>105.7</ele>
        <time>2018-04-27T13:46:33Z</time>
      </trkpt>
      <trkpt lat="43.92651" lon="0.19601">
        <ele>105.3</ele>
        <time>2018-04-27T13:46:48Z</time>
      </trkpt>
      <trkpt lat="43.92649" lon="0.19602">
        <ele>105.2</ele>
        <time>2018-04-27T13:46:50Z</time>
      </trkpt>
      <trkpt lat="43.92637" lon="0.19606">
        <ele>103.6</ele>
        <time>2018-04-27T13:47:03Z</time>
      </trkpt>
      <trkpt lat="43.92625" lon="0.19614">
        <ele>101.9</ele>
        <time>2018-04-27T13:47:17Z</time>
      </trkpt>
      <trkpt lat="43.92622" lon="0.19612">
        <ele>101.5</ele>
        <time>2018-04-27T13:47:20Z</time>
      </trkpt>
      <trkpt lat="43.92612" lon="0.19607">
        <ele>101.5</ele>
        <time>2018-04-27T13:47:30Z</time>
      </trkpt>
      <trkpt lat="43.92598" lon="0.19613">
        <ele>101.4</ele>
        <time>2018-04-27T13:47:47Z</time>
      </trkpt>
      <trkpt lat="43.92584" lon="0.19617">
        <ele>101.4</ele>
        <time>2018-04-27T13:48:00Z</time>
      </trkpt>
      <trkpt lat="43.92574" lon="0.1963">
        <ele>101.3</ele>
        <time>2018-04-27T13:48:14Z</time>
      </trkpt>
      <trkpt lat="43.92561" lon="0.19638">
        <ele>101.2</ele>
        <time>2018-04-27T13:48:28Z</time>
      </trkpt>
      <trkpt lat="43.92547" lon="0.19642">
        <ele>101.2</ele>
        <time>2018-04-27T13:48:40Z</time>
      </trkpt>
      <trkpt lat="43.92534" lon="0.19646">
        <ele>101.1</ele>
        <time>2018-04-27T13:48:53Z</time>
      </trkpt>
      <trkpt lat="43.92521" lon="0.19654">
        <ele>101.1</ele>
        <time>2018-04-27T13:49:07Z</time>
      </trkpt>
      <trkpt lat="43.9251" lon="0.19664">
        <ele>101</ele>
        <time>2018-04-27T13:49:20Z</time>
      </trkpt>
      <trkpt lat="43.92496" lon="0.1967">
        <ele>101</ele>
        <time>2018-04-27T13:49:33Z</time>
      </trkpt>
      <trkpt lat="43.92483" lon="0.19673">
        <ele>100.9</ele>
        <time>2018-04-27T13:49:48Z</time>
      </trkpt>
      <trkpt lat="43.92471" lon="0.19682">
        <ele>100.9</ele>
        <time>2018-04-27T13:50:01Z</time>
      </trkpt>
      <trkpt lat="43.92457" lon="0.19685">
        <ele>100.8</ele>
        <time>2018-04-27T13:50:10Z</time>
      </trkpt>
      <trkpt lat="43.92444" lon="0.19694">
        <ele>100.8</ele>
        <time>2018-04-27T13:50:23Z</time>
      </trkpt>
      <trkpt lat="43.92431" lon="0.19697">
        <ele>100.7</ele>
        <time>2018-04-27T13:50:38Z</time>
      </trkpt>
      <trkpt lat="43.92419" lon="0.19706">
        <ele>100.7</ele>
        <time>2018-04-27T13:50:50Z</time>
      </trkpt>
      <trkpt lat="43.92406" lon="0.19715">
        <ele>100.6</ele>
        <time>2018-04-27T13:51:02Z</time>
      </trkpt>
      <trkpt lat="43.92392" lon="0.19722">
        <ele>100.5</ele>
        <time>2018-04-27T13:51:15Z</time>
      </trkpt>
      <trkpt lat="43.92379" lon="0.19731">
        <ele>100.5</ele>
        <time>2018-04-27T13:51:30Z</time>
      </trkpt>
      <trkpt lat="43.92375" lon="0.1973">
        <ele>100.5</ele>
        <time>2018-04-27T13:51:34Z</time>
      </trkpt>
      <trkpt lat="43.92363" lon="0.19739">
        <ele>100.4</ele>
        <time>2018-04-27T13:51:47Z</time>
      </trkpt>
      <trkpt lat="43.9235" lon="0.19751">
        <ele>100.4</ele>
        <time>2018-04-27T13:52:00Z</time>
      </trkpt>
      <trkpt lat="43.9234" lon="0.19763">
        <ele>100.3</ele>
        <time>2018-04-27T13:52:11Z</time>
      </trkpt>
      <trkpt lat="43.92326" lon="0.19767">
        <ele>100.3</ele>
        <time>2018-04-27T13:52:23Z</time>
      </trkpt>
      <trkpt lat="43.92319" lon="0.19782">
        <ele>100.2</ele>
        <time>2018-04-27T13:52:37Z</time>
      </trkpt>
      <trkpt lat="43.92308" lon="0.19794">
        <ele>100.1</ele>
        <time>2018-04-27T13:52:53Z</time>
      </trkpt>
      <trkpt lat="43.92297" lon="0.19805">
        <ele>100.1</ele>
        <time>2018-04-27T13:53:05Z</time>
      </trkpt>
      <trkpt lat="43.92287" lon="0.1982">
        <ele>100</ele>
        <time>2018-04-27T13:53:17Z</time>
      </trkpt>
      <trkpt lat="43.92275" lon="0.19832">
        <ele>100</ele>
        <time>2018-04-27T13:53:26Z</time>
      </trkpt>
      <trkpt lat="43.92269" lon="0.19849">
        <ele>99.9</ele>
        <time>2018-04-27T13:53:41Z</time>
      </trkpt>
      <trkpt lat="43.92261" lon="0.19865">
        <ele>99.9</ele>
        <time>2018-04-27T13:53:55Z</time>
      </trkpt>
      <trkpt lat="43.92252" lon="0.19881">
        <ele>99.8</ele>
        <time>2018-04-27T13:54:09Z</time>
      </trkpt>
      <trkpt lat="43.92243" lon="0.19897">
        <ele>99.8</ele>
        <time>2018-04-27T13:54:21Z</time>
      </trkpt>
      <trkpt lat="43.92235" lon="0.19912">
        <ele>99.7</ele>
        <time>2018-04-27T13:54:37Z</time>
      </trkpt>
      <trkpt lat="43.92228" lon="0.19931">
        <ele>99.6</ele>
        <time>2018-04-27T13:54:52Z</time>
      </trkpt>
      <trkpt lat="43.92219" lon="0.19947">
        <ele>99.6</ele>
        <time>2018-04-27T13:55:04Z</time>
      </trkpt>
      <trkpt lat="43.92214" lon="0.19966">
        <ele>99.5</ele>
        <time>2018-04-27T13:55:18Z</time>
      </trkpt>
      <trkpt lat="43.92207" lon="0.19983">
        <ele>99.5</ele>
        <time>2018-04-27T13:55:33Z</time>
      </trkpt>
      <trkpt lat="43.92202" lon="0.2">
        <ele>99.4</ele>
        <time>2018-04-27T13:55:44Z</time>
      </trkpt>
      <trkpt lat="43.92193" lon="0.20016">
        <ele>99.4</ele>
        <time>2018-04-27T13:55:54Z</time>
      </trkpt>
      <trkpt lat="43.92186" lon="0.20033">
        <ele>99.3</ele>
        <time>2018-04-27T13:56:06Z</time>
      </trkpt>
      <trkpt lat="43.92181" lon="0.20051">
        <ele>99.3</ele>
        <time>2018-04-27T13:56:22Z</time>
      </trkpt>
      <trkpt lat="43.92174" lon="0.20068">
        <ele>99.2</ele>
        <time>2018-04-27T13:56:34Z</time>
      </trkpt>
      <trkpt lat="43.92166" lon="0.20085">
        <ele>99.2</ele>
        <time>2018-04-27T13:56:47Z</time>
      </trkpt>
      <trkpt lat="43.92161" lon="0.20103">
        <ele>99.1</ele>
        <time>2018-04-27T13:57:02Z</time>
      </trkpt>
      <trkpt lat="43.92152" lon="0.20118">
        <ele>99</ele>
        <time>2018-04-27T13:57:15Z</time>
      </trkpt>
      <trkpt lat="43.92141" lon="0.20131">
        <ele>99</ele>
        <time>2018-04-27T13:57:26Z</time>
      </trkpt>
      <trkpt lat="43.92134" lon="0.20147">
        <ele>98.9</ele>
        <time>2018-04-27T13:57:44Z</time>
      </trkpt>
      <trkpt lat="43.92124" lon="0.20162">
        <ele>98.9</ele>
        <time>2018-04-27T13:57:55Z</time>
      </trkpt>
      <trkpt lat="43.92115" lon="0.20178">
        <ele>98.8</ele>
        <time>2018-04-27T13:58:08Z</time>
      </trkpt>
      <trkpt lat="43.92103" lon="0.20189">
        <ele>98.7</ele>
        <time>2018-04-27T13:58:25Z</time>
      </trkpt>
      <trkpt lat="43.92092" lon="0.20202">
        <ele>98.7</ele>
        <time>2018-04-27T13:58:35Z</time>
      </trkpt>
      <trkpt lat="43.92083" lon="0.20217">
        <ele>98.7</ele>
        <time>2018-04-27T13:58:46Z</time>
      </trkpt>
      <trkpt lat="43.92072" lon="0.20229">
        <ele>98.6</ele>
        <time>2018-04-27T13:59:01Z</time>
      </trkpt>
      <trkpt lat="43.92061" lon="0.20241">
        <ele>98.5</ele>
        <time>2018-04-27T13:59:13Z</time>
      </trkpt>
      <trkpt lat="43.92049" lon="0.20252">
        <ele>98.5</ele>
        <time>2018-04-27T13:59:27Z</time>
      </trkpt>
      <trkpt lat="43.92038" lon="0.20266">
        <ele>98.4</ele>
        <time>2018-04-27T13:59:40Z</time>
      </trkpt>
      <trkpt lat="43.92033" lon="0.20278">
        <ele>98.4</ele>
        <time>2018-04-27T13:59:54Z</time>
      </trkpt>
      <trkpt lat="43.92042" lon="0.20292">
        <ele>98.3</ele>
        <time>2018-04-27T14:00:08Z</time>
      </trkpt>
      <trkpt lat="43.92048" lon="0.203">
        <ele>98.3</ele>
        <time>2018-04-27T14:00:17Z</time>
      </trkpt>
      <trkpt lat="43.92055" lon="0.20284">
        <ele>98.2</ele>
        <time>2018-04-27T14:00:31Z</time>
      </trkpt>
      <trkpt lat="43.92059" lon="0.20277">
        <ele>98.2</ele>
        <time>2018-04-27T14:00:36Z</time>
      </trkpt>
      <trkpt lat="43.92063" lon="0.20268">
        <ele>97.2</ele>
        <time>2018-04-27T14:00:43Z</time>
      </trkpt>
      <trkpt lat="43.9207" lon="0.20251">
        <ele>95.7</ele>
        <time>2018-04-27T14:00:54Z</time>
      </trkpt>
      <trkpt lat="43.92071" lon="0.2024">
        <ele>94.9</ele>
        <time>2018-04-27T14:01:00Z</time>
      </trkpt>
      <trkpt lat="43.92071" lon="0.20232">
        <ele>94.6</ele>
        <time>2018-04-27T14:01:04Z</time>
      </trkpt>
      <trkpt lat="43.9207" lon="0.20213">
        <ele>93.3</ele>
        <time>2018-04-27T14:01:21Z</time>
      </trkpt>
      <trkpt lat="43.92074" lon="0.20195">
        <ele>92.2</ele>
        <time>2018-04-27T14:01:36Z</time>
      </trkpt>
      <trkpt lat="43.92075" lon="0.20188">
        <ele>91.8</ele>
        <time>2018-04-27T14:01:42Z</time>
      </trkpt>
      <trkpt lat="43.92078" lon="0.20175">
        <ele>91.3</ele>
        <time>2018-04-27T14:01:53Z</time>
      </trkpt>
      <trkpt lat="43.92086" lon="0.20159">
        <ele>90.8</ele>
        <time>2018-04-27T14:02:04Z</time>
      </trkpt>
      <trkpt lat="43.92085" lon="0.20151">
        <ele>90.4</ele>
        <time>2018-04-27T14:02:12Z</time>
      </trkpt>
      <trkpt lat="43.92076" lon="0.20135">
        <ele>89.9</ele>
        <time>2018-04-27T14:02:24Z</time>
      </trkpt>
      <trkpt lat="43.92077" lon="0.20115">
        <ele>89.2</ele>
        <time>2018-04-27T14:02:38Z</time>
      </trkpt>
      <trkpt lat="43.92081" lon="0.20103">
        <ele>88.7</ele>
        <time>2018-04-27T14:02:49Z</time>
      </trkpt>
      <trkpt lat="43.92082" lon="0.20098">
        <ele>88.8</ele>
        <time>2018-04-27T14:02:53Z</time>
      </trkpt>
      <trkpt lat="43.92079" lon="0.2008">
        <ele>88.9</ele>
        <time>2018-04-27T14:03:06Z</time>
      </trkpt>
      <trkpt lat="43.92078" lon="0.20061">
        <ele>88.9</ele>
        <time>2018-04-27T14:03:16Z</time>
      </trkpt>
      <trkpt lat="43.9208" lon="0.20038">
        <ele>89.2</ele>
        <time>2018-04-27T14:03:45Z</time>
      </trkpt>
      <trkpt lat="43.92084" lon="0.20019">
        <ele>89.6</ele>
        <time>2018-04-27T14:04:44Z</time>
      </trkpt>
      <trkpt lat="43.92085" lon="0.19999">
        <ele>89.7</ele>
        <time>2018-04-27T14:05:00Z</time>
      </trkpt>
      <trkpt lat="43.92085" lon="0.19987">
        <ele>89.8</ele>
        <time>2018-04-27T14:05:13Z</time>
      </trkpt>
      <trkpt lat="43.92086" lon="0.19967">
        <ele>89.9</ele>
        <time>2018-04-27T14:05:25Z</time>
      </trkpt>
      <trkpt lat="43.9209" lon="0.19948">
        <ele>90</ele>
        <time>2018-04-27T14:05:35Z</time>
      </trkpt>
      <trkpt lat="43.9209" lon="0.19928">
        <ele>90.1</ele>
        <time>2018-04-27T14:05:50Z</time>
      </trkpt>
      <trkpt lat="43.92092" lon="0.1991">
        <ele>90.2</ele>
        <time>2018-04-27T14:06:03Z</time>
      </trkpt>
      <trkpt lat="43.92096" lon="0.19891">
        <ele>90.3</ele>
        <time>2018-04-27T14:06:15Z</time>
      </trkpt>
      <trkpt lat="43.92093" lon="0.19872">
        <ele>90.4</ele>
        <time>2018-04-27T14:06:28Z</time>
      </trkpt>
      <trkpt lat="43.92097" lon="0.19854">
        <ele>90.5</ele>
        <time>2018-04-27T14:06:39Z</time>
      </trkpt>
      <trkpt lat="43.92101" lon="0.19834">
        <ele>90.6</ele>
        <time>2018-04-27T14:06:51Z</time>
      </trkpt>
      <trkpt lat="43.921" lon="0.19816">
        <ele>90.7</ele>
        <time>2018-04-27T14:07:05Z</time>
      </trkpt>
      <trkpt lat="43.92103" lon="0.19797">
        <ele>90.8</ele>
        <time>2018-04-27T14:07:18Z</time>
      </trkpt>
      <trkpt lat="43.92104" lon="0.19777">
        <ele>90.9</ele>
        <time>2018-04-27T14:07:32Z</time>
      </trkpt>
      <trkpt lat="43.92103" lon="0.19756">
        <ele>91</ele>
        <time>2018-04-27T14:07:45Z</time>
      </trkpt>
      <trkpt lat="43.92103" lon="0.19737">
        <ele>91.1</ele>
        <time>2018-04-27T14:08:00Z</time>
      </trkpt>
      <trkpt lat="43.92106" lon="0.19718">
        <ele>91.2</ele>
        <time>2018-04-27T14:08:14Z</time>
      </trkpt>
      <trkpt lat="43.92107" lon="0.19699">
        <ele>91.3</ele>
        <time>2018-04-27T14:08:27Z</time>
      </trkpt>
      <trkpt lat="43.92112" lon="0.1968">
        <ele>91.4</ele>
        <time>2018-04-27T14:08:39Z</time>
      </trkpt>
      <trkpt lat="43.92117" lon="0.19661">
        <ele>91.5</ele>
        <time>2018-04-27T14:08:50Z</time>
      </trkpt>
      <trkpt lat="43.92114" lon="0.19642">
        <ele>91.6</ele>
        <time>2018-04-27T14:09:04Z</time>
      </trkpt>
      <trkpt lat="43.92115" lon="0.19623">
        <ele>91.7</ele>
        <time>2018-04-27T14:09:16Z</time>
      </trkpt>
      <trkpt lat="43.9212" lon="0.19605">
        <ele>91.8</ele>
        <time>2018-04-27T14:09:26Z</time>
      </trkpt>
      <trkpt lat="43.92122" lon="0.19585">
        <ele>91.9</ele>
        <time>2018-04-27T14:09:38Z</time>
      </trkpt>
      <trkpt lat="43.92122" lon="0.19564">
        <ele>92</ele>
        <time>2018-04-27T14:09:54Z</time>
      </trkpt>
      <trkpt lat="43.92116" lon="0.19547">
        <ele>92.1</ele>
        <time>2018-04-27T14:10:06Z</time>
      </trkpt>
      <trkpt lat="43.92106" lon="0.19533">
        <ele>92.2</ele>
        <time>2018-04-27T14:10:19Z</time>
      </trkpt>
      <trkpt lat="43.92094" lon="0.19522">
        <ele>92.3</ele>
        <time>2018-04-27T14:10:31Z</time>
      </trkpt>
      <trkpt lat="43.92085" lon="0.19507">
        <ele>92.4</ele>
        <time>2018-04-27T14:10:45Z</time>
      </trkpt>
      <trkpt lat="43.92073" lon="0.19495">
        <ele>94</ele>
        <time>2018-04-27T14:11:00Z</time>
      </trkpt>
      <trkpt lat="43.92062" lon="0.19484">
        <ele>95.3</ele>
        <time>2018-04-27T14:11:12Z</time>
      </trkpt>
      <trkpt lat="43.92059" lon="0.19481">
        <ele>95.6</ele>
        <time>2018-04-27T14:11:15Z</time>
      </trkpt>
      <trkpt lat="43.92051" lon="0.19472">
        <ele>96.9</ele>
        <time>2018-04-27T14:11:25Z</time>
      </trkpt>
      <trkpt lat="43.92042" lon="0.19457">
        <ele>98.7</ele>
        <time>2018-04-27T14:11:39Z</time>
      </trkpt>
      <trkpt lat="43.92031" lon="0.19447">
        <ele>100.8</ele>
        <time>2018-04-27T14:11:54Z</time>
      </trkpt>
      <trkpt lat="43.92023" lon="0.19437">
        <ele>102</ele>
        <time>2018-04-27T14:12:03Z</time>
      </trkpt>
      <trkpt lat="43.92021" lon="0.19434">
        <ele>102.3</ele>
        <time>2018-04-27T14:12:06Z</time>
      </trkpt>
      <trkpt lat="43.92014" lon="0.19427">
        <ele>103.3</ele>
        <time>2018-04-27T14:12:15Z</time>
      </trkpt>
      <trkpt lat="43.9201" lon="0.19422">
        <ele>103.9</ele>
        <time>2018-04-27T14:12:20Z</time>
      </trkpt>
      <trkpt lat="43.9201" lon="0.19421">
        <ele>104.1</ele>
        <time>2018-04-27T14:12:21Z</time>
      </trkpt>
      <trkpt lat="43.92006" lon="0.19416">
        <ele>104.4</ele>
        <time>2018-04-27T14:12:27Z</time>
      </trkpt>
      <trkpt lat="43.92" lon="0.19409">
        <ele>105.4</ele>
        <time>2018-04-27T14:12:35Z</time>
      </trkpt>
      <trkpt lat="43.9199" lon="0.19394">
        <ele>107.2</ele>
        <time>2018-04-27T14:12:49Z</time>
      </trkpt>
      <trkpt lat="43.91989" lon="0.19388">
        <ele>107.8</ele>
        <time>2018-04-27T14:12:54Z</time>
      </trkpt>
      <trkpt lat="43.91986" lon="0.19376">
        <ele>108.4</ele>
        <time>2018-04-27T14:13:04Z</time>
      </trkpt>
      <trkpt lat="43.91983" lon="0.19374">
        <ele>108.6</ele>
        <time>2018-04-27T14:13:08Z</time>
      </trkpt>
      <trkpt lat="43.91983" lon="0.19362">
        <ele>108.9</ele>
        <time>2018-04-27T14:13:14Z</time>
      </trkpt>
      <trkpt lat="43.91971" lon="0.19354">
        <ele>111.1</ele>
        <time>2018-04-27T14:13:52Z</time>
      </trkpt>
      <trkpt lat="43.91971" lon="0.19354">
        <ele>111</ele>
        <time>2018-04-27T14:13:54Z</time>
      </trkpt>
      <trkpt lat="43.91956" lon="0.19352">
        <ele>110.1</ele>
        <time>2018-04-27T14:14:13Z</time>
      </trkpt>
      <trkpt lat="43.91942" lon="0.19354">
        <ele>109.5</ele>
        <time>2018-04-27T14:14:26Z</time>
      </trkpt>
      <trkpt lat="43.91928" lon="0.1936">
        <ele>108.8</ele>
        <time>2018-04-27T14:14:41Z</time>
      </trkpt>
      <trkpt lat="43.91914" lon="0.19364">
        <ele>108.3</ele>
        <time>2018-04-27T14:14:51Z</time>
      </trkpt>
      <trkpt lat="43.91908" lon="0.19363">
        <ele>108</ele>
        <time>2018-04-27T14:14:58Z</time>
      </trkpt>
      <trkpt lat="43.919" lon="0.19361">
        <ele>108.2</ele>
        <time>2018-04-27T14:15:06Z</time>
      </trkpt>
      <trkpt lat="43.91885" lon="0.19361">
        <ele>108.7</ele>
        <time>2018-04-27T14:15:21Z</time>
      </trkpt>
      <trkpt lat="43.9187" lon="0.19363">
        <ele>109.1</ele>
        <time>2018-04-27T14:15:34Z</time>
      </trkpt>
      <trkpt lat="43.91857" lon="0.19361">
        <ele>109.6</ele>
        <time>2018-04-27T14:15:52Z</time>
      </trkpt>
      <trkpt lat="43.91849" lon="0.19345">
        <ele>110.2</ele>
        <time>2018-04-27T14:16:11Z</time>
      </trkpt>
      <trkpt lat="43.91846" lon="0.19325">
        <ele>110.6</ele>
        <time>2018-04-27T14:16:26Z</time>
      </trkpt>
      <trkpt lat="43.91843" lon="0.19307">
        <ele>111</ele>
        <time>2018-04-27T14:16:40Z</time>
      </trkpt>
      <trkpt lat="43.91839" lon="0.19288">
        <ele>111.4</ele>
        <time>2018-04-27T14:16:53Z</time>
      </trkpt>
      <trkpt lat="43.91839" lon="0.19281">
        <ele>111.5</ele>
        <time>2018-04-27T14:16:58Z</time>
      </trkpt>
      <trkpt lat="43.91838" lon="0.19269">
        <ele>112</ele>
        <time>2018-04-27T14:17:06Z</time>
      </trkpt>
      <trkpt lat="43.91836" lon="0.1925">
        <ele>112.7</ele>
        <time>2018-04-27T14:17:20Z</time>
      </trkpt>
      <trkpt lat="43.91832" lon="0.19241">
        <ele>113.1</ele>
        <time>2018-04-27T14:17:28Z</time>
      </trkpt>
      <trkpt lat="43.91829" lon="0.19222">
        <ele>114.1</ele>
        <time>2018-04-27T14:17:47Z</time>
      </trkpt>
      <trkpt lat="43.91829" lon="0.19208">
        <ele>114.7</ele>
        <time>2018-04-27T14:17:58Z</time>
      </trkpt>
      <trkpt lat="43.91829" lon="0.19203">
        <ele>115</ele>
        <time>2018-04-27T14:18:02Z</time>
      </trkpt>
      <trkpt lat="43.91825" lon="0.19184">
        <ele>115.8</ele>
        <time>2018-04-27T14:18:16Z</time>
      </trkpt>
      <trkpt lat="43.91821" lon="0.19164">
        <ele>116.6</ele>
        <time>2018-04-27T14:18:31Z</time>
      </trkpt>
      <trkpt lat="43.9182" lon="0.19144">
        <ele>117.5</ele>
        <time>2018-04-27T14:18:46Z</time>
      </trkpt>
      <trkpt lat="43.9182" lon="0.19135">
        <ele>117.9</ele>
        <time>2018-04-27T14:18:52Z</time>
      </trkpt>
      <trkpt lat="43.91821" lon="0.19125">
        <ele>118.1</ele>
        <time>2018-04-27T14:18:59Z</time>
      </trkpt>
      <trkpt lat="43.91821" lon="0.19106">
        <ele>119.3</ele>
        <time>2018-04-27T14:19:37Z</time>
      </trkpt>
      <trkpt lat="43.91815" lon="0.19089">
        <ele>120.4</ele>
        <time>2018-04-27T14:20:11Z</time>
      </trkpt>
      <trkpt lat="43.91819" lon="0.19071">
        <ele>120.8</ele>
        <time>2018-04-27T14:20:23Z</time>
      </trkpt>
      <trkpt lat="43.9182" lon="0.1906">
        <ele>121.1</ele>
        <time>2018-04-27T14:20:32Z</time>
      </trkpt>
      <trkpt lat="43.91821" lon="0.19052">
        <ele>121.3</ele>
        <time>2018-04-27T14:20:38Z</time>
      </trkpt>
      <trkpt lat="43.91821" lon="0.19033">
        <ele>121.9</ele>
        <time>2018-04-27T14:20:53Z</time>
      </trkpt>
      <trkpt lat="43.9182" lon="0.19015">
        <ele>122.3</ele>
        <time>2018-04-27T14:21:06Z</time>
      </trkpt>
      <trkpt lat="43.9182" lon="0.18994">
        <ele>122.8</ele>
        <time>2018-04-27T14:21:20Z</time>
      </trkpt>
      <trkpt lat="43.91817" lon="0.18975">
        <ele>123.3</ele>
        <time>2018-04-27T14:21:36Z</time>
      </trkpt>
      <trkpt lat="43.91817" lon="0.18955">
        <ele>123.9</ele>
        <time>2018-04-27T14:21:51Z</time>
      </trkpt>
      <trkpt lat="43.91817" lon="0.18935">
        <ele>124.4</ele>
        <time>2018-04-27T14:22:06Z</time>
      </trkpt>
      <trkpt lat="43.91816" lon="0.18916">
        <ele>125.1</ele>
        <time>2018-04-27T14:22:20Z</time>
      </trkpt>
      <trkpt lat="43.91814" lon="0.18898">
        <ele>125.7</ele>
        <time>2018-04-27T14:22:34Z</time>
      </trkpt>
      <trkpt lat="43.91814" lon="0.18878">
        <ele>126.3</ele>
        <time>2018-04-27T14:22:46Z</time>
      </trkpt>
      <trkpt lat="43.91808" lon="0.1886">
        <ele>127.1</ele>
        <time>2018-04-27T14:23:01Z</time>
      </trkpt>
      <trkpt lat="43.91806" lon="0.18846">
        <ele>127.6</ele>
        <time>2018-04-27T14:23:12Z</time>
      </trkpt>
      <trkpt lat="43.91805" lon="0.18841">
        <ele>127.7</ele>
        <time>2018-04-27T14:23:16Z</time>
      </trkpt>
      <trkpt lat="43.91807" lon="0.18822">
        <ele>127.9</ele>
        <time>2018-04-27T14:23:32Z</time>
      </trkpt>
      <trkpt lat="43.91803" lon="0.18803">
        <ele>128.1</ele>
        <time>2018-04-27T14:23:47Z</time>
      </trkpt>
      <trkpt lat="43.91799" lon="0.18784">
        <ele>128.3</ele>
        <time>2018-04-27T14:24:02Z</time>
      </trkpt>
      <trkpt lat="43.91797" lon="0.18764">
        <ele>128.5</ele>
        <time>2018-04-27T14:24:17Z</time>
      </trkpt>
      <trkpt lat="43.91794" lon="0.18745">
        <ele>128.7</ele>
        <time>2018-04-27T14:24:31Z</time>
      </trkpt>
      <trkpt lat="43.91787" lon="0.18728">
        <ele>129</ele>
        <time>2018-04-27T14:24:55Z</time>
      </trkpt>
      <trkpt lat="43.91791" lon="0.1871">
        <ele>129.2</ele>
        <time>2018-04-27T14:25:10Z</time>
      </trkpt>
      <trkpt lat="43.91794" lon="0.18691">
        <ele>129.4</ele>
        <time>2018-04-27T14:25:24Z</time>
      </trkpt>
      <trkpt lat="43.91797" lon="0.18672">
        <ele>129.6</ele>
        <time>2018-04-27T14:25:37Z</time>
      </trkpt>
      <trkpt lat="43.91799" lon="0.18652">
        <ele>129.8</ele>
        <time>2018-04-27T14:25:51Z</time>
      </trkpt>
      <trkpt lat="43.91804" lon="0.18635">
        <ele>130.2</ele>
        <time>2018-04-27T14:26:25Z</time>
      </trkpt>
      <trkpt lat="43.91807" lon="0.18616">
        <ele>130.4</ele>
        <time>2018-04-27T14:26:38Z</time>
      </trkpt>
      <trkpt lat="43.91811" lon="0.18596">
        <ele>130.6</ele>
        <time>2018-04-27T14:26:52Z</time>
      </trkpt>
      <trkpt lat="43.91816" lon="0.18576">
        <ele>130.8</ele>
        <time>2018-04-27T14:27:08Z</time>
      </trkpt>
      <trkpt lat="43.91816" lon="0.18565">
        <ele>130.9</ele>
        <time>2018-04-27T14:27:16Z</time>
      </trkpt>
      <trkpt lat="43.91816" lon="0.18557">
        <ele>131</ele>
        <time>2018-04-27T14:27:21Z</time>
      </trkpt>
      <trkpt lat="43.91818" lon="0.1854">
        <ele>131.2</ele>
        <time>2018-04-27T14:27:36Z</time>
      </trkpt>
      <trkpt lat="43.91805" lon="0.1853">
        <ele>131.8</ele>
        <time>2018-04-27T14:28:28Z</time>
      </trkpt>
      <trkpt lat="43.91796" lon="0.18515">
        <ele>132.1</ele>
        <time>2018-04-27T14:28:44Z</time>
      </trkpt>
      <trkpt lat="43.91786" lon="0.18502">
        <ele>132.2</ele>
        <time>2018-04-27T14:28:58Z</time>
      </trkpt>
      <trkpt lat="43.91777" lon="0.18487">
        <ele>132.4</ele>
        <time>2018-04-27T14:29:12Z</time>
      </trkpt>
      <trkpt lat="43.91767" lon="0.18475">
        <ele>132.6</ele>
        <time>2018-04-27T14:29:27Z</time>
      </trkpt>
      <trkpt lat="43.91757" lon="0.18461">
        <ele>132.8</ele>
        <time>2018-04-27T14:29:42Z</time>
      </trkpt>
      <trkpt lat="43.91748" lon="0.18447">
        <ele>133</ele>
        <time>2018-04-27T14:29:57Z</time>
      </trkpt>
      <trkpt lat="43.91738" lon="0.18432">
        <ele>133.2</ele>
        <time>2018-04-27T14:30:13Z</time>
      </trkpt>
      <trkpt lat="43.91728" lon="0.18419">
        <ele>133.4</ele>
        <time>2018-04-27T14:30:27Z</time>
      </trkpt>
      <trkpt lat="43.91717" lon="0.18407">
        <ele>133.6</ele>
        <time>2018-04-27T14:30:42Z</time>
      </trkpt>
      <trkpt lat="43.91708" lon="0.18392">
        <ele>133.8</ele>
        <time>2018-04-27T14:30:59Z</time>
      </trkpt>
      <trkpt lat="43.917" lon="0.18383">
        <ele>134</ele>
        <time>2018-04-27T14:31:09Z</time>
      </trkpt>
      <trkpt lat="43.91697" lon="0.18379">
        <ele>134.1</ele>
        <time>2018-04-27T14:31:13Z</time>
      </trkpt>
      <trkpt lat="43.91686" lon="0.18366">
        <ele>134.7</ele>
        <time>2018-04-27T14:31:28Z</time>
      </trkpt>
      <trkpt lat="43.91677" lon="0.18351">
        <ele>135.2</ele>
        <time>2018-04-27T14:31:43Z</time>
      </trkpt>
      <trkpt lat="43.91666" lon="0.18339">
        <ele>135.8</ele>
        <time>2018-04-27T14:31:59Z</time>
      </trkpt>
      <trkpt lat="43.91657" lon="0.18323">
        <ele>136.3</ele>
        <time>2018-04-27T14:32:11Z</time>
      </trkpt>
      <trkpt lat="43.91646" lon="0.18312">
        <ele>136.8</ele>
        <time>2018-04-27T14:32:25Z</time>
      </trkpt>
      <trkpt lat="43.91642" lon="0.18305">
        <ele>137.1</ele>
        <time>2018-04-27T14:32:33Z</time>
      </trkpt>
      <trkpt lat="43.91636" lon="0.18296">
        <ele>137.8</ele>
        <time>2018-04-27T14:32:43Z</time>
      </trkpt>
      <trkpt lat="43.91622" lon="0.18293">
        <ele>139</ele>
        <time>2018-04-27T14:32:59Z</time>
      </trkpt>
      <trkpt lat="43.9161" lon="0.18281">
        <ele>139.9</ele>
        <time>2018-04-27T14:33:12Z</time>
      </trkpt>
      <trkpt lat="43.91607" lon="0.18278">
        <ele>140.1</ele>
        <time>2018-04-27T14:33:15Z</time>
      </trkpt>
      <trkpt lat="43.91598" lon="0.1827">
        <ele>140.6</ele>
        <time>2018-04-27T14:33:24Z</time>
      </trkpt>
      <trkpt lat="43.91587" lon="0.1826">
        <ele>141.3</ele>
        <time>2018-04-27T14:33:39Z</time>
      </trkpt>
      <trkpt lat="43.91574" lon="0.18252">
        <ele>142</ele>
        <time>2018-04-27T14:33:53Z</time>
      </trkpt>
      <trkpt lat="43.91561" lon="0.18243">
        <ele>142.8</ele>
        <time>2018-04-27T14:34:08Z</time>
      </trkpt>
      <trkpt lat="43.91549" lon="0.18252">
        <ele>143.5</ele>
        <time>2018-04-27T14:34:22Z</time>
      </trkpt>
      <trkpt lat="43.91545" lon="0.18247">
        <ele>143.9</ele>
        <time>2018-04-27T14:34:30Z</time>
      </trkpt>
      <trkpt lat="43.91539" lon="0.18239">
        <ele>143.5</ele>
        <time>2018-04-27T14:34:42Z</time>
      </trkpt>
      <trkpt lat="43.91529" lon="0.18226">
        <ele>143</ele>
        <time>2018-04-27T14:34:56Z</time>
      </trkpt>
      <trkpt lat="43.91523" lon="0.18208">
        <ele>142.6</ele>
        <time>2018-04-27T14:35:10Z</time>
      </trkpt>
      <trkpt lat="43.91518" lon="0.1819">
        <ele>142.1</ele>
        <time>2018-04-27T14:35:26Z</time>
      </trkpt>
      <trkpt lat="43.91511" lon="0.18173">
        <ele>141.7</ele>
        <time>2018-04-27T14:35:41Z</time>
      </trkpt>
      <trkpt lat="43.91502" lon="0.18158">
        <ele>141.2</ele>
        <time>2018-04-27T14:35:54Z</time>
      </trkpt>
      <trkpt lat="43.91495" lon="0.18141">
        <ele>140.9</ele>
        <time>2018-04-27T14:36:05Z</time>
      </trkpt>
      <trkpt lat="43.91493" lon="0.18134">
        <ele>140.7</ele>
        <time>2018-04-27T14:36:11Z</time>
      </trkpt>
      <trkpt lat="43.9149" lon="0.18123">
        <ele>140.9</ele>
        <time>2018-04-27T14:36:19Z</time>
      </trkpt>
      <trkpt lat="43.91484" lon="0.18106">
        <ele>141.3</ele>
        <time>2018-04-27T14:36:32Z</time>
      </trkpt>
      <trkpt lat="43.91477" lon="0.18089">
        <ele>141.6</ele>
        <time>2018-04-27T14:36:46Z</time>
      </trkpt>
      <trkpt lat="43.91469" lon="0.18073">
        <ele>141.9</ele>
        <time>2018-04-27T14:36:58Z</time>
      </trkpt>
      <trkpt lat="43.91463" lon="0.18056">
        <ele>142.4</ele>
        <time>2018-04-27T14:37:14Z</time>
      </trkpt>
      <trkpt lat="43.91456" lon="0.18039">
        <ele>143</ele>
        <time>2018-04-27T14:37:37Z</time>
      </trkpt>
      <trkpt lat="43.9145" lon="0.1802">
        <ele>143.3</ele>
        <time>2018-04-27T14:37:52Z</time>
      </trkpt>
      <trkpt lat="43.91442" lon="0.18004">
        <ele>143.7</ele>
        <time>2018-04-27T14:38:05Z</time>
      </trkpt>
      <trkpt lat="43.91434" lon="0.17992">
        <ele>144</ele>
        <time>2018-04-27T14:38:17Z</time>
      </trkpt>
      <trkpt lat="43.91432" lon="0.1799">
        <ele>144</ele>
        <time>2018-04-27T14:38:19Z</time>
      </trkpt>
      <trkpt lat="43.91426" lon="0.17973">
        <ele>144.4</ele>
        <time>2018-04-27T14:38:35Z</time>
      </trkpt>
      <trkpt lat="43.91415" lon="0.1796">
        <ele>144.7</ele>
        <time>2018-04-27T14:38:47Z</time>
      </trkpt>
      <trkpt lat="43.91404" lon="0.17949">
        <ele>145</ele>
        <time>2018-04-27T14:38:58Z</time>
      </trkpt>
      <trkpt lat="43.91395" lon="0.17934">
        <ele>145.2</ele>
        <time>2018-04-27T14:39:10Z</time>
      </trkpt>
      <trkpt lat="43.91386" lon="0.17919">
        <ele>145.6</ele>
        <time>2018-04-27T14:39:25Z</time>
      </trkpt>
      <trkpt lat="43.91374" lon="0.17908">
        <ele>145.9</ele>
        <time>2018-04-27T14:39:37Z</time>
      </trkpt>
      <trkpt lat="43.91364" lon="0.17895">
        <ele>146.2</ele>
        <time>2018-04-27T14:39:52Z</time>
      </trkpt>
      <trkpt lat="43.9135" lon="0.17887">
        <ele>146.6</ele>
        <time>2018-04-27T14:40:09Z</time>
      </trkpt>
      <trkpt lat="43.91342" lon="0.17872">
        <ele>147</ele>
        <time>2018-04-27T14:40:24Z</time>
      </trkpt>
      <trkpt lat="43.91332" lon="0.17858">
        <ele>147.3</ele>
        <time>2018-04-27T14:40:36Z</time>
      </trkpt>
      <trkpt lat="43.91322" lon="0.17843">
        <ele>147.6</ele>
        <time>2018-04-27T14:40:51Z</time>
      </trkpt>
      <trkpt lat="43.9132" lon="0.17842">
        <ele>147.7</ele>
        <time>2018-04-27T14:40:53Z</time>
      </trkpt>
      <trkpt lat="43.9131" lon="0.17831">
        <ele>147.7</ele>
        <time>2018-04-27T14:41:06Z</time>
      </trkpt>
      <trkpt lat="43.91297" lon="0.17822">
        <ele>147.8</ele>
        <time>2018-04-27T14:41:18Z</time>
      </trkpt>
      <trkpt lat="43.91288" lon="0.17808">
        <ele>147.9</ele>
        <time>2018-04-27T14:41:34Z</time>
      </trkpt>
      <trkpt lat="43.91275" lon="0.17799">
        <ele>148</ele>
        <time>2018-04-27T14:41:52Z</time>
      </trkpt>
      <trkpt lat="43.91264" lon="0.17786">
        <ele>148</ele>
        <time>2018-04-27T14:42:06Z</time>
      </trkpt>
      <trkpt lat="43.91253" lon="0.17772">
        <ele>148.1</ele>
        <time>2018-04-27T14:42:19Z</time>
      </trkpt>
      <trkpt lat="43.91244" lon="0.17759">
        <ele>148.2</ele>
        <time>2018-04-27T14:42:33Z</time>
      </trkpt>
      <trkpt lat="43.91233" lon="0.17744">
        <ele>148.3</ele>
        <time>2018-04-27T14:42:48Z</time>
      </trkpt>
      <trkpt lat="43.91223" lon="0.17732">
        <ele>148.3</ele>
        <time>2018-04-27T14:43:00Z</time>
      </trkpt>
      <trkpt lat="43.9121" lon="0.17723">
        <ele>148.4</ele>
        <time>2018-04-27T14:43:13Z</time>
      </trkpt>
      <trkpt lat="43.91201" lon="0.1771">
        <ele>148.5</ele>
        <time>2018-04-27T14:43:27Z</time>
      </trkpt>
      <trkpt lat="43.91194" lon="0.17692">
        <ele>148.7</ele>
        <time>2018-04-27T14:44:01Z</time>
      </trkpt>
      <trkpt lat="43.91188" lon="0.17674">
        <ele>148.7</ele>
        <time>2018-04-27T14:44:15Z</time>
      </trkpt>
      <trkpt lat="43.91189" lon="0.17655">
        <ele>148.8</ele>
        <time>2018-04-27T14:44:30Z</time>
      </trkpt>
      <trkpt lat="43.91184" lon="0.17637">
        <ele>148.9</ele>
        <time>2018-04-27T14:44:44Z</time>
      </trkpt>
      <trkpt lat="43.9118" lon="0.17618">
        <ele>149</ele>
        <time>2018-04-27T14:44:59Z</time>
      </trkpt>
      <trkpt lat="43.91184" lon="0.176">
        <ele>149.1</ele>
        <time>2018-04-27T14:45:14Z</time>
      </trkpt>
      <trkpt lat="43.91182" lon="0.17581">
        <ele>149.1</ele>
        <time>2018-04-27T14:45:29Z</time>
      </trkpt>
      <trkpt lat="43.91185" lon="0.17562">
        <ele>149.2</ele>
        <time>2018-04-27T14:45:43Z</time>
      </trkpt>
      <trkpt lat="43.9119" lon="0.17543">
        <ele>149.3</ele>
        <time>2018-04-27T14:46:00Z</time>
      </trkpt>
      <trkpt lat="43.9119" lon="0.17522">
        <ele>149.4</ele>
        <time>2018-04-27T14:46:15Z</time>
      </trkpt>
      <trkpt lat="43.91191" lon="0.17503">
        <ele>149.4</ele>
        <time>2018-04-27T14:46:28Z</time>
      </trkpt>
      <trkpt lat="43.91189" lon="0.17483">
        <ele>149.5</ele>
        <time>2018-04-27T14:46:40Z</time>
      </trkpt>
      <trkpt lat="43.91188" lon="0.17464">
        <ele>149.6</ele>
        <time>2018-04-27T14:46:56Z</time>
      </trkpt>
      <trkpt lat="43.91189" lon="0.17444">
        <ele>149.7</ele>
        <time>2018-04-27T14:47:11Z</time>
      </trkpt>
      <trkpt lat="43.9119" lon="0.17425">
        <ele>149.7</ele>
        <time>2018-04-27T14:47:24Z</time>
      </trkpt>
      <trkpt lat="43.9119" lon="0.17406">
        <ele>149.8</ele>
        <time>2018-04-27T14:47:36Z</time>
      </trkpt>
      <trkpt lat="43.91189" lon="0.17386">
        <ele>149.9</ele>
        <time>2018-04-27T14:47:50Z</time>
      </trkpt>
      <trkpt lat="43.91187" lon="0.17367">
        <ele>150</ele>
        <time>2018-04-27T14:48:03Z</time>
      </trkpt>
      <trkpt lat="43.91189" lon="0.17348">
        <ele>150</ele>
        <time>2018-04-27T14:48:16Z</time>
      </trkpt>
      <trkpt lat="43.91188" lon="0.17329">
        <ele>150.1</ele>
        <time>2018-04-27T14:48:29Z</time>
      </trkpt>
      <trkpt lat="43.91187" lon="0.17309">
        <ele>150.2</ele>
        <time>2018-04-27T14:48:44Z</time>
      </trkpt>
      <trkpt lat="43.91186" lon="0.17289">
        <ele>150.2</ele>
        <time>2018-04-27T14:48:57Z</time>
      </trkpt>
      <trkpt lat="43.91185" lon="0.1727">
        <ele>150.3</ele>
        <time>2018-04-27T14:49:11Z</time>
      </trkpt>
      <trkpt lat="43.91184" lon="0.1725">
        <ele>150.4</ele>
        <time>2018-04-27T14:49:34Z</time>
      </trkpt>
      <trkpt lat="43.9118" lon="0.17242">
        <ele>150.5</ele>
        <time>2018-04-27T14:49:40Z</time>
      </trkpt>
      <trkpt lat="43.91178" lon="0.17223">
        <ele>150.6</ele>
        <time>2018-04-27T14:49:56Z</time>
      </trkpt>
      <trkpt lat="43.91173" lon="0.17204">
        <ele>150.6</ele>
        <time>2018-04-27T14:50:08Z</time>
      </trkpt>
      <trkpt lat="43.91168" lon="0.17186">
        <ele>150.7</ele>
        <time>2018-04-27T14:50:22Z</time>
      </trkpt>
      <trkpt lat="43.91163" lon="0.17167">
        <ele>150.8</ele>
        <time>2018-04-27T14:50:39Z</time>
      </trkpt>
      <trkpt lat="43.91159" lon="0.17149">
        <ele>150.9</ele>
        <time>2018-04-27T14:50:53Z</time>
      </trkpt>
      <trkpt lat="43.91154" lon="0.17131">
        <ele>151</ele>
        <time>2018-04-27T14:51:11Z</time>
      </trkpt>
      <trkpt lat="43.91152" lon="0.1712">
        <ele>151</ele>
        <time>2018-04-27T14:51:20Z</time>
      </trkpt>
      <trkpt lat="43.9115" lon="0.17112">
        <ele>151.2</ele>
        <time>2018-04-27T14:51:27Z</time>
      </trkpt>
      <trkpt lat="43.91145" lon="0.17094">
        <ele>151.5</ele>
        <time>2018-04-27T14:51:42Z</time>
      </trkpt>
      <trkpt lat="43.91139" lon="0.17076">
        <ele>151.8</ele>
        <time>2018-04-27T14:51:55Z</time>
      </trkpt>
      <trkpt lat="43.91132" lon="0.17059">
        <ele>152.2</ele>
        <time>2018-04-27T14:52:11Z</time>
      </trkpt>
      <trkpt lat="43.91128" lon="0.1704">
        <ele>152.5</ele>
        <time>2018-04-27T14:52:25Z</time>
      </trkpt>
      <trkpt lat="43.91126" lon="0.17021">
        <ele>152.8</ele>
        <time>2018-04-27T14:52:40Z</time>
      </trkpt>
      <trkpt lat="43.91123" lon="0.17003">
        <ele>153.1</ele>
        <time>2018-04-27T14:52:53Z</time>
      </trkpt>
      <trkpt lat="43.91122" lon="0.16983">
        <ele>153.4</ele>
        <time>2018-04-27T14:53:09Z</time>
      </trkpt>
      <trkpt lat="43.91121" lon="0.16964">
        <ele>153.8</ele>
        <time>2018-04-27T14:53:24Z</time>
      </trkpt>
      <trkpt lat="43.91117" lon="0.16946">
        <ele>154.1</ele>
        <time>2018-04-27T14:53:37Z</time>
      </trkpt>
      <trkpt lat="43.91116" lon="0.16945">
        <ele>154.1</ele>
        <time>2018-04-27T14:53:38Z</time>
      </trkpt>
      <trkpt lat="43.91113" lon="0.16926">
        <ele>154.3</ele>
        <time>2018-04-27T14:53:52Z</time>
      </trkpt>
      <trkpt lat="43.91112" lon="0.16906">
        <ele>154.6</ele>
        <time>2018-04-27T14:54:15Z</time>
      </trkpt>
      <trkpt lat="43.91111" lon="0.16887">
        <ele>154.8</ele>
        <time>2018-04-27T14:54:30Z</time>
      </trkpt>
      <trkpt lat="43.91117" lon="0.16872">
        <ele>155.1</ele>
        <time>2018-04-27T14:54:49Z</time>
      </trkpt>
      <trkpt lat="43.91112" lon="0.16854">
        <ele>155.4</ele>
        <time>2018-04-27T14:55:07Z</time>
      </trkpt>
      <trkpt lat="43.91102" lon="0.16841">
        <ele>155.6</ele>
        <time>2018-04-27T14:55:24Z</time>
      </trkpt>
      <trkpt lat="43.91091" lon="0.16831">
        <ele>155.8</ele>
        <time>2018-04-27T14:55:40Z</time>
      </trkpt>
      <trkpt lat="43.91083" lon="0.16815">
        <ele>156.1</ele>
        <time>2018-04-27T14:55:55Z</time>
      </trkpt>
      <trkpt lat="43.91075" lon="0.168">
        <ele>156.2</ele>
        <time>2018-04-27T14:56:07Z</time>
      </trkpt>
      <trkpt lat="43.91065" lon="0.16786">
        <ele>156.4</ele>
        <time>2018-04-27T14:56:17Z</time>
      </trkpt>
      <trkpt lat="43.91057" lon="0.1677">
        <ele>156.6</ele>
        <time>2018-04-27T14:56:30Z</time>
      </trkpt>
      <trkpt lat="43.9105" lon="0.16755">
        <ele>156.8</ele>
        <time>2018-04-27T14:56:43Z</time>
      </trkpt>
      <trkpt lat="43.91041" lon="0.16739">
        <ele>157</ele>
        <time>2018-04-27T14:56:58Z</time>
      </trkpt>
      <trkpt lat="43.91032" lon="0.16723">
        <ele>157.2</ele>
        <time>2018-04-27T14:57:13Z</time>
      </trkpt>
      <trkpt lat="43.9103" lon="0.16718">
        <ele>157.3</ele>
        <time>2018-04-27T14:57:17Z</time>
      </trkpt>
      <trkpt lat="43.91024" lon="0.16707">
        <ele>157.5</ele>
        <time>2018-04-27T14:57:26Z</time>
      </trkpt>
      <trkpt lat="43.91015" lon="0.16693">
        <ele>157.9</ele>
        <time>2018-04-27T14:57:45Z</time>
      </trkpt>
      <trkpt lat="43.91009" lon="0.16675">
        <ele>158.3</ele>
        <time>2018-04-27T14:58:01Z</time>
      </trkpt>
      <trkpt lat="43.91001" lon="0.16658">
        <ele>158.6</ele>
        <time>2018-04-27T14:58:15Z</time>
      </trkpt>
      <trkpt lat="43.90994" lon="0.16641">
        <ele>158.9</ele>
        <time>2018-04-27T14:58:28Z</time>
      </trkpt>
      <trkpt lat="43.90985" lon="0.16625">
        <ele>159.2</ele>
        <time>2018-04-27T14:58:42Z</time>
      </trkpt>
      <trkpt lat="43.90978" lon="0.16607">
        <ele>159.6</ele>
        <time>2018-04-27T14:58:56Z</time>
      </trkpt>
      <trkpt lat="43.9098" lon="0.16589">
        <ele>159.9</ele>
        <time>2018-04-27T14:59:11Z</time>
      </trkpt>
      <trkpt lat="43.90985" lon="0.16571">
        <ele>160.3</ele>
        <time>2018-04-27T14:59:25Z</time>
      </trkpt>
      <trkpt lat="43.90989" lon="0.1657">
        <ele>160.5</ele>
        <time>2018-04-27T14:59:35Z</time>
      </trkpt>
      <trkpt lat="43.90999" lon="0.16568">
        <ele>160.4</ele>
        <time>2018-04-27T14:59:58Z</time>
      </trkpt>
      <trkpt lat="43.91013" lon="0.16569">
        <ele>160.3</ele>
        <time>2018-04-27T15:00:10Z</time>
      </trkpt>
      <trkpt lat="43.91027" lon="0.16572">
        <ele>160.3</ele>
        <time>2018-04-27T15:00:25Z</time>
      </trkpt>
      <trkpt lat="43.91041" lon="0.16573">
        <ele>160.2</ele>
        <time>2018-04-27T15:00:37Z</time>
      </trkpt>
      <trkpt lat="43.91055" lon="0.16572">
        <ele>160.2</ele>
        <time>2018-04-27T15:00:50Z</time>
      </trkpt>
      <trkpt lat="43.91068" lon="0.16575">
        <ele>160.1</ele>
        <time>2018-04-27T15:01:02Z</time>
      </trkpt>
      <trkpt lat="43.91083" lon="0.16575">
        <ele>160.1</ele>
        <time>2018-04-27T15:01:16Z</time>
      </trkpt>
      <trkpt lat="43.91095" lon="0.16568">
        <ele>160</ele>
        <time>2018-04-27T15:01:31Z</time>
      </trkpt>
      <trkpt lat="43.91103" lon="0.16571">
        <ele>159.8</ele>
        <time>2018-04-27T15:02:17Z</time>
      </trkpt>
      <trkpt lat="43.91105" lon="0.16571">
        <ele>158</ele>
        <time>2018-04-27T15:09:51Z</time>
      </trkpt>
      <trkpt lat="43.91097" lon="0.16568">
        <ele>157.9</ele>
        <time>2018-04-27T15:10:16Z</time>
      </trkpt>
      <trkpt lat="43.911" lon="0.1655">
        <ele>157.8</ele>
        <time>2018-04-27T15:10:35Z</time>
      </trkpt>
      <trkpt lat="43.91101" lon="0.16531">
        <ele>157.7</ele>
        <time>2018-04-27T15:10:48Z</time>
      </trkpt>
      <trkpt lat="43.91106" lon="0.16513">
        <ele>157.7</ele>
        <time>2018-04-27T15:11:02Z</time>
      </trkpt>
      <trkpt lat="43.91106" lon="0.16492">
        <ele>157.6</ele>
        <time>2018-04-27T15:11:15Z</time>
      </trkpt>
      <trkpt lat="43.91106" lon="0.16472">
        <ele>157.6</ele>
        <time>2018-04-27T15:11:29Z</time>
      </trkpt>
      <trkpt lat="43.91107" lon="0.16451">
        <ele>157.5</ele>
        <time>2018-04-27T15:11:43Z</time>
      </trkpt>
      <trkpt lat="43.91109" lon="0.16432">
        <ele>157.4</ele>
        <time>2018-04-27T15:11:55Z</time>
      </trkpt>
      <trkpt lat="43.91113" lon="0.16413">
        <ele>157.4</ele>
        <time>2018-04-27T15:12:09Z</time>
      </trkpt>
      <trkpt lat="43.91113" lon="0.16393">
        <ele>157.2</ele>
        <time>2018-04-27T15:12:53Z</time>
      </trkpt>
      <trkpt lat="43.91119" lon="0.16374">
        <ele>157.1</ele>
        <time>2018-04-27T15:13:11Z</time>
      </trkpt>
      <trkpt lat="43.91126" lon="0.16357">
        <ele>157.1</ele>
        <time>2018-04-27T15:13:23Z</time>
      </trkpt>
      <trkpt lat="43.91131" lon="0.1634">
        <ele>157</ele>
        <time>2018-04-27T15:13:35Z</time>
      </trkpt>
      <trkpt lat="43.91139" lon="0.16322">
        <ele>157</ele>
        <time>2018-04-27T15:13:49Z</time>
      </trkpt>
      <trkpt lat="43.91147" lon="0.16305">
        <ele>156.9</ele>
        <time>2018-04-27T15:14:01Z</time>
      </trkpt>
      <trkpt lat="43.91141" lon="0.16289">
        <ele>156.9</ele>
        <time>2018-04-27T15:14:17Z</time>
      </trkpt>
      <trkpt lat="43.91129" lon="0.16278">
        <ele>156.7</ele>
        <time>2018-04-27T15:14:47Z</time>
      </trkpt>
      <trkpt lat="43.91131" lon="0.16259">
        <ele>156.7</ele>
        <time>2018-04-27T15:15:00Z</time>
      </trkpt>
      <trkpt lat="43.91131" lon="0.16252">
        <ele>156.7</ele>
        <time>2018-04-27T15:15:04Z</time>
      </trkpt>
      <trkpt lat="43.91133" lon="0.1624">
        <ele>155.5</ele>
        <time>2018-04-27T15:15:12Z</time>
      </trkpt>
      <trkpt lat="43.91135" lon="0.1622">
        <ele>153.6</ele>
        <time>2018-04-27T15:15:25Z</time>
      </trkpt>
      <trkpt lat="43.91135" lon="0.16215">
        <ele>153.1</ele>
        <time>2018-04-27T15:15:28Z</time>
      </trkpt>
      <trkpt lat="43.91135" lon="0.16201">
        <ele>152</ele>
        <time>2018-04-27T15:15:37Z</time>
      </trkpt>
      <trkpt lat="43.91137" lon="0.1619">
        <ele>150.8</ele>
        <time>2018-04-27T15:15:46Z</time>
      </trkpt>
      <trkpt lat="43.91138" lon="0.16182">
        <ele>150.2</ele>
        <time>2018-04-27T15:15:52Z</time>
      </trkpt>
      <trkpt lat="43.9114" lon="0.16162">
        <ele>149</ele>
        <time>2018-04-27T15:16:04Z</time>
      </trkpt>
      <trkpt lat="43.91141" lon="0.16154">
        <ele>148.4</ele>
        <time>2018-04-27T15:16:10Z</time>
      </trkpt>
      <trkpt lat="43.91142" lon="0.16143">
        <ele>147.8</ele>
        <time>2018-04-27T15:16:18Z</time>
      </trkpt>
      <trkpt lat="43.91143" lon="0.16123">
        <ele>146.8</ele>
        <time>2018-04-27T15:16:34Z</time>
      </trkpt>
      <trkpt lat="43.91144" lon="0.16104">
        <ele>146</ele>
        <time>2018-04-27T15:16:45Z</time>
      </trkpt>
      <trkpt lat="43.91142" lon="0.16084">
        <ele>145.2</ele>
        <time>2018-04-27T15:16:57Z</time>
      </trkpt>
      <trkpt lat="43.91141" lon="0.16071">
        <ele>144.8</ele>
        <time>2018-04-27T15:17:04Z</time>
      </trkpt>
      <trkpt lat="43.9114" lon="0.16064">
        <ele>144.6</ele>
        <time>2018-04-27T15:17:08Z</time>
      </trkpt>
      <trkpt lat="43.91135" lon="0.16048">
        <ele>144.3</ele>
        <time>2018-04-27T15:17:17Z</time>
      </trkpt>
      <trkpt lat="43.91133" lon="0.16029">
        <ele>143.7</ele>
        <time>2018-04-27T15:17:32Z</time>
      </trkpt>
      <trkpt lat="43.91128" lon="0.16011">
        <ele>143.1</ele>
        <time>2018-04-27T15:17:45Z</time>
      </trkpt>
      <trkpt lat="43.91123" lon="0.15992">
        <ele>142.7</ele>
        <time>2018-04-27T15:17:56Z</time>
      </trkpt>
      <trkpt lat="43.91123" lon="0.15973">
        <ele>142.2</ele>
        <time>2018-04-27T15:18:09Z</time>
      </trkpt>
      <trkpt lat="43.91119" lon="0.15954">
        <ele>141.6</ele>
        <time>2018-04-27T15:18:22Z</time>
      </trkpt>
      <trkpt lat="43.91112" lon="0.15937">
        <ele>141.2</ele>
        <time>2018-04-27T15:18:33Z</time>
      </trkpt>
      <trkpt lat="43.91111" lon="0.15932">
        <ele>141.1</ele>
        <time>2018-04-27T15:18:36Z</time>
      </trkpt>
      <trkpt lat="43.91107" lon="0.15919">
        <ele>140.8</ele>
        <time>2018-04-27T15:18:44Z</time>
      </trkpt>
      <trkpt lat="43.91103" lon="0.15901">
        <ele>140.4</ele>
        <time>2018-04-27T15:18:55Z</time>
      </trkpt>
      <trkpt lat="43.91105" lon="0.15882">
        <ele>139.5</ele>
        <time>2018-04-27T15:19:19Z</time>
      </trkpt>
      <trkpt lat="43.9111" lon="0.15863">
        <ele>139</ele>
        <time>2018-04-27T15:19:31Z</time>
      </trkpt>
      <trkpt lat="43.91109" lon="0.15843">
        <ele>138.6</ele>
        <time>2018-04-27T15:19:42Z</time>
      </trkpt>
      <trkpt lat="43.9111" lon="0.15825">
        <ele>138.3</ele>
        <time>2018-04-27T15:19:52Z</time>
      </trkpt>
      <trkpt lat="43.91112" lon="0.15812">
        <ele>138</ele>
        <time>2018-04-27T15:20:00Z</time>
      </trkpt>
      <trkpt lat="43.91113" lon="0.15805">
        <ele>137.9</ele>
        <time>2018-04-27T15:20:04Z</time>
      </trkpt>
      <trkpt lat="43.9112" lon="0.15787">
        <ele>137.5</ele>
        <time>2018-04-27T15:20:18Z</time>
      </trkpt>
      <trkpt lat="43.91121" lon="0.15766">
        <ele>137.1</ele>
        <time>2018-04-27T15:20:29Z</time>
      </trkpt>
      <trkpt lat="43.91121" lon="0.15746">
        <ele>136.8</ele>
        <time>2018-04-27T15:20:40Z</time>
      </trkpt>
      <trkpt lat="43.91123" lon="0.15727">
        <ele>136.5</ele>
        <time>2018-04-27T15:20:52Z</time>
      </trkpt>
      <trkpt lat="43.91124" lon="0.15707">
        <ele>136.2</ele>
        <time>2018-04-27T15:21:03Z</time>
      </trkpt>
      <trkpt lat="43.91127" lon="0.15698">
        <ele>136</ele>
        <time>2018-04-27T15:21:10Z</time>
      </trkpt>
      <trkpt lat="43.91114" lon="0.15693">
        <ele>135.4</ele>
        <time>2018-04-27T15:21:31Z</time>
      </trkpt>
      <trkpt lat="43.911" lon="0.15687">
        <ele>135</ele>
        <time>2018-04-27T15:21:43Z</time>
      </trkpt>
      <trkpt lat="43.91089" lon="0.15683">
        <ele>134.7</ele>
        <time>2018-04-27T15:21:54Z</time>
      </trkpt>
      <trkpt lat="43.91086" lon="0.15682">
        <ele>134.8</ele>
        <time>2018-04-27T15:21:57Z</time>
      </trkpt>
      <trkpt lat="43.91073" lon="0.15677">
        <ele>134.9</ele>
        <time>2018-04-27T15:22:10Z</time>
      </trkpt>
      <trkpt lat="43.91059" lon="0.15678">
        <ele>135</ele>
        <time>2018-04-27T15:22:24Z</time>
      </trkpt>
      <trkpt lat="43.91044" lon="0.15675">
        <ele>135.1</ele>
        <time>2018-04-27T15:22:38Z</time>
      </trkpt>
      <trkpt lat="43.91031" lon="0.15668">
        <ele>135.2</ele>
        <time>2018-04-27T15:22:55Z</time>
      </trkpt>
      <trkpt lat="43.91019" lon="0.15659">
        <ele>135.3</ele>
        <time>2018-04-27T15:23:08Z</time>
      </trkpt>
      <trkpt lat="43.91006" lon="0.1565">
        <ele>135.4</ele>
        <time>2018-04-27T15:23:21Z</time>
      </trkpt>
      <trkpt lat="43.90992" lon="0.15644">
        <ele>135.5</ele>
        <time>2018-04-27T15:23:34Z</time>
      </trkpt>
      <trkpt lat="43.90978" lon="0.15642">
        <ele>135.6</ele>
        <time>2018-04-27T15:23:44Z</time>
      </trkpt>
      <trkpt lat="43.90964" lon="0.15641">
        <ele>135.6</ele>
        <time>2018-04-27T15:23:56Z</time>
      </trkpt>
      <trkpt lat="43.9095" lon="0.15638">
        <ele>136.1</ele>
        <time>2018-04-27T15:25:01Z</time>
      </trkpt>
      <trkpt lat="43.90936" lon="0.15631">
        <ele>136.3</ele>
        <time>2018-04-27T15:25:20Z</time>
      </trkpt>
      <trkpt lat="43.90931" lon="0.15614">
        <ele>136.4</ele>
        <time>2018-04-27T15:25:34Z</time>
      </trkpt>
      <trkpt lat="43.90918" lon="0.15604">
        <ele>136.5</ele>
        <time>2018-04-27T15:25:51Z</time>
      </trkpt>
      <trkpt lat="43.90905" lon="0.15598">
        <ele>136.6</ele>
        <time>2018-04-27T15:26:04Z</time>
      </trkpt>
      <trkpt lat="43.90893" lon="0.15588">
        <ele>136.7</ele>
        <time>2018-04-27T15:26:21Z</time>
      </trkpt>
      <trkpt lat="43.90878" lon="0.15582">
        <ele>136.9</ele>
        <time>2018-04-27T15:26:37Z</time>
      </trkpt>
      <trkpt lat="43.90866" lon="0.15573">
        <ele>136.9</ele>
        <time>2018-04-27T15:26:48Z</time>
      </trkpt>
      <trkpt lat="43.90853" lon="0.15565">
        <ele>137</ele>
        <time>2018-04-27T15:27:00Z</time>
      </trkpt>
      <trkpt lat="43.90842" lon="0.15553">
        <ele>137.1</ele>
        <time>2018-04-27T15:27:15Z</time>
      </trkpt>
      <trkpt lat="43.9083" lon="0.15543">
        <ele>137.2</ele>
        <time>2018-04-27T15:27:28Z</time>
      </trkpt>
      <trkpt lat="43.90818" lon="0.15532">
        <ele>137.3</ele>
        <time>2018-04-27T15:27:41Z</time>
      </trkpt>
      <trkpt lat="43.90808" lon="0.1552">
        <ele>137.4</ele>
        <time>2018-04-27T15:27:54Z</time>
      </trkpt>
      <trkpt lat="43.90796" lon="0.15509">
        <ele>137.5</ele>
        <time>2018-04-27T15:28:07Z</time>
      </trkpt>
      <trkpt lat="43.90783" lon="0.15501">
        <ele>137.6</ele>
        <time>2018-04-27T15:28:23Z</time>
      </trkpt>
      <trkpt lat="43.9077" lon="0.15494">
        <ele>137.8</ele>
        <time>2018-04-27T15:28:38Z</time>
      </trkpt>
      <trkpt lat="43.90757" lon="0.15486">
        <ele>137.9</ele>
        <time>2018-04-27T15:28:55Z</time>
      </trkpt>
      <trkpt lat="43.90743" lon="0.15483">
        <ele>138</ele>
        <time>2018-04-27T15:29:09Z</time>
      </trkpt>
      <trkpt lat="43.90734" lon="0.15482">
        <ele>138.1</ele>
        <time>2018-04-27T15:29:20Z</time>
      </trkpt>
      <trkpt lat="43.90729" lon="0.15482">
        <ele>138.3</ele>
        <time>2018-04-27T15:29:26Z</time>
      </trkpt>
      <trkpt lat="43.90715" lon="0.15477">
        <ele>138.7</ele>
        <time>2018-04-27T15:29:38Z</time>
      </trkpt>
      <trkpt lat="43.90701" lon="0.15476">
        <ele>139.2</ele>
        <time>2018-04-27T15:29:56Z</time>
      </trkpt>
      <trkpt lat="43.90686" lon="0.15472">
        <ele>139.9</ele>
        <time>2018-04-27T15:30:16Z</time>
      </trkpt>
      <trkpt lat="43.90672" lon="0.15466">
        <ele>140.3</ele>
        <time>2018-04-27T15:30:29Z</time>
      </trkpt>
      <trkpt lat="43.90659" lon="0.1546">
        <ele>140.7</ele>
        <time>2018-04-27T15:30:42Z</time>
      </trkpt>
      <trkpt lat="43.90649" lon="0.15458">
        <ele>141.2</ele>
        <time>2018-04-27T15:30:56Z</time>
      </trkpt>
      <trkpt lat="43.90645" lon="0.15458">
        <ele>141.6</ele>
        <time>2018-04-27T15:31:02Z</time>
      </trkpt>
      <trkpt lat="43.9063" lon="0.15454">
        <ele>142.6</ele>
        <time>2018-04-27T15:31:18Z</time>
      </trkpt>
      <trkpt lat="43.90618" lon="0.15445">
        <ele>143.5</ele>
        <time>2018-04-27T15:31:33Z</time>
      </trkpt>
      <trkpt lat="43.90608" lon="0.15446">
        <ele>144.2</ele>
        <time>2018-04-27T15:31:44Z</time>
      </trkpt>
      <trkpt lat="43.90603" lon="0.15447">
        <ele>144.7</ele>
        <time>2018-04-27T15:31:49Z</time>
      </trkpt>
      <trkpt lat="43.90589" lon="0.15442">
        <ele>145.6</ele>
        <time>2018-04-27T15:32:01Z</time>
      </trkpt>
      <trkpt lat="43.90575" lon="0.15439">
        <ele>147.6</ele>
        <time>2018-04-27T15:32:25Z</time>
      </trkpt>
      <trkpt lat="43.90571" lon="0.15437">
        <ele>148</ele>
        <time>2018-04-27T15:32:29Z</time>
      </trkpt>
      <trkpt lat="43.90561" lon="0.1543">
        <ele>149.1</ele>
        <time>2018-04-27T15:32:40Z</time>
      </trkpt>
      <trkpt lat="43.90547" lon="0.15425">
        <ele>150.9</ele>
        <time>2018-04-27T15:32:57Z</time>
      </trkpt>
      <trkpt lat="43.90542" lon="0.15424">
        <ele>151.6</ele>
        <time>2018-04-27T15:33:04Z</time>
      </trkpt>
      <trkpt lat="43.90532" lon="0.15423">
        <ele>152.9</ele>
        <time>2018-04-27T15:33:16Z</time>
      </trkpt>
      <trkpt lat="43.90519" lon="0.15417">
        <ele>154.3</ele>
        <time>2018-04-27T15:33:29Z</time>
      </trkpt>
      <trkpt lat="43.90513" lon="0.15413">
        <ele>154.8</ele>
        <time>2018-04-27T15:33:34Z</time>
      </trkpt>
      <trkpt lat="43.90506" lon="0.15409">
        <ele>155.4</ele>
        <time>2018-04-27T15:33:40Z</time>
      </trkpt>
      <trkpt lat="43.90493" lon="0.15413">
        <ele>156.9</ele>
        <time>2018-04-27T15:33:56Z</time>
      </trkpt>
      <trkpt lat="43.90486" lon="0.15416">
        <ele>157.9</ele>
        <time>2018-04-27T15:34:07Z</time>
      </trkpt>
      <trkpt lat="43.90484" lon="0.15416">
        <ele>158.2</ele>
        <time>2018-04-27T15:34:10Z</time>
      </trkpt>
      <trkpt lat="43.90473" lon="0.15415">
        <ele>158.8</ele>
        <time>2018-04-27T15:34:26Z</time>
      </trkpt>
      <trkpt lat="43.90472" lon="0.15416">
        <ele>159.3</ele>
        <time>2018-04-27T15:34:40Z</time>
      </trkpt>
    </trkseg>
  </trk>
</gpx>